[[{"header":{"parameterUnit":"m.s-1","parameterCategory":1,"la1":30.6,"la2":28.766,"lo1":-90.7593,"lo2":-88.6598,"dy":0.0162,"dx":0.0183,"nx":116,"ny":114,"refTime":"2023-08-02T00:00:00:Z","depth":0,"parameterNumber":2,"parameterNumberName":"U-component_of_WINDS"},"data":[0.0,0.0,0.0,0.0,0.0,0.0,0.0,0.0,0.0,0.0,0.0,0.0,0.0,0.0,0.0,0.0,0.0,0.0,0.0,0.0,0.0,0.0,0.0,0.0,0.0,0.0,0.0,0.0,0.0,0.0,0.0,0.0,0.0,0.0,0.0,0.0,0.0,0.0,0.0,0.0,0.0,0.0,0.0,0.0,0.0,0.0,0.0,0.0,0.0,0.0,0.0,0.0,0.0,0.0,0.0,0.0,0.0,0.0,0.0,0.0,0.0,0.0,0.0,0.0,0.0,0.0,0.0,0.0,0.0,0.0,0.0,0.0,0.0,0.0,0.0,0.0,0.0,0.0,0.0,0.0,0.0,0.0,0.0,0.0,0.0,0.0,0.0,0.0,0.0,0.0,0.0,0.0,0.0,0.0,0.0,0.0,0.0,0.0,0.0,0.0,0.0,0.0,0.0,0.0,0.0,0.0,0.0,0.0,0.0,0.0,0.0,0.0,0.0,0.0,0.0,0.0,0.0,0.0,0.0,0.0,0.0,0.0,0.0,0.0,0.0,0.0,0.0,0.0,0.0,0.0,0.0,0.0,0.0,0.0,0.0,0.0,0.0,0.0,0.0,0.0,0.0,0.0,0.0,0.0,0.0,0.0,0.0,0.0,0.0,0.0,0.0,0.0,0.0,0.0,0.0,0.0,0.0,0.0,0.0,0.0,0.0,0.0,0.0,0.0,0.0,0.0,0.0,0.0,0.0,0.0,0.0,0.0,0.0,0.0,0.0,0.0,0.0,0.0,0.0,0.0,0.0,0.0,0.0,0.0,0.0,0.0,0.0,0.0,0.0,0.0,0.0,0.0,0.0,0.0,0.0,0.0,0.0,0.0,0.0,0.0,0.0,0.0,0.0,0.0,0.0,0.0,0.0,0.0,0.0,0.0,0.0,0.0,0.0,0.0,0.0,0.0,0.0,0.0,0.0,0.0,0.0,0.0,0.0,0.0,0.0,0.0,0.0,0.0,0.0,0.0,0.0,0.0,0.0,0.0,0.0,0.0,0.0,0.0,0.0,0.0,0.0,0.0,0.0,0.0,0.0,0.0,0.0,0.0,0.0,0.0,0.0,0.0,0.0,0.0,0.0,0.0,0.0,0.0,0.0,0.0,0.0,0.0,0.0,0.0,0.0,0.0,0.0,0.0,0.0,0.0,0.0,0.0,0.0,0.0,0.0,0.0,0.0,0.0,0.0,0.0,0.0,0.0,0.0,0.0,0.0,0.0,0.0,0.0,0.0,0.0,0.0,0.0,0.0,0.0,0.0,0.0,0.0,0.0,0.0,0.0,0.0,0.0,0.0,0.0,0.0,0.0,0.0,0.0,0.0,0.0,0.0,0.0,0.0,0.0,0.0,0.0,0.0,0.0,0.0,0.0,0.0,0.0,0.0,0.0,0.0,0.0,0.0,0.0,0.0,0.0,0.0,0.0,0.0,0.0,0.0,0.0,0.0,0.0,0.0,0.0,0.0,0.0,0.0,0.0,0.0,0.0,0.0,0.0,0.0,0.0,0.0,0.0,0.0,0.0,0.0,0.0,0.0,0.0,0.0,0.0,0.0,0.0,0.0,0.0,0.0,0.0,0.0,0.0,0.0,0.0,0.0,0.0,0.0,0.0,0.0,0.0,0.0,0.0,0.0,0.0,0.0,0.0,0.0,0.0,0.0,0.0,0.0,0.0,0.0,0.0,0.0,0.0,0.0,0.0,0.0,0.0,0.0,0.0,0.0,0.0,0.0,0.0,0.0,0.0,0.0,0.0,0.0,0.0,0.0,0.0,0.0,0.0,0.0,0.0,0.0,0.0,0.0,0.0,0.0,0.0,0.0,0.0,0.0,0.0,0.0,0.0,0.0,0.0,0.0,0.0,0.0,0.0,0.0,0.0,0.0,0.0,0.0,0.0,0.0,0.0,0.0,0.0,0.0,0.0,0.0,0.0,0.0,0.0,0.0,0.0,0.0,0.0,0.0,0.0,0.0,0.0,0.0,0.0,0.0,0.0,0.0,0.0,0.0,0.0,0.0,0.0,0.0,0.0,0.0,0.0,0.0,0.0,0.0,0.0,0.0,0.0,0.0,0.0,0.0,0.0,0.0,0.0,0.0,0.0,0.0,0.0,0.0,0.0,0.0,0.0,0.0,0.0,0.0,0.0,0.0,0.0,0.0,0.0,0.0,0.0,0.0,0.0,0.0,0.0,0.0,0.0,0.0,0.0,0.0,0.0,0.0,0.0,0.0,0.0,0.0,0.0,0.0,0.0,0.0,0.0,0.0,0.0,0.0,0.0,0.0,0.0,0.0,0.0,0.0,0.0,0.0,0.0,0.0,0.0,0.0,0.0,0.0,0.0,0.0,0.0,0.0,0.0,0.0,0.0,0.0,0.0,0.0,0.0,0.0,0.0,0.0,0.0,0.0,0.0,0.0,0.0,0.0,0.0,0.0,0.0,0.0,0.0,0.0,0.0,0.0,0.0,0.0,0.0,0.0,0.0,0.0,0.0,0.0,0.0,0.0,0.0,0.0,0.0,0.0,0.0,0.0,0.0,0.0,0.0,0.0,0.0,0.0,0.0,0.0,0.0,0.0,0.0,0.0,0.0,0.0,0.0,0.0,0.0,0.0,0.0,0.0,0.0,0.0,0.0,0.0,0.0,0.0,0.0,0.0,0.0,0.0,0.0,0.0,0.0,0.0,0.0,0.0,0.0,0.0,0.0,0.0,0.0,0.0,0.0,0.0,0.0,0.0,0.0,0.0,0.0,0.0,0.0,0.0,0.0,0.0,0.0,0.0,0.0,0.0,0.0,0.0,0.0,0.0,0.0,0.0,0.0,0.0,0.0,0.0,0.0,0.0,0.0,0.0,0.0,0.0,0.0,0.0,0.0,0.0,0.0,0.0,0.0,0.0,0.0,0.0,0.0,0.0,0.0,0.0,0.0,0.0,0.0,0.0,0.0,0.0,0.0,0.0,0.0,0.0,0.0,0.0,0.0,0.0,0.0,0.0,0.0,0.0,0.0,0.0,0.0,0.0,0.0,0.0,0.0,0.0,0.0,0.0,0.0,0.0,0.0,0.0,0.0,0.0,0.0,0.0,0.0,0.0,0.0,0.0,0.0,0.0,0.0,0.0,0.0,0.0,0.0,0.0,0.0,0.0,0.0,0.0,0.0,0.0,0.0,0.0,0.0,0.0,0.0,0.0,0.0,0.0,0.0,0.0,0.0,0.0,0.0,0.0,0.0,0.0,0.0,0.0,0.0,0.0,0.0,0.0,0.0,0.0,0.0,0.0,0.0,0.0,0.0,0.0,0.0,0.0,0.0,0.0,0.0,0.0,0.0,0.0,0.0,0.0,0.0,0.0,0.0,0.0,0.0,0.0,0.0,0.0,0.0,0.0,0.0,0.0,0.0,0.0,0.0,0.0,0.0,0.0,0.0,0.0,0.0,0.0,0.0,0.0,0.0,0.0,0.0,0.0,0.0,0.0,0.0,0.0,0.0,0.0,0.0,0.0,0.0,0.0,0.0,0.0,0.0,0.0,0.0,0.0,0.0,0.0,0.0,0.0,0.0,0.0,0.0,0.0,0.0,0.0,0.0,0.0,0.0,0.0,0.0,0.0,0.0,0.0,0.0,0.0,0.0,0.0,0.0,0.0,0.0,0.0,0.0,0.0,0.0,0.0,0.0,0.0,0.0,0.0,0.0,0.0,0.0,0.0,0.0,0.0,0.0,0.0,0.0,0.0,0.0,0.0,0.0,0.0,0.0,0.0,0.0,0.0,0.0,0.0,0.0,0.0,0.0,0.0,0.0,0.0,0.0,0.0,0.0,0.0,0.0,0.0,0.0,0.0,0.0,0.0,0.0,0.0,0.0,0.0,0.0,0.0,0.0,0.0,0.0,0.0,0.0,0.0,0.0,0.0,0.0,0.0,0.0,0.0,0.0,0.0,0.0,0.0,0.0,0.0,0.0,0.0,0.0,0.0,0.0,0.0,0.0,0.0,0.0,0.0,0.0,0.0,0.0,0.0,0.0,0.0,0.0,0.0,0.0,0.0,0.0,0.0,0.0,0.0,0.0,0.0,0.0,0.0,0.0,0.0,0.0,0.0,0.0,0.0,0.0,0.0,0.0,0.0,0.0,0.0,0.0,0.0,0.0,0.0,0.0,0.0,0.0,0.0,0.0,0.0,0.0,0.0,0.0,0.0,0.0,0.0,0.0,0.0,0.0,0.0,0.0,0.0,0.0,0.0,0.0,0.0,0.0,0.0,0.0,0.0,0.0,0.0,0.0,0.0,0.0,0.0,0.0,0.0,0.0,0.0,0.0,0.0,0.0,0.0,0.0,0.0,0.0,0.0,0.0,0.0,0.0,0.0,0.0,0.0,0.0,0.0,0.0,0.0,0.0,0.0,0.0,0.0,0.0,0.0,0.0,0.0,0.0,0.0,0.0,0.0,0.0,0.0,0.0,0.0,0.0,0.0,0.0,0.0,0.0,0.0,0.0,0.0,0.0,0.0,0.0,0.0,0.0,0.0,0.0,0.0,0.0,0.0,0.0,0.0,0.0,0.0,0.0,0.0,0.0,0.0,0.0,0.0,0.0,0.0,0.0,0.0,0.0,0.0,0.0,0.0,0.0,0.0,0.0,0.0,0.0,0.0,0.0,0.0,0.0,0.0,0.0,0.0,0.0,0.0,0.0,0.0,0.0,0.0,0.0,0.0,0.0,0.0,0.0,0.0,0.0,0.0,0.0,0.0,0.0,0.0,0.0,0.0,0.0,0.0,0.0,0.0,0.0,0.0,0.0,0.0,0.0,0.0,0.0,0.0,0.0,0.0,0.0,0.0,0.0,0.0,0.0,0.0,0.0,0.0,0.0,0.0,0.0,0.0,0.0,0.0,0.0,0.0,0.0,0.0,0.0,0.0,0.0,0.0,0.0,0.0,0.0,0.0,0.0,0.0,0.0,0.0,0.0,0.0,0.0,0.0,0.0,0.0,0.0,0.0,0.0,0.0,0.0,0.0,0.0,0.0,0.0,0.0,0.0,0.0,0.0,0.0,0.0,0.0,0.0,0.0,0.0,0.0,0.0,0.0,0.0,0.0,0.0,0.0,0.0,0.0,0.0,0.0,0.0,0.0,0.0,0.0,0.0,0.0,0.0,0.0,0.0,0.0,0.0,0.0,0.0,0.0,0.0,0.0,0.0,0.0,0.0,0.0,0.0,0.0,0.0,0.0,0.0,0.0,0.0,0.0,0.0,0.0,0.0,0.0,0.0,0.0,0.0,0.0,0.0,0.0,0.0,0.0,0.0,0.0,0.0,0.0,0.0,0.0,0.0,0.0,0.0,0.0,0.0,0.0,0.0,0.0,0.0,0.0,0.0,0.0,0.0,0.0,0.0,0.0,0.0,0.0,0.0,0.0,0.0,0.0,0.0,0.0,0.0,0.0,0.0,0.0,0.0,0.0,0.0,0.0,0.0,0.0,0.0,0.0,0.0,0.0,0.0,0.0,0.0,0.0,0.0,0.0,0.0,0.0,0.0,0.0,0.0,0.0,0.0,0.0,0.0,0.0,0.0,0.0,0.0,0.0,0.0,0.0,0.0,0.0,0.0,0.0,0.0,0.0,0.0,0.0,0.0,0.0,0.0,0.0,0.0,0.0,0.0,0.0,0.0,0.0,0.0,0.0,0.0,0.0,0.0,0.0,0.0,0.0,0.0,0.0,0.0,0.0,0.0,0.0,0.0,0.0,0.0,0.0,0.0,0.0,0.0,0.0,0.0,0.0,0.0,0.0,0.0,0.0,0.0,0.0,0.0,0.0,0.0,0.0,0.0,0.0,0.0,0.0,0.0,0.0,0.0,0.0,0.0,0.0,0.0,0.0,0.0,0.0,0.0,0.0,0.0,0.0,0.0,0.0,0.0,0.0,0.0,0.0,0.0,0.0,0.0,0.0,0.0,0.0,0.0,0.0,0.0,0.0,0.0,0.0,0.0,0.0,0.0,0.0,0.0,0.0,0.0,0.0,0.0,0.0,0.0,0.0,0.0,0.0,0.0,0.0,0.0,0.0,0.0,0.0,0.0,0.0,0.0,-0.0,0.0,0.0,0.0,0.0,0.0,0.0,0.0,0.0,0.0,0.0,0.0,0.0,0.0,0.0,0.0,0.0,0.0,0.0,0.0,0.0,0.0,0.0,0.0,0.0,0.0,0.0,0.0,0.0,0.0,0.0,0.0,0.0,0.0,0.0,0.0,0.0,0.0,0.0,0.0,0.0,0.0,0.0,0.0,0.0,0.0,0.0,0.0,0.0,0.0,0.0,0.0,0.0,0.0,0.0,0.0,0.0,0.0,0.0,0.0,0.0,0.0,0.0,0.0,0.0,0.0,0.0,0.0,0.0,0.0,0.0,0.0,0.0,0.0,0.0,0.0,0.0,0.0,0.0,0.0,0.0,0.0,0.0,0.0,0.0,0.0,0.0,0.0,0.0,0.0,0.0,0.0,0.0,0.0,0.0,0.0,0.0,0.0,0.0,0.0,0.0,0.0,0.0,0.0,0.0,0.0,0.0,0.0,0.0,0.0,0.0,0.0,0.0,0.0,0.0,0.0,0.0,-0.0,0.0,0.0,0.0,0.0,0.0,0.0,0.0,0.0,0.0,0.0,0.0,0.0,0.0,0.0,0.0,0.0,0.0,0.0,0.0,0.0,0.0,0.0,0.0,0.0,0.0,0.0,0.0,0.0,0.0,0.0,0.0,0.0,0.0,0.0,0.0,0.0,0.0,0.0,0.0,0.0,0.0,0.0,0.0,0.0,0.0,0.0,0.0,0.0,0.0,0.0,0.0,0.0,0.0,0.0,0.0,0.0,0.0,0.0,0.0,0.0,0.0,0.0,0.0,0.0,0.0,0.0,0.0,0.0,0.0,0.0,0.0,0.0,0.0,0.0,0.0,0.0,0.0,0.0,0.0,0.0,0.0,0.0,0.0,0.0,0.0,0.0,0.0,0.0,0.0,0.0,0.0,0.0,0.0,0.0,0.0,0.0,0.0,0.0,0.0,0.0,0.0,0.0,0.0,0.0,0.0,0.0,0.0,0.0,-0.0,-0.0,-0.0,-0.0,-0.0,-0.0,-0.0,-0.0,0.0079,0.0785,0.0,0.0,0.0,0.0,0.0,0.0,0.0,0.0,0.0,0.0,0.0,0.0,0.0,0.0,0.0,0.0,0.0,0.0,0.0,0.0,0.0,0.0,0.0,0.0,0.0,0.0,0.0,0.0,0.0,0.0,0.0,0.0,0.0,0.0,0.0,0.0,0.0,0.0,-0.0,-0.0,-0.0,-0.0,0.0,0.0,0.0,0.0,0.0,0.0,0.0,0.0,0.0,0.0,0.0,0.0,0.0,0.0,0.0,0.0,0.0,0.0,0.0,0.0,0.0,0.0,0.0,0.0,0.0,0.0,0.0,0.0,0.0,0.0,0.0,0.0,0.0,0.0,0.0,0.0,0.0,0.0,0.0,0.0,0.0,0.0,0.0,0.0,0.3515,0.3517,0.0,0.0,0.0,0.0,0.0,0.0,0.0,0.0,0.0,0.0,0.0,0.0,0.0,-0.0,-0.0,-0.0,-0.0,-0.0,-0.0,-0.0,-0.0,-0.0,-0.0,-0.0,-0.0,0.0,0.0314,0.3936,0.0,0.0,0.0,0.0,0.0,0.0,0.0,0.0,0.0,0.0,0.0,0.0,0.0,0.0,0.0,0.0,0.0,0.0,0.0,0.0,0.0,0.0,0.0,0.0,0.0,0.0,0.0,0.0,0.0,0.0,0.0,0.0,0.0,0.0,0.0,0.0,-0.0,-0.0,-0.0,-0.0,-0.0,-0.0,-0.0,-0.0,-0.0,-0.0,0.0,0.0,0.0,0.0,0.0,0.0,0.0,0.0,0.0,0.0,0.0,0.0,0.0,0.0,0.0,0.0,0.0,0.0,0.0,0.0,0.0,0.0,0.0,0.0,0.0,0.0,0.0,0.0,0.0,0.0,0.0,0.0,0.0,0.0,0.0,0.0,0.0,0.0,0.0,0.2659,0.1331,0.1331,0.2198,0.2752,0.0,0.0,0.0,0.0,0.0,0.0,0.0,0.0,0.0,-0.0,-0.0,-0.0,-0.0,-0.0,-0.0,-0.0,-0.0,-0.0,-0.0,-0.0,-0.0,0.0157,0.2515,0.354,0.3698,0.5526,0.5202,0.3686,0.0,0.0,0.0,0.0,0.6268,0.6338,0.0,0.0,0.0,0.0,0.0,0.0,0.0,0.0,0.0,0.0,0.0,0.0,0.0,0.0,0.0,-0.0,0.0,0.0,0.0,0.0,0.0,0.0,0.0,0.0,0.0,0.0,0.0,0.0,-0.0,-0.0,-0.0,-0.0,-0.0,-0.0,-0.0,-0.0,-0.0,-0.0,-0.0,0.0,0.0,0.0,0.0,0.0,0.0,0.0,0.0,0.0,0.0,0.0,0.0,0.0,0.0,0.0,0.0,0.0,0.0,0.0,0.0,0.0,0.0,0.0,0.0,0.0,0.0,0.0,0.0,0.0,0.0,0.0,0.0,0.0,0.0,0.0,0.0,0.0,0.0,0.094,-0.0,-0.0,-0.0,-0.0,0.0,0.0,0.0,0.0,0.0,0.0,-0.0,-0.0,-0.0,-0.0,-0.0,-0.0,-0.0,-0.0,-0.0,-0.0,-0.0,-0.0,-0.0,-0.0,0.063,0.198,0.5173,0.6486,0.643,0.6349,0.6308,0.6295,0.6281,0.6271,0.6264,0.6264,0.6338,0.6338,0.0,0.0,0.0,0.0,0.0,0.0,0.0,0.0,0.0,0.0,0.0,0.0,0.0,0.0,-0.0,-0.0,-0.0,-0.0,0.0,0.0,0.0,0.0,0.0,0.0,0.0,0.0,0.0,-0.0,-0.0,-0.0,-0.0,-0.0,-0.0,-0.0,-0.0,-0.0,-0.0,-0.0,-0.0,-0.0,0.0,0.0,0.0,0.0,0.0,0.0,0.0,0.0,0.0,0.0,0.0,0.0,0.0,0.0,0.0,0.0,0.0,0.0,0.0,0.0,0.0,0.0,0.0,0.0,0.0,0.0,0.0,0.0,0.0,0.0,0.0,0.0,0.0,0.0,0.0,0.0,0.0,0.0,0.0,-0.0,-0.0,0.0,0.0,0.0,0.0,-0.0,-0.0,-0.0,-0.0,-0.0,-0.0,-0.0,-0.0,-0.0,-0.0,-0.0,-0.0,-0.0,-0.0,-0.0,-0.0,-0.0,0.2464,0.6781,0.695,0.6944,0.6625,0.6403,0.6288,0.6295,0.6271,0.6268,0.6278,0.6264,0.6338,0.6338,0.0,0.0,0.0,0.0,0.0,0.0,0.0,0.0,0.0,0.0,0.0,0.0,0.0,-0.0,-0.0,-0.0,-0.0,-0.0,-0.0,0.0,0.0,0.0,0.0,0.0,0.0,0.0,-0.0,-0.0,-0.0,-0.0,-0.0,-0.0,-0.0,-0.0,-0.0,-0.0,-0.0,-0.0,-0.0,-0.0,-0.0,-0.0,0.0,0.0,0.0,0.0,0.0,0.0,0.0,0.0,0.0,0.0,0.0,0.0,0.0,0.0,0.0,0.0,0.0,0.0,0.0,0.0,0.0,0.0,0.0,0.0,0.0,0.0,0.0,0.0,0.0,0.0,0.0,0.0,0.0,0.0,0.0,0.0,0.0,-0.0,-0.0,0.0,-0.0,-0.0,-0.0,-0.0,-0.0,-0.0,-0.0,-0.0,-0.0,-0.0,-0.0,-0.0,-0.0,-0.0,-0.0,-0.0,-0.0,0.162,0.4608,0.4608,0.4707,0.4901,0.6321,0.6854,0.6722,0.66,0.6556,0.6651,0.6549,0.6546,0.6549,0.6546,0.6542,0.6542,0.0,0.0,0.0,0.0,0.0,0.0,0.0,0.0,0.0,0.0,0.0,-0.0,-0.0,-0.0,-0.0,-0.0,-0.0,-0.0,-0.0,0.0,0.0,0.0,0.0,0.0,0.0,-0.0,-0.0,-0.0,-0.0,-0.0,-0.0,-0.0,-0.0,-0.0,-0.0,-0.0,-0.0,-0.0,-0.0,-0.0,-0.0,-0.0,-0.0,0.0,0.0,0.0,0.0,0.0,0.0,0.0,0.0,0.0,0.0,0.0,0.0,0.0,0.0,0.0,0.0,0.0,0.0,0.0,0.0,0.0,0.0,0.0,0.0,0.0,0.0,0.0,0.0,0.0,0.0,0.0,0.0,0.0,0.0,0.0,-0.0,-0.0,-0.0,-0.0,-0.0,-0.0,-0.0,-0.0,-0.0,-0.0,-0.0,-0.0,-0.0,-0.0,-0.0,0.0795,0.2384,0.2403,0.2025,0.1232,0.1232,0.2899,0.5907,0.6766,0.6266,0.4833,0.6282,0.6908,0.6861,0.6851,0.6854,0.6851,0.6742,0.6702,0.6702,0.6702,0.6702,0.6702,0.0,0.0,0.0,0.0,0.0,0.0,0.0,0.0,0.0,0.0,-0.0,-0.0,-0.0,-0.0,-0.0,-0.0,-0.0,-0.0,-0.0,-0.0,0.0,0.0,0.0,0.0,-0.0,-0.0,-0.0,-0.0,-0.0,-0.0,-0.0,-0.0,-0.0,-0.0,-0.0,-0.0,-0.0,-0.0,-0.0,-0.0,-0.0,-0.0,-0.0,0.0,0.0,0.0,0.0,0.0,0.0,0.0,0.0,0.0,0.0,0.0,0.0,0.0,0.0,0.0,0.0,0.0,0.0,0.0,0.0,0.0,0.0,0.0,0.0,0.0,0.0,0.0,0.0,0.0,0.0,0.0,0.0,0.0,-0.0,-0.0,-0.0,-0.0,-0.0,-0.0,-0.0,-0.0,-0.0,-0.0,-0.0,-0.0,-0.0,-0.0,0.0079,0.0236,0.0241,0.2361,0.6968,0.7037,0.5993,0.3692,0.3692,0.3693,0.3779,0.6077,0.7098,0.7128,0.7128,0.7114,0.7139,0.7139,0.7139,0.7112,0.6824,0.6715,0.6715,0.6715,0.6715,0.6715,0.0,0.0,0.0,0.0,0.0,0.0,0.0,0.0,0.0,0.0,-0.0,-0.0,-0.0,-0.0,-0.0,-0.0,-0.0,-0.0,-0.0,0.0,0.0,0.0,0.0,0.0,-0.0,-0.0,-0.0,-0.0,-0.0,-0.0,-0.0,-0.0,-0.0,-0.0,-0.0,-0.0,-0.0,-0.0,-0.0,-0.0,-0.0,-0.0,-0.0,0.0,0.0,0.0,0.0,0.0,0.0,0.0,0.0,0.0,0.0,0.0,0.0,0.0,0.0,0.0,0.0,0.0,0.0,0.0,0.0,0.0,0.0,0.0,0.0,0.0,0.0,0.0,0.0,0.0,0.0,0.0,0.0,-0.0,-0.0,-0.0,-0.0,-0.0,-0.0,-0.0,-0.0,-0.0,-0.0,-0.0,-0.0,-0.0,-0.0,-0.0,0.1611,0.5009,0.5123,0.4926,0.4578,0.6222,0.6814,0.6129,0.6129,0.6171,0.6162,0.6789,0.7071,0.7088,0.7088,0.7109,0.7139,0.7139,0.7139,0.7132,0.7051,0.7017,0.7017,0.7017,0.7017,0.7017,0.0,0.0,0.0,0.0,0.0,0.0,0.0,0.0,0.0,0.0,-0.0,-0.0,-0.0,-0.0,-0.0,-0.0,-0.0,-0.0,-0.0,0.0,0.0,0.0,0.0,-0.0,-0.0,-0.0,-0.0,-0.0,-0.0,-0.0,-0.0,-0.0,-0.0,-0.0,-0.0,-0.0,-0.0,-0.0,-0.0,-0.0,-0.0,-0.0,-0.0,-0.0,-0.0,-0.0,-0.0,-0.0,-0.0,-0.0,0.0,0.0,0.0,0.0,0.0,0.0,0.0,0.0,0.0,0.0,0.0,0.0,0.0,0.0,0.0,0.0,0.0,0.0,0.0,0.0,0.0,0.0,0.0,0.0,-0.0,-0.0,-0.0,-0.0,-0.0,-0.0,-0.0,-0.0,-0.0,-0.0,-0.0,-0.0,-0.0,0.089,0.2832,0.2951,0.3796,0.5539,0.6605,0.6417,0.5101,0.6459,0.7059,0.7138,0.7138,0.7088,0.7071,0.7071,0.7064,0.7139,0.7139,0.7139,0.7139,0.7139,0.7139,0.0,0.0,0.0,0.0,0.0,0.7139,0.7149,0.0,0.0,0.0,0.0,0.0,0.0,0.0,0.0,0.0,0.0,0.0,-0.0,-0.0,-0.0,-0.0,-0.0,-0.0,-0.0,0.0,0.0,0.0,-0.0,-0.0,-0.0,-0.0,-0.0,-0.0,-0.0,-0.0,-0.0,-0.0,-0.0,-0.0,-0.0,-0.0,-0.0,-0.0,-0.0,-0.0,-0.0,-0.0,-0.0,-0.0,-0.0,-0.0,-0.0,-0.0,-0.0,-0.0,-0.0,0.0,0.0,0.0,0.0,0.0,0.0,0.0,0.0,0.0,0.0,0.0,0.0,0.0,0.0,0.0,0.0,0.0,0.0,0.0,0.0,0.0,0.0,0.0,0.0,-0.0,-0.0,-0.0,-0.0,-0.0,-0.0,-0.0,-0.0,-0.0,-0.0,0.0253,0.0758,0.0842,0.2524,0.6512,0.0,0.0,0.0,0.0,0.7083,0.7059,0.7105,0.7071,0.7139,0.7139,0.7139,0.7139,0.7139,0.7139,0.7139,0.7139,0.7139,0.7139,0.7139,0.7149,0.7166,0.7146,0.7149,0.7166,0.7166,0.7177,0.721,0.0,0.0,0.0,0.0,0.0,0.0,0.0,0.0,0.0,-0.0,-0.0,-0.0,-0.0,-0.0,-0.0,-0.0,-0.0,-0.0,0.0,0.0,-0.0,-0.0,-0.0,-0.0,-0.0,-0.0,-0.0,-0.0,-0.0,-0.0,-0.0,-0.0,-0.0,-0.0,-0.0,-0.0,-0.0,-0.0,-0.0,-0.0,-0.0,-0.0,-0.0,-0.0,-0.0,-0.0,-0.0,-0.0,-0.0,-0.0,-0.0,-0.0,-0.0,0.0,0.0,0.0,0.0,0.0,0.0,0.0,0.0,0.0,0.0,0.0,0.0,0.0,0.0,0.0,0.0,0.0,0.0,0.0,0.0,-0.0,-0.0,-0.0,-0.0,-0.0,-0.0,-0.0,-0.0,-0.0,-0.0,-0.0,0.1599,0.5404,0.5745,0.5312,0.4365,0.6087,0.6929,0.6468,0.6877,0.7126,0.7105,0.7132,0.7058,0.7139,0.0,0.0,0.7139,0.7139,0.7139,0.7139,0.7139,0.7139,0.7139,0.7139,0.7214,0.7316,0.7187,0.7217,0.7326,0.7326,0.7404,0.7516,0.0,0.0,0.0,0.0,0.0,0.0,0.0,0.0,0.0,0.0,-0.0,-0.0,-0.0,-0.0,-0.0,-0.0,-0.0,0.0,0.0,-0.0,-0.0,-0.0,-0.0,-0.0,-0.0,-0.0,-0.0,-0.0,-0.0,-0.0,-0.0,-0.0,-0.0,-0.0,-0.0,-0.0,-0.0,-0.0,-0.0,0.0157,0.2278,0.3146,0.2909,0.0785,-0.0,-0.0,-0.0,0.1335,0.3146,0.3146,0.2433,0.1568,0.1587,0.0804,-0.0,0.0,0.0,0.0,0.0,0.0,0.0,0.0,0.0,0.0,0.0,0.0,0.0,0.0,0.0,-0.0,0.0,0.0,-0.0,-0.0,-0.0,-0.0,-0.0,-0.0,-0.0,-0.0,-0.0,0.0957,0.3307,0.357,0.409,0.5216,0.6449,0.6621,0.5376,0.6499,0.7071,0.7131,0.7119,0.7064,0.7139,0.7139,0.7139,0.7139,0.7139,0.718,0.7255,0.7255,0.7299,0.737,0.737,0.737,0.737,0.737,0.7417,0.7478,0.74,0.7417,0.7485,0.7485,0.7536,0.7611,0.0,0.0,0.0,0.0,0.0,0.0,0.0,0.0,0.0,0.0,-0.0,-0.0,-0.0,-0.0,-0.0,0.0,0.0,0.0,0.0,-0.0,-0.0,-0.0,-0.0,-0.0,-0.0,-0.0,-0.0,-0.0,-0.0,-0.0,-0.0,-0.0,-0.0,-0.0,-0.0,0.0471,0.1256,0.1256,0.102,0.0863,0.4325,0.5921,0.5921,0.2512,0.0941,0.0627,0.0627,0.2826,0.5758,0.6162,0.5188,0.3752,0.3752,0.2535,0.1133,0.0831,0.068,0.0,0.0,0.0,0.0,0.0,0.0,0.0,0.0,0.0,-0.0,-0.0,-0.0,-0.0,-0.0,-0.0,-0.0,-0.0,-0.0,0.0359,0.1257,0.1348,0.1168,0.0718,0.1078,0.2876,0.677,0.7131,0.6296,0.4378,0.6005,0.7094,0.7081,0.7078,0.7071,0.7139,0.717,0.7183,0.7183,0.7214,0.7231,0.7231,0.7231,0.7295,0.7414,0.7414,0.7485,0.76,0.76,0.76,0.76,0.7631,0.7641,0.7645,0.7675,0.7685,0.7682,0.7651,0.7658,0.7702,0.0,0.0,0.0,0.0,0.0,0.0,0.0,0.0,0.0,0.0,0.0,0.0,0.0,0.0,0.0,0.0,0.0,0.0,-0.0,-0.0,-0.0,-0.0,-0.0,-0.0,-0.0,-0.0,-0.0,-0.0,-0.0,-0.0,-0.0,-0.0,-0.0,-0.0,-0.0,0.2121,0.5608,0.5608,0.4479,0.2812,0.3283,0.4623,0.622,0.574,0.4387,0.2734,0.2734,0.3047,0.3754,0.5659,0.6136,0.5973,0.5973,0.5749,0.5249,0.3643,0.0,0.3227,0.318,0.3213,0.3213,0.3213,0.1608,-0.0,0.0,0.0,-0.0,-0.0,-0.0,-0.0,-0.0,-0.0,-0.0,-0.0,-0.0,0.1438,0.5676,0.6314,0.5576,0.3484,0.5027,0.6499,0.7045,0.7118,0.7009,0.6723,0.6996,0.7078,0.7058,0.7143,0.7143,0.7139,0.7275,0.7346,0.7346,0.7478,0.755,0.755,0.755,0.7556,0.7573,0.7573,0.7584,0.76,0.76,0.76,0.7611,0.7736,0.7787,0.7801,0.7936,0.7991,0.7974,0.7838,0.7875,0.7991,0.0,0.0,0.0,0.0,0.0,0.0,0.0,0.0,0.0,0.0,0.0,0.0,0.0,0.0,0.0,0.0,0.0,0.0,-0.0,-0.0,-0.0,-0.0,-0.0,-0.0,-0.0,-0.0,-0.0,-0.0,-0.0,-0.0,-0.0,-0.0,0.1335,0.3698,0.3698,0.3929,0.455,0.5749,0.5743,0.4937,0.4932,0.5485,0.6285,0.6278,0.5715,0.4924,0.4935,0.4935,0.0,0.0,0.6281,0.6274,0.6274,0.6342,0.6298,0.5576,0.5515,0.0,0.5601,0.5644,0.0,0.0,0.4835,0.3757,0.2411,0.2055,0.2057,0.2057,0.2057,0.2057,0.2057,0.2057,0.2057,0.0,0.2057,0.2774,0.475,0.6201,0.6745,0.5735,0.6465,0.7108,0.7108,0.7098,0.7084,0.7068,0.7064,0.7061,0.7139,0.7224,0.7275,0.7275,0.7424,0.7506,0.7506,0.7567,0.76,0.76,0.76,0.7645,0.7723,0.7723,0.7773,0.7855,0.7855,0.7855,0.7858,0.7919,0.7943,0.795,0.8014,0.8038,0.8031,0.7967,0.7984,0.8038,0.0,0.0,0.0,0.0,0.0,0.0,0.0,0.0,0.0,0.0,0.0,0.0,0.0,0.0,0.0,0.0,0.0,0.0,0.0,-0.0,-0.0,-0.0,0.1099,0.1728,0.1728,0.0628,-0.0,-0.0,-0.0,0.0628,0.1728,0.1728,0.3064,0.5436,0.5999,0.5427,0.4064,0.5649,0.6288,0.6285,0.6278,0.6274,0.6274,0.6264,0.6338,0.6264,0.6281,0.6281,0.0,0.0,0.6268,0.6338,0.6338,0.6424,0.6548,0.6535,0.6807,0.7087,0.7051,0.0,0.0,0.7088,0.7094,0.664,0.4917,0.4556,0.4559,0.4559,0.4559,0.4559,0.4559,0.4559,0.4559,0.4559,0.4559,0.4556,0.4556,0.6002,0.7094,0.7088,0.7081,0.7074,0.7074,0.7074,0.7068,0.7143,0.7139,0.7156,0.7204,0.7312,0.739,0.7434,0.758,0.7658,0.7658,0.7699,0.7723,0.7723,0.7723,0.7773,0.7875,0.7875,0.7933,0.8038,0.8038,0.8038,0.8038,0.8038,0.8038,0.8038,0.8038,0.8038,0.8038,0.8038,0.8038,0.8038,0.0,0.0,0.0,0.0,0.0,0.0,0.0,0.0,0.0,0.0,0.0,0.0,0.0,0.0,0.0,0.0,0.0,0.0,0.0,-0.0,-0.0,-0.0,0.3936,0.609,0.609,0.2117,-0.0,-0.0,-0.0,0.2121,0.609,0.609,0.5037,0.3281,0.5338,0.6288,0.6197,0.6278,0.6274,0.6264,0.6338,0.6338,0.6338,0.6338,0.6338,0.6338,0.6338,0.0,0.0,0.0,0.6338,0.6338,0.6338,0.6342,0.0,0.6437,0.6695,0.6959,0.0,0.0,0.7143,0.7143,0.7071,0.7084,0.6996,0.7002,0.7009,0.7009,0.7009,0.7009,0.7009,0.7009,0.7009,0.7009,0.7009,0.7005,0.6996,0.7084,0.7078,0.7143,0.7143,0.7143,0.0,0.7143,0.7139,0.7139,0.7139,0.7207,0.7356,0.737,0.7441,0.7587,0.7729,0.7804,0.7804,0.795,0.8024,0.8024,0.8024,0.8028,0.8031,0.8031,0.8035,0.8038,0.8038,0.8038,0.8038,0.8038,0.8038,0.8038,0.8038,0.8038,0.8038,0.8038,0.8038,0.8038,0.0,0.0,0.0,0.0,0.0,0.0,0.0,0.0,0.0,0.0,0.0,0.0,0.0,0.0,0.0,0.0,0.0,0.0,0.0,-0.0,-0.0,-0.0,0.4016,0.6329,0.6329,0.4875,0.3444,0.2031,0.2032,0.2817,0.4233,0.5665,0.5899,0.5246,0.5964,0.6278,0.6268,0.6268,0.6264,0.6338,0.6338,0.6338,0.6338,0.6338,0.6338,0.6338,0.0,0.0,0.0,0.0,0.0,0.6338,0.6338,0.6325,0.6451,0.6702,0.6848,0.6959,0.7102,0.0,0.7139,0.7139,0.7058,0.7064,0.7064,0.7064,0.7068,0.7068,0.7068,0.7068,0.7068,0.7068,0.7068,0.7068,0.7068,0.7068,0.7064,0.7064,0.7061,0.7143,0.7139,0.0,0.0,0.0,0.0,0.7285,0.7292,0.736,0.7516,0.7611,0.7685,0.774,0.7885,0.7963,0.7963,0.8014,0.8038,0.8038,0.8038,0.8038,0.8038,0.8038,0.8038,0.8038,0.8038,0.8038,0.8038,0.8038,0.8038,0.8038,0.8038,0.8038,0.8038,0.8038,0.8038,0.8038,0.0,0.0,0.0,0.0,0.0,0.0,0.0,0.0,0.0,0.0,0.0,0.0,0.0,0.0,0.0,0.0,0.0,0.0,0.0,0.0,-0.0,-0.0,0.3297,0.5514,0.6315,0.6298,0.5646,0.4222,0.4224,0.4224,0.43,0.5649,0.6285,0.6271,0.6271,0.6268,0.6338,0.6338,0.6338,0.6338,0.6338,0.6338,0.6338,0.6338,0.6338,0.0,0.0,0.0,0.0,0.0,0.0,0.6338,0.6338,0.6322,0.6444,0.6695,0.6803,0.6878,0.7024,0.7102,0.7139,0.7139,0.7139,0.7139,0.7139,0.7139,0.7139,0.7139,0.7139,0.7139,0.7139,0.7139,0.7139,0.7139,0.7139,0.7139,0.7139,0.7139,0.7139,0.7139,0.7139,0.7139,0.0,0.0,0.0,0.7363,0.7421,0.7516,0.7665,0.7763,0.7834,0.7889,0.7987,0.8038,0.8038,0.8038,0.8038,0.8038,0.8038,0.8038,0.8038,0.8038,0.8038,0.8038,0.8038,0.8038,0.8038,0.8038,0.8038,0.8038,0.8038,0.8038,0.8038,0.8038,0.8038,0.8038,0.0,0.0,0.0,0.0,0.0,0.0,0.0,0.0,0.0,0.0,0.0,0.0,0.0,0.0,0.0,0.0,0.0,0.0,0.0,0.0,0.0,-0.0,0.1955,0.4068,0.6217,0.6285,0.6278,0.6278,0.6288,0.6288,0.6278,0.6278,0.6271,0.6338,0.6338,0.6338,0.6338,0.6338,0.6338,0.6338,0.6338,0.6338,0.6338,0.6338,0.0,0.0,0.0,0.0,0.0,0.0,0.0,0.0,0.0,0.6338,0.6288,0.643,0.658,0.6732,0.6888,0.7034,0.7139,0.7139,0.7139,0.7139,0.7139,0.7139,0.7139,0.7139,0.7139,0.7139,0.0,0.0,0.7139,0.7139,0.7139,0.7139,0.7139,0.7139,0.7139,0.0,0.0,0.0,0.0,0.0,0.0,0.7394,0.0,0.7672,0.7814,0.7824,0.7889,0.8035,0.8038,0.8038,0.8038,0.8038,0.8038,0.8038,0.8038,0.8038,0.8038,0.8038,0.8038,0.8038,0.8038,0.8038,0.8038,0.8038,0.8038,0.8038,0.8038,0.8038,0.8038,0.8038,0.8038,0.8038,0.0,0.0,0.0,0.0,0.0,0.0,0.0,0.0,0.0,0.0,0.0,0.0,0.0,0.0,0.0,0.0,0.0,0.0,0.0,0.0,0.0,0.0,0.0,0.0,0.0,0.0,0.0,0.0,0.0,0.6268,0.6268,0.6268,0.6264,0.6338,0.6338,0.6338,0.6338,0.6338,0.6338,0.6338,0.0,0.6338,0.6338,0.0,0.0,0.0,0.0,0.0,0.0,0.0,0.0,0.0,0.0,0.6338,0.6288,0.643,0.658,0.6732,0.6888,0.7034,0.7139,0.7139,0.7139,0.7139,0.7139,0.7139,0.7139,0.7139,0.7139,0.7139,0.0,0.0,0.0,0.7139,0.7139,0.0,0.7139,0.7139,0.0,0.7139,0.0,0.7187,0.7302,0.7451,0.0,0.0,0.7736,0.7824,0.7974,0.798,0.7997,0.8038,0.8038,0.8038,0.8038,0.8038,0.8038,0.8038,0.8038,0.8038,0.8038,0.8038,0.8038,0.8038,0.8038,0.8038,0.8038,0.8038,0.8038,0.8038,0.8038,0.8038,0.8038,0.8038,0.8038,0.8038,0.0,0.0,0.0,0.0,0.0,0.0,0.0,0.0,0.0,0.0,0.0,0.0,0.0,0.0,0.0,0.0,0.0,0.0,0.0,0.0,0.0,0.0,0.0,0.0,0.0,0.0,0.0,0.0,0.0,0.0,0.0,0.6338,0.6338,0.6338,0.6338,0.6338,0.6338,0.0,0.0,0.0,0.0,0.0,0.0,0.0,0.0,0.0,0.0,0.0,0.0,0.0,0.0,0.6338,0.6338,0.6338,0.6278,0.6356,0.0,0.6634,0.6787,0.6936,0.7061,0.7126,0.7139,0.7139,0.7139,0.7139,0.7139,0.7139,0.7139,0.0,0.0,0.0,0.0,0.0,0.0,0.0,0.7139,0.7139,0.7139,0.0,0.7139,0.0,0.7356,0.7509,0.7658,0.0,0.7872,0.7946,0.8035,0.8038,0.8038,0.8038,0.8038,0.8038,0.8038,0.8038,0.8038,0.8038,0.8038,0.8038,0.8038,0.8038,0.8038,0.8038,0.0,0.8038,0.8038,0.8038,0.8038,0.8038,0.8038,0.8038,0.8038,0.8038,0.8038,0.8038,0.0,0.0,0.0,0.0,0.0,0.0,0.0,0.0,0.0,0.0,0.0,0.0,0.0,0.0,0.0,0.0,0.0,0.0,0.0,0.0,0.0,0.0,0.0,0.0,0.0,0.0,0.0,0.0,0.0,0.0,0.0,0.0,0.0,0.0,0.0,0.0,0.0,0.0,0.0,0.0,0.0,0.0,0.0,0.0,0.0,0.0,0.0,0.0,0.0,0.0,0.6338,0.6338,0.6338,0.6338,0.6338,0.6338,0.6363,0.6505,0.6658,0.6814,0.6963,0.7105,0.7139,0.7139,0.7139,0.7139,0.7139,0.7139,0.0,0.7139,0.7139,0.7139,0.7139,0.7139,0.0,0.7139,0.7139,0.7139,0.7139,0.7139,0.7139,0.721,0.7387,0.7522,0.7665,0.7828,0.7963,0.8038,0.8038,0.8038,0.8038,0.8038,0.8038,0.8038,0.8038,0.8038,0.8038,0.8038,0.8038,0.8038,0.8038,0.8038,0.8038,0.8038,0.8038,0.8038,0.8038,0.8038,0.8038,0.8038,0.8038,0.8038,0.8038,0.8038,0.8038,0.8038,0.0,0.0,0.0,0.0,0.0,0.0,0.0,0.0,0.0,0.0,-0.0,-0.0,0.0,0.0,0.0,0.0,0.0,0.0,0.0,0.0,0.0,0.0,0.0,0.0,0.0,0.0,0.0,0.0,0.0,0.0,0.0,0.0,0.0,0.0,0.0,0.0,0.0,0.0,0.0,0.0,0.0,0.0,0.0,0.0,0.0,0.0,0.0,0.0,0.0,0.0,0.6338,0.6338,0.6338,0.6338,0.6338,0.6338,0.6363,0.6505,0.6658,0.6814,0.6963,0.7105,0.7139,0.7139,0.7139,0.7139,0.0,0.0,0.0,0.7139,0.7139,0.7139,0.0,0.7139,0.0,0.0,0.0,0.0,0.7139,0.0,0.0,0.0,0.0,0.0,0.0,0.0,0.0,0.8038,0.8038,0.8038,0.8038,0.8038,0.8038,0.8038,0.8038,0.8038,0.8038,0.8038,0.8038,0.8038,0.8038,0.8038,0.8038,0.8038,0.8038,0.0,0.8038,0.8038,0.8038,0.8038,0.8038,0.8038,0.8038,0.8038,0.8038,0.8038,0.0,0.0,0.0,0.0,0.0,0.0,0.0,-0.4637,-0.3147,-0.0361,-0.0,-0.0,-0.0,-0.0,0.0,0.0,0.0,0.0,0.0,0.0,0.0,0.0,0.0,0.0,0.0,0.0,0.0,0.0,0.0,0.0,0.0,0.0,0.0,0.0,0.0,0.0,0.0,0.0,0.0,0.0,0.0,0.0,0.0,0.0,0.0,0.0,0.0,0.0,0.0,0.0,0.6338,0.6338,0.6338,0.6338,0.6338,0.6338,0.6308,0.6393,0.6542,0.6695,0.6848,0.6993,0.7085,0.7139,0.7139,0.0,0.0,0.0,0.7139,0.7139,0.7139,0.0,0.0,0.0,0.0,0.0,0.0,0.0,0.0,0.0,0.0,0.0,0.0,0.0,0.0,0.0,0.0,0.8038,0.8038,0.8038,0.8038,0.8038,0.8038,0.8038,0.8038,0.8038,0.8038,0.8038,0.8038,0.8038,0.8038,0.8038,0.8038,0.8038,0.8038,0.0,0.8038,0.8038,0.8038,0.8038,0.8038,0.8038,0.8038,0.8038,0.8038,0.8038,0.0,0.0,0.0,0.0,0.0,0.0,0.0,-0.5389,-0.4382,-0.1505,-0.0508,-0.0,-0.0,-0.0,-0.0,0.0,0.0,0.0,0.0,0.0,0.0,0.0,0.0,0.0,0.0,0.0,0.0,0.4932,0.0,0.0,0.0,0.0,0.0,0.0,0.0,0.0,0.0,0.0,0.0,0.0,0.0,0.0,0.0,0.0,0.0,0.0,0.0,0.0,0.0,0.0,0.6338,0.6338,0.6338,0.6338,0.6338,0.6338,0.6338,0.6291,0.6434,0.6583,0.6736,0.6892,0.7034,0.7139,0.7139,0.7139,0.0,0.0,0.7139,0.7139,0.7139,0.0,0.0,0.0,0.0,0.0,0.0,0.0,0.0,0.0,0.0,0.0,0.0,0.0,0.0,0.0,0.0,0.0,0.8038,0.8038,0.8038,0.8038,0.8038,0.8038,0.8038,0.8038,0.8038,0.8038,0.8038,0.8038,0.8038,0.8038,0.8038,0.8038,0.8038,0.0,0.8038,0.8038,0.8038,0.8038,0.8038,0.8038,0.8038,0.8038,0.8038,0.8038,0.0,0.0,0.0,0.0,0.0,0.0,0.0,-0.5389,-0.5254,-0.4923,-0.201,-0.0,-0.0,-0.0,-0.0,0.0,0.0,0.0,0.0,0.0,0.0,0.0,0.0,0.0,0.0,0.0,0.0,0.0548,0.4389,0.0,0.0,0.0,0.0,0.0,0.0,0.0,0.0,0.0,0.0,0.0,0.0,0.0,0.0,0.0,0.0,0.0,0.0,0.0,0.0,0.0,0.0,0.6338,0.6338,0.6338,0.6338,0.6338,0.0,0.0,0.6434,0.6583,0.6736,0.6892,0.7034,0.7139,0.7139,0.0,0.0,0.7139,0.7139,0.7139,0.7139,0.7139,0.0,0.0,0.0,0.0,0.0,0.0,0.0,0.0,0.0,0.0,0.0,0.0,0.0,0.0,0.0,0.0,0.8038,0.8038,0.8038,0.8038,0.8038,0.8038,0.8038,0.8038,0.8038,0.8038,0.8038,0.8038,0.8038,0.8038,0.8038,0.8038,0.8038,0.0,0.0,0.8038,0.8038,0.8038,0.8038,0.8038,0.8038,0.8038,0.8038,0.8038,0.0,0.0,0.0,0.0,0.0,0.0,-0.5369,-0.4764,-0.4204,-0.3837,-0.1573,-0.0,-0.0,-0.0,-0.0,0.0,0.0,0.0,0.0,0.0,0.0,0.0,0.0,0.0,0.0,0.0,0.0,-0.0,0.1722,0.0,0.0,0.0,0.0,0.0,0.0,0.6338,0.0,0.0,0.0,0.0,0.0,0.0,0.0,0.0,0.0,0.0,0.0,0.0,0.0,0.0,0.0,0.0,0.6338,0.6338,0.0,0.0,0.6338,0.6352,0.6329,0.6451,0.66,0.6753,0.6902,0.7034,0.7122,0.0,0.7139,0.7139,0.7139,0.7139,0.7139,0.7139,0.7139,0.0,0.0,0.0,0.0,0.0,0.0,0.0,0.0,0.0,0.0,0.0,0.0,0.0,0.0,0.0,0.8038,0.8038,0.8038,0.8038,0.8038,0.8038,0.8038,0.8038,0.8038,0.8038,0.8038,0.8038,0.8038,0.8038,0.8038,0.8038,0.8038,0.0,0.0,0.8038,0.8038,0.8038,0.8038,0.8038,0.8038,0.8038,0.8038,0.8038,0.0,0.0,0.0,0.0,0.0,-0.5428,-0.5432,-0.4691,-0.3984,-0.3584,-0.1423,-0.0,-0.0,-0.0,-0.0,-0.0,0.0,0.0,0.0,0.0,0.0,0.0,0.0,0.0,0.0,0.0,-0.0,-0.0,-0.0,0.1017,0.0,0.0,0.6285,0.6268,0.0,0.0,0.0,0.0,0.0,0.0,0.0,0.0,0.0,0.0,0.0,0.0,0.0,0.0,0.0,0.0,0.0,0.0,0.0,0.0,0.0,0.0,0.6338,0.6338,0.6338,0.6366,0.6508,0.6661,0.6817,0.6966,0.0,0.0,0.7139,0.7139,0.7139,0.7139,0.7139,0.7139,0.7139,0.0,0.0,0.7139,0.0,0.0,0.0,0.0,0.0,0.0,0.0,0.0,0.0,0.0,0.0,0.0,0.8038,0.8038,0.8038,0.8038,0.8038,0.8038,0.8038,0.8038,0.8038,0.8038,0.8038,0.8038,0.8038,0.8038,0.8038,0.8038,0.8038,0.0,0.0,0.8038,0.8038,0.8038,0.8038,0.8038,0.8038,0.8038,0.8038,0.8038,0.0,0.0,0.0,0.0,0.0,0.0,-0.5376,-0.5389,-0.5399,-0.5346,-0.2258,-0.0,-0.0,-0.0,-0.0,-0.0,0.0,0.0,0.0,0.0,0.0,0.0,0.0,0.0,0.0,0.0,-0.0,-0.0,-0.0,-0.0,0.0157,0.4328,0.6312,0.6278,0.0,0.0,0.0,0.0,0.0,0.0,0.0,0.0,0.0,0.0,0.0,0.0,0.0,0.0,0.0,0.0,0.0,0.0,0.0,0.0,0.0,0.0,0.6338,0.6338,0.6338,0.6366,0.6508,0.6661,0.6817,0.6966,0.0,0.7139,0.7139,0.7139,0.7139,0.7139,0.7139,0.7139,0.7139,0.7139,0.7139,0.0,0.0,0.0,0.0,0.0,0.0,0.0,0.0,0.0,0.0,0.0,0.0,0.0,0.8031,0.8038,0.8038,0.8038,0.8038,0.8038,0.8038,0.8038,0.8038,0.8038,0.8038,0.8038,0.8038,0.8038,0.8038,0.8038,0.0,0.0,0.0,0.8038,0.8038,0.8038,0.8038,0.8038,0.8038,0.8038,0.8038,0.8038,0.0,0.0,0.0,0.0,0.0,0.0,0.0,-0.5369,-0.4934,-0.3719,-0.2561,-0.139,-0.0149,-0.0,-0.0,-0.0,0.0,0.0,0.0,0.0,0.0,0.0,0.0,0.0,0.0,0.0,-0.0,-0.0,-0.0,-0.0,-0.0,0.1332,0.274,0.4144,0.5649,0.0,0.0,0.0,0.0,0.0,0.0,0.0,0.0,0.0,0.0,0.0,0.0,0.0,0.0,0.0,0.0,0.0,0.0,0.0,0.0,0.0,0.0,0.0,0.6338,0.6295,0.6363,0.6508,0.6661,0.681,0.6963,0.7071,0.7139,0.7139,0.7139,0.7139,0.7139,0.7139,0.7139,0.7139,0.7139,0.0,0.0,0.0,0.0,0.0,0.0,0.0,0.0,0.0,0.0,0.0,0.0,0.0,0.7882,0.7984,0.8038,0.8038,0.8038,0.8038,0.8038,0.8038,0.8038,0.8038,0.8038,0.8038,0.8038,0.8038,0.8038,0.0,0.0,0.0,0.8038,0.8038,0.8038,0.8038,0.8038,0.8038,0.8038,0.8038,0.8038,0.8038,0.0,0.0,0.0,0.0,0.0,0.0,0.0,-0.5432,-0.5014,-0.3968,-0.3285,-0.2126,-0.0226,-0.0,-0.0,-0.0,0.0,0.0,0.0,0.0,0.0,0.0,0.0,0.0,0.0,-0.0,-0.0,-0.0,-0.0,-0.0,-0.0,-0.0,0.0704,0.2032,0.4155,0.0,0.0,0.0,0.0,0.0,0.0,0.0,0.5168,0.0,0.0,0.0,0.0,0.0,0.0,0.0,0.0,0.0,0.0,0.0,0.0,0.0,0.6338,0.0,0.0,0.6338,0.6295,0.6437,0.6546,0.0,0.0,0.6997,0.7075,0.7129,0.7139,0.7139,0.7139,0.7139,0.7139,0.7139,0.7139,0.0,0.0,0.0,0.0,0.0,0.0,0.0,0.0,0.0,0.0,0.0,0.0,0.0,0.7804,0.7899,0.798,0.8038,0.8038,0.8038,0.8038,0.8038,0.8038,0.8038,0.8038,0.8038,0.8038,0.8038,0.8038,0.0,0.0,0.8038,0.0,0.8038,0.8038,0.8038,0.8038,0.8038,0.8038,0.8038,0.8038,0.8038,0.0,0.0,0.0,0.0,0.0,0.0,0.0,0.0,-0.5504,-0.5672,-0.4298,-0.2569,-0.0679,-0.0309,-0.0235,-0.0235,0.0,0.0,0.0,0.0,0.0,0.0,0.0,0.0,0.0,-0.0,-0.0,-0.0,-0.0,-0.0,-0.0,-0.0,-0.0,0.0078,0.2038,0.2899,0.0,0.0,0.0,0.0,0.0,0.0,0.0,0.0,0.0,0.0,0.0,0.0,0.0,0.0,0.0,0.0,0.0,0.0,0.0,0.0,0.0,0.0,0.0,0.0,0.0,0.0,0.0,0.0,0.0,0.6912,0.0,0.7099,0.7132,0.7139,0.7139,0.7139,0.7139,0.7139,0.0,0.0,0.0,0.0,0.0,0.0,0.0,0.0,0.0,0.0,0.0,0.0,0.0,0.0,0.7767,0.7801,0.7875,0.8018,0.8035,0.8038,0.8038,0.8038,0.8038,0.8038,0.8038,0.8038,0.8038,0.8038,0.8038,0.0,0.0,0.8038,0.8038,0.8038,0.8038,0.8038,0.8038,0.8038,0.8038,0.8038,0.8038,0.8038,0.0,0.0,0.0,0.0,0.0,0.0,0.0,0.0,0.0,0.0,-0.5447,-0.5191,-0.4878,-0.3352,-0.2343,0.0,0.0,0.0,0.0,0.0,0.0,0.0,0.0,0.0,0.0,-0.0,-0.0,-0.0,-0.0,-0.0,-0.0,-0.0,-0.0,-0.0,0.0549,0.0706,0.0,0.0,0.0,0.0,0.0,0.0,0.0,0.0,0.0,0.0,0.3285,0.383,0.0,0.0,0.0,0.0,0.0,0.0,0.0,0.0,0.6338,0.6338,0.6338,0.0,0.6271,0.6302,0.639,0.6491,0.0,0.0,0.0,0.0,0.0,0.0,0.0,0.0,0.0,0.0,0.0,0.0,0.0,0.0,0.0,0.0,0.0,0.0,0.0,0.0,0.0,0.0,0.0,0.74,0.7472,0.7689,0.7828,0.7865,0.7977,0.8038,0.8038,0.8038,0.8038,0.8038,0.8038,0.8038,0.8038,0.8038,0.8038,0.0,0.8038,0.8038,0.8038,0.8038,0.8038,0.8038,0.8038,0.8038,0.8038,0.8038,0.8038,0.8038,0.0,0.0,0.0,0.0,0.0,0.0,0.0,0.0,0.0,0.0,0.0,0.0,0.0,0.0,0.0,0.0,0.0,0.0,0.0,0.0,0.0,0.0,0.0,0.0,-0.0,-0.0,-0.0,-0.0,-0.0,-0.0,-0.0,-0.0,-0.0,-0.0,-0.0,-0.0,0.0,0.0,0.0,0.0,0.4477,0.0,0.0,0.0,0.0,0.0,0.1252,0.1642,0.0,0.3049,0.4698,0.6278,0.0,0.0,0.0,0.0,0.6338,0.6338,0.6338,0.6338,0.6338,0.6338,0.6318,0.6393,0.0,0.0,0.0,0.0,0.0,0.0,0.0,0.0,0.0,0.0,0.0,0.0,0.0,0.0,0.0,0.0,0.0,0.0,0.0,0.0,0.0,0.0,0.0,0.7295,0.7366,0.7522,0.7672,0.7807,0.7892,0.797,0.8038,0.8038,0.8038,0.8038,0.8038,0.8038,0.8038,0.8038,0.8038,0.0,0.8038,0.8038,0.8038,0.8038,0.8038,0.8038,0.8038,0.8038,0.8038,0.8038,0.8038,0.8038,0.0,0.0,0.0,0.0,0.0,0.0,0.0,0.0,0.0,0.0,0.0,0.0,0.0,0.0,0.0,0.0,0.0,0.0,0.0,0.0,0.0,0.0,0.0,-0.0,-0.0,-0.0,-0.0,-0.0,-0.0,-0.0,-0.0,-0.0,-0.0,-0.0,-0.0,-0.0,0.0,0.0,-0.0,0.0,0.1955,0.0,0.0,0.0,0.0,0.0,0.0,0.0,0.0,-0.0,0.2345,0.5485,0.6119,0.0,0.0,0.0,0.0,0.0,0.6338,0.6338,0.6338,0.6338,0.6338,0.6291,0.0,0.0,0.0,0.0,0.0,0.0,0.0,0.0,0.0,0.0,0.0,0.0,0.0,0.0,0.0,0.0,0.0,0.0,0.0,0.0,0.0,0.0,0.0,0.7197,0.7329,0.736,0.7485,0.7736,0.7767,0.7841,0.797,0.8018,0.8038,0.8038,0.8038,0.8038,0.8038,0.8038,0.8038,0.8038,0.0,0.0,0.8038,0.8014,0.8004,0.8001,0.798,0.7974,0.7974,0.7974,0.7987,0.8007,0.0,0.0,0.0,0.0,0.0,0.0,0.0,0.0,0.0,0.0,0.0,0.0,0.0,0.0,0.0,0.0,0.0,0.0,0.0,0.0,0.0,0.0,-0.0,-0.0,-0.0,-0.0,-0.0,-0.0,-0.0,-0.0,-0.0,-0.0,-0.0,-0.0,-0.0,-0.0,-0.0,-0.0,-0.0,-0.0,0.0314,0.0,0.0,0.0,0.0,0.0,0.0,0.0,0.0,-0.0,0.047,0.1564,0.5168,0.0,0.0,0.0,0.0,0.0,0.6338,0.6338,0.6338,0.6338,0.6338,0.6345,0.0,0.0,0.0,0.0,0.0,0.0,0.0,0.0,0.0,0.0,0.0,0.0,0.0,0.0,0.0,0.0,0.0,0.0,0.0,0.0,0.0,0.0,0.0,0.7149,0.7173,0.7299,0.7394,0.7438,0.7563,0.7645,0.7665,0.7916,0.8038,0.8038,0.8038,0.8038,0.8038,0.8038,0.8038,0.8038,0.0,0.8038,0.8028,0.7899,0.7845,0.7834,0.7712,0.7665,0.7665,0.7665,0.7743,0.7865,0.0,0.0,0.0,0.0,0.0,0.0,0.0,0.0,0.0,0.0,0.0,0.0,0.0,0.0,0.0,0.0,0.0,0.0,0.0,0.0,0.0,-0.0078,-0.0,-0.0,-0.0,-0.0,-0.0,-0.0,-0.0,-0.0,-0.0,-0.0,-0.0,-0.0,-0.0,-0.0,-0.0,-0.0,-0.0,-0.0,0.0,0.0,0.0,0.0,0.0,0.0,0.0,0.0,0.0,0.0,-0.0,0.0548,0.3597,0.0,0.0,0.0,0.0,0.0,0.6338,0.6338,0.6338,0.6338,0.6338,0.6338,0.0,0.0,0.0,0.0,0.0,0.0,0.0,0.0,0.0,0.0,0.0,0.0,0.0,0.0,0.0,0.0,0.0,0.0,0.0,0.0,0.0,0.0,0.0,0.0,0.7139,0.7207,0.7285,0.737,0.7441,0.7516,0.76,0.7733,0.7841,0.7916,0.7997,0.7994,0.7916,0.7916,0.7875,0.7801,0.0,0.7801,0.7797,0.7726,0.7695,0.7689,0.7624,0.76,0.76,0.76,0.7641,0.7706,0.0,0.0,0.0,0.0,0.0,0.0,0.0,0.0,0.0,0.0,0.0,0.0,0.0,0.0,0.0,0.0,0.0,0.0,0.0,0.0,-0.3125,-0.1565,-0.1017,-0.047,-0.0,-0.0,-0.0,-0.0,-0.0,-0.0,-0.0,-0.0,-0.0,-0.0,-0.0,-0.0,-0.0,-0.0,-0.0,-0.0,0.0,0.0,0.0,0.0,0.0,0.0,0.0,0.0,0.0,0.0,0.0,0.0,0.0,0.0,0.0,0.6264,0.6338,0.6338,0.6338,0.6338,0.6338,0.6338,0.0,0.0,0.6338,0.0,0.0,0.0,0.0,0.0,0.0,0.0,0.0,0.0,0.0,0.0,0.0,0.0,0.0,0.0,0.0,0.0,0.0,0.0,0.0,0.0,0.0,0.0,0.7139,0.7139,0.7193,0.7312,0.7587,0.7825,0.7859,0.7894,0.7897,0.7763,0.7882,0.7875,0.7763,0.7763,0.7702,0.76,0.76,0.76,0.7597,0.756,0.7546,0.7543,0.7506,0.7492,0.7499,0.7533,0.7546,0.755,0.0,0.0,0.0,0.0,0.0,0.0,0.0,0.0,0.0,0.0,0.0,0.0,0.0,0.0,0.0,0.0,0.0,0.0,0.0,0.0,-0.5964,-0.5817,-0.391,-0.1955,-0.0079,-0.0,-0.0,-0.0,-0.0,-0.0,-0.0,-0.0,-0.0,-0.0,-0.0,-0.0,-0.0,-0.0,-0.0,-0.0,-0.0,0.0,0.0,0.0,0.0,0.0,0.0,0.0,0.0,0.0,0.0,0.0,0.0,0.0,0.6291,0.6268,0.6338,0.6338,0.6338,0.6338,0.6338,0.6338,0.0,0.0,0.6338,0.0,0.0,0.0,0.0,0.0,0.0,0.0,0.0,0.0,0.0,0.0,0.0,0.0,0.0,0.0,0.0,0.0,0.0,0.0,0.0,0.0,0.0,0.0,0.7139,0.7139,0.7146,0.7156,0.8208,0.8828,0.8844,0.8914,0.8547,0.7614,0.7628,0.7628,0.7614,0.7614,0.7607,0.76,0.76,0.76,0.759,0.7448,0.7387,0.7373,0.7227,0.7173,0.719,0.7336,0.7387,0.7407,0.0,0.0,0.0,0.0,0.0,0.0,0.0,0.0,0.0,0.0,0.0,0.0,0.0,0.0,0.0,0.0,0.0,0.0,0.0,0.0,-0.6274,-0.6285,-0.5488,-0.4698,-0.3923,-0.1332,-0.0,-0.0,-0.0,-0.0,-0.0,-0.0,-0.0,-0.0,-0.0,-0.0,-0.0,-0.0,-0.0,-0.0,-0.0,-0.0,0.0,0.0,0.0,0.0,0.0,0.0,0.0,0.0,0.1728,0.3853,0.0,0.4538,0.6281,0.6268,0.6338,0.6338,0.6338,0.6338,0.6338,0.6338,0.0,0.0,0.0,0.0,0.0,0.0,0.0,0.0,0.0,0.0,0.0,0.0,0.0,0.0,0.0,0.0,0.0,0.0,0.0,0.0,0.0,0.0,0.0,0.0,0.0,0.0,0.7139,0.7139,0.7139,0.7139,0.7577,0.8105,0.889,0.8958,0.8763,0.8391,0.7877,0.755,0.7458,0.7458,0.7407,0.7312,0.7312,0.7312,0.7309,0.7251,0.7227,0.7221,0.7163,0.7139,0.7146,0.7207,0.7227,0.7238,0.0,0.0,0.0,0.0,0.0,0.0,0.0,0.0,0.0,0.0,0.0,0.0,0.0,0.0,0.0,0.0,0.0,0.0,-0.6338,-0.6338,-0.6264,-0.6274,-0.6274,-0.6278,-0.6291,-0.3446,-0.1331,-0.0,-0.0,-0.0,-0.0,-0.0,-0.0,-0.0,-0.0,-0.0,-0.0,-0.0,-0.0,-0.0,-0.0,-0.0,0.0,0.0,0.0,0.0,0.0,0.0,0.0,0.0,0.283,0.6006,0.0,0.509,0.6278,0.6264,0.6338,0.6338,0.6338,0.6338,0.0,0.0,0.0,0.0,0.0,0.0,0.0,0.0,0.0,0.0,0.0,0.0,0.0,0.0,0.0,0.0,0.0,0.0,0.0,0.0,0.0,0.0,0.0,0.0,0.0,0.0,0.0,0.0,0.0,0.7139,0.7139,0.7139,0.7492,0.8105,0.889,0.9235,0.9405,0.941,0.8787,0.8121,0.7299,0.7299,0.7241,0.7139,0.7139,0.7139,0.7139,0.7139,0.7139,0.7139,0.7139,0.7139,0.7139,0.7139,0.7139,0.7139,0.0,0.0,0.0,0.0,0.0,0.0,0.0,0.0,0.0,0.0,0.0,0.0,0.0,0.0,0.0,0.0,0.0,0.0,-0.6338,-0.6338,-0.6338,-0.6338,-0.6338,-0.6268,-0.6278,-0.6288,-0.4233,-0.0,-0.0,-0.0,-0.0,-0.0,-0.0,-0.0,-0.0,-0.0,-0.0,-0.0,-0.0,-0.0,-0.0,-0.0,0.055,0.0,0.0,0.0,0.0,0.0,0.0,0.0,0.2829,0.6325,0.0,0.0,0.0,0.6264,0.6338,0.6338,0.6338,0.6338,0.0,0.0,0.0,0.0,0.0,0.0,0.0,0.0,0.0,0.0,0.0,0.0,0.0,0.0,0.0,0.0,0.0,0.0,0.0,0.0,0.0,0.0,0.0,0.0,0.0,0.0,0.0,0.0,0.0,0.7139,0.7139,0.7139,0.8277,0.889,0.889,1.0009,1.0611,1.0611,1.0611,0.9396,0.7139,0.7139,0.7139,0.7139,0.7139,0.7139,0.7139,0.7139,0.7139,0.7139,0.7139,0.7139,0.7139,0.7139,0.7139,0.7139,0.0,0.0,0.0,0.0,0.0,0.0,0.0,0.0,0.0,0.0,0.0,0.0,0.0,0.0,0.0,0.0,0.0,0.0,-0.6338,-0.6338,-0.6338,-0.6338,-0.6338,-0.6264,-0.6268,-0.5321,-0.3205,-0.0,-0.0,-0.0,-0.0,-0.0,-0.0,-0.0,-0.0,-0.0,-0.0,-0.0,-0.0,-0.0,-0.0,0.1806,0.457,0.0,0.0,0.0,0.0,0.0,0.0,0.0,0.0,0.0,0.0,0.0,0.6268,0.6264,0.6338,0.6338,0.6338,0.0,0.0,0.0,0.0,0.0,0.0,0.0,0.0,0.0,0.0,0.0,0.0,0.0,0.0,0.0,0.0,0.0,0.0,0.0,0.0,0.0,0.0,0.0,0.0,0.0,0.0,0.0,0.0,0.0,0.0,0.7139,0.7139,0.7139,0.7489,0.8448,1.0096,1.0438,1.1037,1.1809,1.1809,1.0605,0.8364,0.8364,0.7929,0.7139,0.7139,0.7139,0.7139,0.7139,0.7139,0.7139,0.7139,0.7139,0.7139,0.7139,0.7139,0.7139,0.0,0.0,0.0,0.0,0.0,0.0,0.0,0.0,0.0,0.0,0.0,0.0,0.0,0.0,0.0,0.0,0.0,0.0,0.0,0.0,-0.6338,-0.6338,-0.6338,-0.6264,-0.6268,-0.5476,-0.4226,-0.2515,-0.0785,-0.0,-0.0,-0.0,-0.0,-0.0,-0.0,-0.0,-0.0,-0.0,-0.0,0.0157,0.1806,0.4016,0.6329,0.0,0.0,0.0,0.0,0.0,0.0,0.0,0.0,0.0,0.0,0.0,0.0,0.6338,0.6338,0.6338,0.6338,0.0,0.0,0.0,0.0,0.0,0.0,0.0,0.0,0.0,0.0,0.0,0.0,0.0,0.0,0.0,0.0,0.0,0.0,0.0,0.0,0.0,0.0,0.0,0.0,0.0,0.0,0.0,0.0,0.0,0.0,0.7109,0.7139,0.7139,0.7139,0.7749,0.9222,0.9662,1.0524,1.1638,1.2066,1.1552,1.0269,0.9749,0.9144,0.8444,0.8013,0.7577,0.7139,0.7139,0.7139,0.7139,0.7139,0.7139,0.7139,0.7139,0.7139,0.7139,0.0,0.0,0.0,0.0,0.0,0.0,0.0,0.0,0.0,0.0,0.0,0.0,0.0,0.0,0.0,0.0,0.0,0.0,0.0,0.0,-0.6338,-0.6338,-0.6338,-0.6268,-0.6278,-0.6278,-0.6291,-0.6325,-0.2038,-0.0,-0.0,-0.0,-0.0,-0.0,-0.0,-0.0,-0.0,-0.0,0.0236,0.0942,0.4729,0.6329,0.6322,0.6291,0.0,0.0,0.0,0.0,0.0,0.0,0.0,0.0,0.0,0.6271,0.6338,0.6338,0.6338,0.6338,0.0,0.0,0.0,0.0,0.0,0.0,0.0,0.0,0.0,0.0,0.0,0.0,0.0,0.0,0.0,0.0,0.0,0.0,0.0,0.0,0.0,0.0,0.0,0.0,0.0,0.0,0.0,0.0,0.0,0.0,0.0,0.7031,0.7099,0.7099,0.7099,0.7099,0.7186,0.8317,0.9438,1.055,1.1571,1.2088,1.2088,1.1021,1.0524,1.026,0.9218,0.8089,0.7139,0.7126,0.7129,0.7139,0.7139,0.7139,0.7139,0.7139,0.7139,0.7139,0.0,0.0,0.0,0.0,0.0,0.0,0.0,0.0,0.0,0.0,0.0,0.0,0.0,0.0,0.0,0.0,0.0,0.0,0.0,0.0,-0.6338,-0.6338,-0.6338,-0.6264,-0.6264,-0.6264,-0.6274,-0.6288,-0.2034,-0.0,-0.0,-0.0,-0.0,-0.0,-0.0,-0.0,-0.0,-0.0,0.1885,0.5048,0.593,0.6315,0.6288,0.6281,0.6274,0.0,0.0,0.0,0.0,0.0,0.0,0.0,0.6264,0.6264,0.6338,0.6338,0.6338,0.6338,0.0,0.0,0.0,0.0,0.0,0.0,0.0,0.0,0.0,0.0,0.0,0.0,0.0,0.0,0.0,0.0,0.0,0.0,0.0,0.0,0.0,0.0,0.0,0.0,0.0,0.0,0.0,0.0,0.0,0.0,0.6749,0.6776,0.6797,0.6797,0.6797,0.7206,0.8109,0.8359,0.9105,1.0264,1.0505,1.0669,1.0685,1.0624,0.957,0.783,0.7451,0.7208,0.7132,0.7021,0.7041,0.7139,0.7139,0.7139,0.7139,0.7139,0.7139,0.7139,0.0,0.0,0.0,0.0,0.0,0.0,0.0,0.0,0.0,0.0,0.0,0.0,0.0,0.0,0.0,0.0,0.0,0.0,0.0,0.0,0.0,-0.6257,-0.6338,-0.6338,-0.6338,-0.6338,-0.6271,-0.6288,-0.4073,-0.1957,0.0,-0.0,-0.0,-0.0,-0.0,-0.0,-0.0,-0.0,0.2435,0.6329,0.6318,0.6298,0.6278,0.6271,0.6268,0.6338,0.6268,0.0,0.0,0.0,0.0,0.0,0.0,0.0,0.6338,0.6338,0.6338,0.6338,0.0,0.0,0.0,0.0,0.0,0.0,0.0,0.0,0.0,0.0,0.0,0.0,0.0,0.0,0.0,0.0,0.0,0.0,0.0,0.0,0.0,0.0,0.0,0.0,0.0,0.0,0.0,0.0,0.0,0.659,0.659,0.6661,0.6702,0.6702,0.6702,0.6943,0.7593,0.7593,0.8164,0.9299,0.9299,0.9299,0.939,1.0108,0.9452,0.768,0.7682,0.7359,0.6922,0.6851,0.6861,0.6929,0.6929,0.6973,0.7041,0.7041,0.7082,0.7139,0.0,0.0,0.0,0.0,0.0,0.0,0.0,0.0,0.0,0.0,0.0,0.0,0.0,0.0,0.0,0.0,0.0,0.0,0.0,0.0,0.0,-0.6254,-0.6338,-0.6338,-0.6338,-0.6338,-0.6271,-0.6291,-0.5892,0.0,0.0,0.0,0.0,-0.0,-0.0,-0.0,0.0079,0.0785,0.2907,0.5758,0.6139,0.6285,0.6274,0.6264,0.6338,0.6338,0.6338,0.6338,0.6338,0.6338,0.0,0.0,0.0,0.0,0.6338,0.6338,0.6338,0.6338,0.0,0.0,0.0,0.0,0.0,0.0,0.0,0.0,0.0,0.0,0.0,0.0,0.0,0.0,0.0,0.0,0.0,0.0,0.0,0.0,0.0,0.0,0.0,0.0,0.0,0.0,0.0,0.0,0.0,0.6672,0.6434,0.6556,0.6624,0.6624,0.6624,0.6624,0.6624,0.6624,0.7108,0.8064,0.8064,0.8064,0.8064,0.9039,0.8995,0.8074,0.8045,0.7566,0.6698,0.6671,0.6675,0.6702,0.6702,0.6776,0.6892,0.6892,0.698,0.7102,0.0,0.0,0.0,0.0,0.0,0.0,0.0,0.0,0.0,0.0,0.0,0.0,0.0,0.0,0.0,0.0,0.0,0.0,-0.5823,0.0,0.0,-0.6335,-0.6338,-0.6338,-0.6338,-0.6338,-0.6264,-0.6268,0.0,0.0,0.0,0.0,0.0,-0.0,0.0,-0.0,0.0236,0.3936,0.4719,0.3677,0.5565,0.6274,0.6264,0.6338,0.6338,0.6338,0.6338,0.6338,0.6338,0.6338,0.6338,0.0,0.0,0.0,0.6338,0.6338,0.6338,0.0,0.0,0.0,0.0,0.0,0.0,0.0,0.0,0.0,0.0,0.0,0.0,0.0,0.0,0.0,0.0,0.0,0.0,0.0,0.0,0.0,0.0,0.0,0.0,0.0,0.0,0.0,0.0,0.0,0.7727,0.7208,0.6366,0.6308,0.6318,0.6318,0.6318,0.6318,0.6318,0.6318,0.6397,0.6549,0.6549,0.6549,0.6549,0.6783,0.6853,0.6936,0.6799,0.6739,0.6692,0.6559,0.658,0.6702,0.6702,0.6712,0.6729,0.6729,0.6827,0.6956,0.0,0.0,0.0,0.0,0.0,0.0,0.0,0.0,0.0,0.0,0.0,0.0,0.0,0.0,0.0,-0.6859,-0.6937,-0.6844,-0.6564,-0.6737,-0.6692,-0.6335,-0.6338,-0.6338,-0.6338,-0.6338,-0.6264,-0.6271,0.0,0.0,0.0,-0.0941,-0.0,0.0,0.0,0.0,0.0,0.4491,0.5755,0.4937,0.5883,0.6271,0.6338,0.6338,0.6338,0.6338,0.6338,0.6338,0.6338,0.6338,0.6338,0.6338,0.6338,0.0,0.0,0.0,0.0,0.0,0.0,0.0,0.0,0.0,0.0,0.0,0.0,0.0,0.0,0.0,0.0,0.0,0.0,0.0,0.0,0.0,0.0,0.0,0.0,0.0,0.0,0.0,0.0,0.0,0.0,0.0,0.0,0.0,0.8988,0.8466,0.8012,0.8008,0.7706,0.7176,0.7176,0.6872,0.6338,0.6338,0.6338,0.6338,0.6338,0.6338,0.6338,0.6338,0.6332,0.6451,0.6383,0.6393,0.6447,0.6383,0.6393,0.6454,0.6454,0.6502,0.6573,0.6573,0.6668,0.68,0.0,0.0,0.0,0.0,0.0,0.0,0.0,0.0,0.0,0.0,0.0,0.0,0.0,0.0,0.0,0.0,-0.8027,-0.7755,-0.7124,-0.724,-0.6982,-0.6331,-0.6338,-0.6338,-0.6338,-0.6338,-0.6264,0.0,0.0,0.0,-0.3057,-0.0941,-0.0,0.0,-0.0,0.0,0.0,0.0,0.0,0.6295,0.6281,0.6268,0.6338,0.6338,0.6338,0.6338,0.6338,0.6338,0.6338,0.6338,0.6338,0.6338,0.6338,0.6338,0.0,0.0,0.0,0.0,0.0,0.0,0.0,0.0,0.0,0.0,0.0,0.0,0.0,0.0,0.0,0.0,0.0,0.0,0.0,0.0,0.0,0.0,0.0,0.0,0.0,0.0,0.0,0.0,0.0,0.0,0.0,0.0,1.0115,0.9599,0.9301,0.9296,0.8917,0.8237,0.8161,0.7706,0.6721,0.6416,0.6338,0.6338,0.6338,0.6338,0.6338,0.6338,0.6338,0.6338,0.6338,0.6338,0.6338,0.6338,0.6338,0.6338,0.6338,0.6325,0.642,0.642,0.6515,0.6644,0.0,0.0,0.0,0.0,0.0,0.0,0.0,0.0,0.0,0.0,0.0,0.0,-0.7962,-0.7962,-0.8027,-0.8027,-0.8027,-0.7755,-0.7124,-0.724,-0.6982,-0.6331,-0.6338,0.0,-0.6338,-0.6338,0.0,0.0,0.0,0.0,-0.3046,-0.094,-0.0,-0.0,-0.0,-0.0,0.0157,0.0,0.0,0.0,0.0,0.6338,0.0,0.0,0.6338,0.0,0.0,0.6338,0.6338,0.6338,0.6338,0.6338,0.6338,0.6338,0.6338,0.0,0.0,0.0,0.0,0.0,0.0,0.0,0.0,0.0,0.0,0.0,0.0,0.0,0.0,0.0,0.0,0.0,0.0,0.0,0.0,0.0,0.0,0.0,0.0,0.0,0.0,0.0,0.0,0.0,0.0,0.0,1.0783,1.034,0.9372,0.9296,0.9301,0.9221,0.9221,0.877,0.7706,0.6795,0.6338,0.6338,0.6338,0.6338,0.6338,0.6338,0.6338,0.6338,0.6338,0.6338,0.6338,0.6338,0.6338,0.6338,0.6338,0.6268,0.6271,0.6271,0.6363,0.6485,0.0,0.0,0.0,0.0,0.0,0.0,0.0,0.0,0.0,0.0,0.0,0.0,0.0,-0.9326,-0.9646,-0.9646,-0.9646,-0.9145,-0.8028,-0.798,-0.7522,-0.6325,-0.6338,-0.6338,-0.6338,-0.6338,0.0,0.0,0.0,-0.5176,-0.3046,-0.094,-0.0,-0.0,-0.0,-0.0,0.0157,0.2189,0.0,0.0,0.0,0.0,0.0,0.0,0.0,0.0,0.0,0.0,0.0,0.6338,0.6338,0.6338,0.6338,0.6338,0.6338,0.6338,0.0,0.0,0.0,0.0,0.0,0.0,0.0,0.0,0.0,0.0,0.0,0.0,0.0,0.0,0.0,0.0,0.0,0.0,0.0,0.0,0.0,0.0,0.0,0.0,0.0,0.0,0.0,0.0,0.0,0.0,0.0,1.162,1.1248,1.1248,1.0944,1.0265,1.0265,0.9814,0.8765,0.8389,0.8237,0.8237,0.7553,0.7249,0.7249,0.6567,0.6338,0.6338,0.6338,0.6338,0.6338,0.6338,0.6338,0.6338,0.6338,0.6338,0.6338,0.6338,0.6291,0.6335,0.0,0.0,0.0,0.0,0.0,0.0,0.0,0.0,0.0,0.0,0.0,0.0,0.0,0.0,-1.004,-0.9779,-0.9709,-0.9211,-0.8028,-0.7986,-0.7454,-0.6325,-0.6338,-0.6338,-0.6338,-0.621,-0.621,0.0,0.0,0.0,0.0,-0.094,-0.0,-0.0,-0.0,0.0785,0.0,0.0,0.0,0.6288,0.0,0.0,0.6338,0.0,0.0,0.0,0.0,0.0,0.0,0.0,0.0,0.0,0.0,0.0,0.0,0.0,0.0,0.0,0.0,0.0,0.0,0.0,0.0,0.0,0.0,0.0,0.0,0.0,0.0,0.0,0.0,0.0,0.0,0.0,0.0,0.0,0.0,0.0,0.0,0.0,0.0,0.0,0.0,0.0,0.0,0.0,0.0,0.0,1.2305,1.2305,1.1996,1.1316,1.1013,1.049,0.982,0.9448,0.9296,0.9296,0.8313,0.7783,0.7783,0.6795,0.6338,0.6338,0.6338,0.6338,0.6338,0.6338,0.6338,0.6338,0.6338,0.6338,0.6338,0.6338,0.6338,0.6338,0.0,0.0,0.0,0.0,0.0,0.0,0.0,0.0,0.0,0.0,0.0,0.0,0.0,0.0,0.0,-0.8091,-0.8027,-0.775,-0.7124,-0.7078,-0.6883,-0.6325,-0.6338,-0.6338,-0.6338,-0.6112,-0.6108,0.0,0.0,0.0,0.0,0.0,-0.0,-0.0,-0.0,0.2278,0.6087,0.0,0.438,0.6278,0.0,0.6338,0.6338,0.0,0.0,0.0,0.6338,0.6338,0.0,0.6338,0.0,0.0,0.0,0.0,0.0,0.0,0.0,0.0,0.0,0.0,0.0,0.0,0.0,0.0,0.0,0.0,0.0,0.0,0.0,0.0,0.0,0.0,0.0,0.0,0.0,0.0,0.0,0.0,0.0,0.0,0.0,0.0,0.0,0.0,0.0,0.0,1.2305,1.2305,1.2305,1.2305,1.2305,1.2305,1.1316,1.0858,1.0858,0.9895,0.9372,0.9372,0.8313,0.7859,0.7783,0.6795,0.6338,0.6338,0.6338,0.6338,0.6338,0.6338,0.6338,0.6338,0.6338,0.6338,0.6338,0.6338,0.6338,0.6338,0.0,0.0,0.0,0.0,0.0,0.0,0.0,0.0,0.0,0.0,0.0,0.0,-1.0301,-1.0238,-0.9652,-0.8156,-0.8549,-0.8424,-0.7195,-0.7078,-0.6883,-0.6325,-0.6338,-0.6338,-0.6338,-0.6217,-0.6217,-0.6338,0.0,0.0,0.0,0.0,0.0,0.0,-0.0,0.1489,0.4073,0.5021,0.0,0.0,0.6268,0.6338,0.0,0.0,0.0,0.0,0.0,0.6338,0.6338,0.0,0.6338,0.6338,0.0,0.0,0.0,0.0,0.0,0.0,0.6338,0.0,0.0,0.0,0.0,0.0,0.0,0.0,0.0,0.0,0.0,0.0,0.0,0.0,0.0,0.0,0.0,0.0,0.0,0.0,0.0,0.0,0.0,0.0,0.0,0.0,0.0,0.0,1.2305,1.2305,1.2305,1.2305,1.2305,1.2305,1.1996,1.1922,1.1922,1.162,1.1477,1.1477,0.975,0.8917,0.8846,0.7099,0.6338,0.6338,0.6338,0.6338,0.6338,0.6338,0.6338,0.6338,0.6338,0.6338,0.6338,0.6338,0.6338,0.6338,0.0,0.0,0.0,0.0,0.0,0.0,0.0,0.0,0.0,0.0,0.0,0.0,-0.9058,-0.8994,-0.8409,-0.7055,-0.7381,-0.7354,-0.6631,-0.6583,-0.6449,-0.6325,-0.6338,-0.6338,-0.6338,-0.6196,-0.62,-0.6268,0.0,0.0,0.0,0.0,0.0,0.0,0.0,0.0,0.0,0.0,0.0,0.0,0.6264,0.0,0.0,0.6338,0.6338,0.0,0.0,0.0,0.6338,0.6338,0.6338,0.0,0.0,0.0,0.0,0.0,0.0,0.0,0.0,0.0,0.0,0.0,0.0,0.0,0.7706,0.8237,0.8993,0.0,0.0,0.0,0.0,0.0,0.0,0.0,0.0,0.0,0.0,0.0,0.0,0.0,0.0,0.0,0.0,1.2305,1.2305,1.2305,1.2305,1.2305,1.2305,1.2305,1.2305,1.2305,1.2305,1.2305,1.2305,1.2305,1.2305,1.2305,1.0271,0.9296,0.9221,0.7253,0.6338,0.6338,0.6338,0.6338,0.6338,0.6338,0.6338,0.6338,0.6338,0.6338,0.6338,0.6338,0.6338,0.6338,0.0,0.0,0.0,0.0,0.0,0.0,0.0,0.0,0.0,0.0,0.0,-0.8807,0.0,-0.6915,-0.6527,-0.5491,-0.5509,-0.5637,-0.5783,-0.5817,-0.5956,-0.6247,-0.6338,-0.6338,-0.6338,-0.6125,-0.6129,-0.6278,0.0,0.0,0.0,0.0,0.0,0.0,0.0,0.0,0.0,0.0,0.0,0.6264,0.6338,0.6338,0.0,0.0,0.6338,0.6338,0.6338,0.6338,0.6338,0.6338,0.6338,0.0,0.0,0.0,0.0,0.0,0.6119,0.0,0.0,0.0,0.0,0.0,0.0,0.0,0.7403,0.7629,0.7936,0.8917,0.0,0.0,0.0,0.0,0.0,0.0,0.0,0.0,0.0,0.0,0.0,0.0,0.0,0.0,1.2305,1.2305,1.2305,1.2305,1.2305,1.2305,1.2305,1.2305,1.2305,1.2305,1.2305,1.2305,1.2305,1.2305,1.2305,1.2305,1.0271,0.9296,0.9221,0.7253,0.6338,0.6338,0.6338,0.6338,0.6338,0.6338,0.6338,0.6338,0.6338,0.6338,0.6338,0.6338,0.6338,0.6338,-1.0624,0.0,0.0,0.0,0.0,0.0,0.0,0.0,0.0,0.0,0.0,0.0,0.0,0.0,-0.7902,-0.5624,-0.6135,-0.6364,-0.5861,-0.5918,-0.6067,-0.6251,-0.6338,-0.6338,-0.6338,-0.623,-0.6234,-0.6264,0.0,0.0,0.0,0.0,0.0,0.0,0.0,0.0,0.0,0.0,0.0,0.6274,0.6264,0.0,0.6338,0.6338,0.6338,0.6338,0.6338,0.6338,0.6338,0.6338,0.6338,0.6264,0.0,0.0,0.0,0.0,0.0,0.0,0.0,0.0,0.0,0.0,0.0,0.0,0.657,0.6567,0.6872,0.0,0.0,0.0,0.0,0.0,0.0,0.0,0.0,0.0,0.0,0.0,0.0,0.0,0.0,0.0,1.2305,1.2305,1.2305,1.2305,1.2305,1.2305,1.2305,1.2305,1.2305,1.2305,1.2305,1.2305,1.2305,1.2305,1.2305,1.2305,1.0271,0.9296,0.9221,0.7253,0.6338,0.6338,0.6338,0.6338,0.6338,0.6338,0.6338,0.6338,0.6338,0.6338,0.6338,0.6338,0.6338,0.6338,-1.0624,0.0,0.0,0.0,0.0,0.0,0.0,0.0,0.0,0.0,0.0,0.0,0.0,0.0,0.0,0.0,-0.5898,-0.6128,-0.5793,-0.5945,-0.6098,-0.6254,-0.6338,-0.6338,-0.6338,-0.6338,-0.6264,-0.6271,0.0,0.0,0.0,0.0,0.0,0.0,0.0,0.0,0.0,0.0,0.6254,0.6169,0.6234,0.0,0.6338,0.6338,0.6338,0.6338,0.6338,0.6338,0.6338,0.6338,0.6338,0.0,0.0,0.5562,0.4696,0.0,0.3995,0.3368,0.0,0.0,0.0,0.4696,0.0,0.0,0.0,0.6271,0.6419,0.6949,0.0,0.0,0.0,0.0,0.0,0.0,0.0,0.0,0.0,0.0,0.0,0.0,0.0,0.0,1.2305,1.2305,1.2305,1.2305,1.2305,1.2305,1.2305,1.2305,1.2305,1.2305,1.2305,1.2305,1.2305,1.2305,1.2305,1.2305,1.0795,0.982,0.9221,0.7706,0.6795,0.6338,0.6338,0.6338,0.6338,0.6338,0.6338,0.6338,0.6338,0.6338,0.6338,0.6338,0.6338,0.6338,-1.0624,0.0,0.0,0.0,0.0,0.0,0.0,0.0,0.0,0.0,0.0,0.0,0.0,0.0,0.0,0.0,0.0,-0.5725,0.0,0.0,0.0,-0.6254,-0.6338,-0.6338,-0.6338,-0.6338,-0.6268,-0.6278,0.0,0.0,0.0,0.0,0.0,0.0,0.0,0.0,0.0,0.0,0.0,0.5484,0.0,0.6227,0.6176,0.6207,0.6217,0.622,0.6251,0.6338,0.6338,0.6338,0.6264,0.6268,0.6278,0.5093,0.0,0.0,0.0,0.0,0.0,0.0,0.0,0.0,0.0,0.5179,0.0,0.0,0.0,0.6268,0.0,0.0,0.0,0.0,0.0,0.0,0.0,0.0,0.0,0.0,0.0,0.0,0.0,0.0,1.2305,1.2305,1.2305,1.2305,1.2305,1.2305,1.2305,1.2305,1.2305,1.2305,1.2305,1.2305,1.2305,1.2305,1.2305,1.2298,1.1316,1.0265,0.9296,0.8237,0.7253,0.6338,0.6338,0.6338,0.6338,0.6338,0.6338,0.6338,0.6338,0.6338,0.6338,0.6338,0.6338,0.6338,-1.0624,-1.0624,0.0,0.0,0.0,0.0,0.0,0.0,0.0,0.0,0.0,0.0,0.0,0.0,0.0,0.0,0.0,0.0,-0.6003,0.0,0.0,-0.6261,-0.6338,-0.6338,-0.6338,-0.6338,-0.6268,-0.6278,0.0,0.0,0.0,0.0,0.0,0.0,-0.0,0.0,0.0,0.0,0.1796,0.0,0.5318,0.595,0.0,0.6003,0.6057,0.6074,0.621,0.6338,0.6338,0.0,0.6268,0.6278,0.0,0.6149,0.5283,0.1727,0.0,0.0,0.0,0.0,0.0,0.0,0.0548,0.0,0.0,0.0,0.6291,0.6278,0.0,0.0,0.0,0.0,0.0,0.0,0.0,0.0,0.0,0.0,0.0,0.0,0.0,0.0,0.0,1.2305,1.2305,1.2305,1.2305,1.2305,1.2305,1.2305,1.2305,1.2305,1.2305,1.2305,1.2305,1.2305,1.2305,1.2298,1.1316,1.0265,0.9296,0.8237,0.7253,0.6338,0.6338,0.6338,0.6338,0.6338,0.6338,0.6338,0.6338,0.6338,0.6338,0.6338,0.6338,0.6338,-1.0624,-1.0624,0.0,0.0,0.0,0.0,0.0,0.0,0.0,0.0,0.0,0.0,0.0,0.0,0.0,0.0,0.0,-0.603,0.0,0.0,0.0,0.0,-0.6338,-0.6338,-0.6338,-0.6338,-0.6264,-0.6268,-0.509,0.0,0.0,0.0,0.0,0.0,-0.0,0.0,-0.0,0.0,0.1233,0.0,0.0,0.0,0.0,0.6119,0.6162,0.6173,0.6237,0.6338,0.6338,0.0,0.6268,0.0,0.0,0.0,0.0,0.0,0.0,0.0,0.0,0.0,0.0,0.0,0.0,0.0,0.1095,0.0,0.2974,0.0,0.0,0.0,0.0,0.0,0.0,0.0,0.7403,0.0,0.0,0.0,0.0,0.0,0.0,0.0,1.2305,1.2305,1.2305,1.2305,1.2305,1.2305,1.2305,1.2305,1.2305,1.2305,1.2305,1.2305,1.2305,1.2305,1.2305,1.2298,1.1842,1.087,0.9296,0.8846,0.7783,0.6338,0.6338,0.6338,0.6338,0.6338,0.6338,0.6338,0.6338,0.6338,0.6338,0.6338,0.6338,0.6338,-1.0624,0.0,0.0,0.0,0.0,0.0,0.0,0.0,0.0,0.0,0.0,0.0,-0.8292,-0.7555,0.0,0.0,-0.5969,-0.6095,0.0,0.0,-0.6338,-0.6338,-0.6338,0.0,0.0,0.0,-0.6264,-0.6268,0.0,0.0,0.0,0.0,0.0,0.0,0.0,-0.0,-0.0,0.0,0.0,0.4033,0.5031,0.5686,0.6069,0.616,0.6224,0.6338,0.6338,0.6338,0.6338,0.6338,0.6268,0.0,0.5867,0.0,0.0,0.0,0.0,0.0,-0.0,0.0,0.0,0.0,0.0,0.0,0.0,0.0,0.0,0.0,0.0,0.0,0.0,0.0,0.0,0.0,0.0,0.7403,0.0,0.0,0.0,0.0,0.0,0.0,0.0,1.2305,1.2305,1.2305,1.2305,1.2305,1.2305,1.2305,1.2305,1.2305,1.2305,1.2305,1.2305,1.2305,1.215,1.1922,1.1922,1.087,0.8917,0.8917,0.7936,0.6338,0.6338,0.6338,0.6338,0.6338,0.6338,0.6338,0.6338,0.6338,0.6338,0.6338,0.6338,0.6338,-1.0624,-1.0624,0.0,0.0,0.0,0.0,0.0,0.0,0.0,0.0,0.0,0.0,0.0,0.0,0.0,0.0,0.0,-0.6254,-0.6254,0.0,-0.6338,-0.6338,-0.6338,-0.6338,0.0,0.0,0.0,0.0,0.0,0.0,0.0,0.0,0.0,0.0,0.0,-0.0,-0.0,-0.0,0.2434,0.5996,0.4006,0.4411,0.6296,0.0,0.6132,0.6338,0.6338,0.0,0.0,0.6338,0.6268,0.0,0.0,0.0,0.0,0.0,0.0,0.0,0.0,0.0,0.0,-0.0,0.0,0.0,0.0,0.0,-0.0,0.0,0.0,0.0,0.0,0.0,0.0,0.0,0.0,0.0,0.0,0.0,0.0,0.0,0.0,0.0,0.0,1.2305,1.2305,1.2305,1.2305,1.2305,1.2305,1.2305,1.2305,1.2305,1.2305,1.2305,1.2305,1.2305,1.1842,1.0864,1.0864,0.9809,0.7859,0.7859,0.7249,0.6338,0.6338,0.6338,0.6338,0.6338,0.6338,0.6338,0.6338,0.6338,0.6338,0.6338,0.6338,0.6338,0.0,0.0,0.0,0.0,0.0,0.0,0.0,-1.1216,0.0,0.0,0.0,0.0,0.0,-0.792,-0.7002,0.0,0.0,-0.6338,-0.6338,-0.6338,0.0,0.0,0.0,-0.6338,0.0,0.0,0.0,0.0,0.0,0.0,0.0,0.0,0.0,0.0,0.0,-0.0,0.0,0.0,0.0,0.0,0.0,0.44,0.632,0.0,0.625,0.6311,0.6263,0.6291,0.0,0.6314,0.6274,0.6197,0.5712,0.5895,0.5761,0.2895,0.1096,-0.0,0.0,0.0,-0.0,-0.0,0.0,0.0,0.0,0.0,0.0,0.0,0.0,0.0,0.0,0.0,0.0,0.0,0.0,0.0,0.0,0.0,0.0,0.0,0.0,0.0,0.0,0.0,0.0,1.2224,1.2305,1.2305,1.2305,1.2305,1.2305,1.2305,1.2305,1.2305,1.2305,1.162,1.1162,1.0783,1.0115,0.9064,0.7783,0.7783,0.7253,0.6338,0.6338,0.6338,0.6338,0.6338,0.6338,0.6338,0.6338,0.6338,0.6338,0.6338,0.6338,0.6338,-1.1423,0.0,0.0,0.0,0.0,0.0,0.0,0.0,0.0,0.0,-1.0879,0.0,-0.8505,0.0,-0.7518,0.0,-0.6203,-0.6338,-0.6338,-0.6338,0.0,-0.6338,-0.6338,0.0,0.0,0.0,0.0,0.0,0.0,-0.5419,0.0,0.0,0.0,0.0,0.0,-0.0,-0.0,0.0,-0.0,0.0,0.0,0.2828,0.0,0.0,0.5182,0.5195,0.0,0.5155,0.5315,0.6076,0.6287,0.6294,0.6331,0.6295,0.5843,0.3756,0.1643,-0.0,-0.0,-0.0,0.0,-0.0,-0.0,0.0,-0.0,0.0,-0.0,0.0,0.0,0.0,0.0,0.0,0.0,0.0,0.0,0.0,0.0,0.6268,0.0,0.0,0.0,0.0,0.0,0.0,1.0571,1.1174,1.1248,1.1397,0.0,1.1768,1.1922,1.2298,1.2305,1.2251,1.2151,1.1547,1.0973,1.044,0.9575,0.8571,0.7601,0.7371,0.6949,0.6338,0.6338,0.6338,0.6338,0.6338,0.6338,0.6338,0.6338,0.6338,0.6338,0.6338,0.6338,0.6338,0.0,0.0,0.0,0.0,-1.147,0.0,0.0,0.0,-1.1598,0.0,-1.1455,-1.1093,-0.8161,-0.8618,-0.8389,-0.649,-0.6338,-0.6338,-0.6338,-0.6338,0.0,0.0,-0.6338,-0.6338,-0.6338,0.0,0.0,0.0,0.0,0.0,0.0,0.0,0.0,0.0,-0.0079,0.0,-0.0,-0.0,-0.0,-0.0,-0.0,-0.0,0.021,0.2183,0.2924,0.2968,0.2971,0.2973,0.3277,0.533,0.6071,0.6173,0.6146,0.621,0.5914,0.3834,0.1722,-0.0,-0.0,-0.0,-0.0,-0.0,-0.0,0.0,0.0,0.0,-0.0,0.0,0.0,0.0,0.0,0.0,0.0,0.0,0.0,0.0,0.0,0.0,0.0,0.0,0.0,0.0,0.0,0.9221,0.9221,0.9296,0.9362,0.0,0.0,1.0828,1.1273,1.2258,1.2258,1.2124,1.185,1.1773,1.1128,0.9811,0.9042,0.8125,0.7183,0.6543,0.6237,0.6237,0.6247,0.6251,0.6251,0.6335,0.6338,0.6338,0.6338,0.6338,0.6338,0.6338,0.6338,0.6338,-1.2078,-1.2078,-1.2078,0.0,-1.2078,-1.2078,0.0,0.0,0.0,0.0,-1.0834,-0.9744,-0.8993,-0.7783,-0.6872,-0.6338,-0.6338,0.0,0.0,0.0,0.0,-0.6338,-0.6338,-0.6338,-0.6338,-0.6338,0.0,-0.6274,0.0,0.0,-0.5416,0.0,0.0,0.0,0.0,0.0,-0.0,-0.0,-0.0,-0.0,-0.0,-0.0,0.0068,0.0,0.0815,0.0827,0.0773,0.0778,0.085,0.1454,0.2642,0.3912,0.3933,0.5053,0.6179,0.5649,0.2906,-0.0,-0.0,-0.0,-0.0,-0.0,-0.0,-0.0,0.0,0.0,0.0,0.0,0.0,0.0,0.0,0.0,0.0,0.0,0.0,0.0,0.0,0.0,0.0,0.6338,0.0,0.0,0.0,0.8161,0.8466,0.9221,0.9807,0.0,0.0,0.0,1.1364,1.165,1.165,1.1617,1.1543,1.0125,0.9244,0.8904,0.733,0.6425,0.6143,0.5971,0.5918,0.5925,0.604,0.6088,0.6098,0.6213,0.6338,0.6338,0.6338,0.6338,0.6338,0.6338,0.6338,0.6338,-1.2305,0.0,0.0,-1.2305,0.0,0.0,-1.2305,0.0,0.0,-1.1099,-1.0421,0.0,-0.8161,-0.7403,-0.6795,-0.6338,-0.6338,0.0,-0.6338,0.0,0.0,-0.6338,-0.6338,-0.6338,-0.6338,-0.6338,0.0,-0.6278,0.0,0.0,-0.6217,0.0,0.0,0.0,0.0,-0.1726,0.0,-0.0,-0.0,-0.0,-0.0,-0.0,0.0,-0.0,-0.0,-0.0,-0.0,-0.0,-0.0,-0.0,0.0787,0.1724,0.1767,0.3649,0.5942,0.6259,0.3299,-0.0,-0.0,-0.0,-0.0,-0.0,-0.0,-0.0,-0.0,-0.0,-0.0,0.0,-0.0,-0.0,0.0,0.0,0.0,0.0,0.0,0.0,0.0,0.0,0.0,0.0,0.6101,0.0,0.6872,0.7013,0.725,0.776,0.8152,0.0,0.0,0.0,0.9806,1.0227,1.0227,1.0242,1.006,0.9028,0.8432,0.8336,0.6916,0.6261,0.6265,0.5912,0.58,0.5806,0.5891,0.5928,0.5942,0.6095,0.6159,0.6166,0.6234,0.6338,0.6338,0.6338,0.6338,0.6338,0.0,0.0,0.0,0.0,0.0,0.0,0.0,-1.2077,0.0,-0.975,0.0,-0.9432,-0.6791,-0.7176,-0.7253,-0.6416,0.0,-0.6338,-0.6338,-0.6338,-0.6338,-0.6338,-0.6338,-0.6338,-0.6338,-0.6338,-0.6268,0.0,0.0,0.0,0.0,0.0,0.0,0.0,0.0,0.0,0.0,-0.0,-0.0,-0.0,-0.0,-0.0,-0.0,-0.0,-0.0,-0.0,-0.0,-0.0,-0.0,-0.0,-0.0,-0.0,-0.0,0.2464,0.5475,0.6019,0.3259,-0.0,-0.0,-0.0,-0.0,-0.0,-0.0,-0.0,-0.0,-0.0,-0.0,-0.0,-0.0,-0.0,-0.0,0.0,0.0,0.0,0.0,0.0,0.0,0.0,0.0,0.0,0.0,0.0,0.0,0.0,0.0,0.0,0.0,0.0,0.0,0.0,0.7766,0.8667,0.8667,0.8574,0.8379,0.8245,0.8082,0.7832,0.7091,0.6699,0.6703,0.6032,0.5742,0.5745,0.5766,0.5772,0.5786,0.5935,0.6013,0.6044,0.62,0.6338,0.6338,0.6338,0.6338,0.6338,0.0,0.0,0.0,0.0,0.0,-1.1996,-1.1168,-1.1087,-1.0938,-1.0559,-0.921,-0.8161,-0.7629,-0.6949,-0.649,-0.6338,-0.6338,0.0,0.0,0.0,0.0,-0.6338,-0.6338,-0.6338,-0.6338,-0.6338,-0.6264,0.0,0.0,0.0,0.0,0.0,0.0,0.0,0.0,0.0,-0.0,-0.0,0.0,-0.0,-0.0,-0.0,-0.0,-0.0,-0.0,-0.0,-0.0,-0.0,-0.0,-0.0,-0.0,-0.0,-0.0,0.2473,0.5419,0.5548,0.2926,-0.0,-0.0,-0.0,-0.0,-0.0,-0.0,-0.0,-0.0,-0.0,-0.0,-0.0,-0.0,-0.0,-0.0,0.0,0.0,0.0,0.0,0.0,0.0,0.0,0.0,0.0,0.0,0.5698,0.0,0.0,0.0,0.0,0.0,0.0,0.0,0.0,0.7946,0.0,0.8139,0.8123,0.0,0.0,0.6946,0.6915,0.6039,0.5663,0.5663,0.5561,0.544,0.5447,0.5572,0.5627,0.5637,0.5783,0.5915,0.6044,0.62,0.6338,0.6338,0.6338,0.6338,0.6338,0.0,0.0,0.0,0.0,0.0,0.0,0.0,-1.034,0.0,-0.9286,-0.8385,-0.7629,-0.7099,-0.6567,-0.6338,-0.6338,-0.6338,-0.6338,-0.6338,-0.6338,-0.6338,-0.6338,-0.6338,-0.6338,-0.6338,-0.6338,-0.6264,-0.6271,0.0,0.0,0.0,0.0,0.0,0.0,0.0,-0.5146,0.0,0.0,0.0,-0.0,-0.0,-0.0,-0.0,-0.0,-0.0,-0.0,-0.0,-0.0,-0.0,-0.0,-0.0,-0.0,-0.0,0.1852,0.4201,0.5129,0.347,0.1209,0.0286,-0.0,-0.0,-0.0,-0.0,-0.0,-0.0,-0.0,-0.0,-0.0,-0.0,-0.0,-0.0,-0.0,0.0,0.0,0.0,0.0,0.0,0.0,0.0,0.0,0.0,0.0,0.0,0.0,0.0,0.0,0.0,0.0,0.0,0.0,0.6662,0.0,0.0,0.0,0.6662,0.0,0.6009,0.6009,0.5624,0.5428,0.5428,0.5428,0.5428,0.5432,0.544,0.5471,0.5484,0.563,0.5827,0.6037,0.6112,0.619,0.6338,0.6338,0.6338,0.6338,0.0,-1.2305,0.0,0.0,-1.215,0.0,-1.064,-0.9593,-0.8694,-0.7936,-0.7629,-0.7176,-0.6416,-0.6338,-0.6338,-0.6338,-0.6338,-0.6338,-0.6338,-0.6338,-0.6338,-0.6338,-0.6338,-0.6338,-0.6338,-0.6338,-0.6268,0.0,0.0,0.0,0.0,0.0,0.0,0.0,0.0,0.0,0.0,0.0,-0.084,-0.0,-0.0,-0.0,-0.0,-0.0,-0.0,-0.0,-0.0,-0.0,-0.0,-0.0,-0.0,-0.0,-0.0,0.1208,0.3086,0.4886,0.4112,0.2284,0.0487,-0.0,-0.0,-0.0,-0.0,-0.0,-0.0,-0.0,-0.0,-0.0,-0.0,-0.0,-0.0,-0.0,0.0,0.0,0.0,0.0,0.0,0.0,0.0,0.0,0.0,0.0,0.4709,0.0,0.0,0.0,0.0,0.0,0.5428,0.0,0.0,0.0,0.0,0.5428,0.5428,0.0,0.5428,0.5428,0.5428,0.5428,0.5428,0.5428,0.5428,0.5428,0.5428,0.5428,0.5439,0.5528,0.5728,0.5942,0.6006,0.6105,0.6217,0.6247,0.6338,0.6338,0.0,0.0,0.0,0.0,0.0,0.0,-0.9593,-0.8618,-0.7936,-0.7783,-0.7022,-0.6412,-0.6338,-0.6338,-0.6338,-0.6338,-0.6338,-0.6338,-0.6338,-0.6338,-0.6338,-0.6338,-0.6338,-0.6338,-0.6338,-0.6338,-0.6338,0.0,0.0,-0.6278,0.0,0.0,0.0,0.0,0.0,0.0,0.0,-0.5078,-0.3533,-0.0,-0.0,-0.0,-0.0,-0.0,-0.0,-0.0,-0.0,-0.0,-0.0,-0.0,-0.0,-0.0,-0.0,0.1208,0.3086,0.4886,0.4126,0.2287,0.0473,-0.0,-0.0,-0.0,-0.0,-0.0,-0.0,-0.0,-0.0,-0.0,-0.0,-0.0,-0.0,-0.0,-0.0,0.0,0.0,0.0,0.0,0.0,-0.0,-0.0,0.0,0.0,0.0,0.348,0.0,0.0,0.5372,0.0,0.0,0.0,0.0,0.5428,0.5428,0.5428,0.5428,0.5428,0.5428,0.5428,0.5428,0.5428,0.5428,0.5428,0.5428,0.5428,0.5428,0.5428,0.5439,0.5528,0.5606,0.5657,0.5925,0.6037,0.6067,0.621,0.6338,0.6416,0.0,0.0,0.0,0.0,0.0,0.0,0.0,-0.8466,-0.7557,-0.6945,-0.6567,-0.6338,-0.6338,-0.6338,-0.6338,-0.6338,-0.6338,-0.6338,-0.6338,-0.6338,-0.6338,-0.6338,-0.6338,-0.6338,-0.6338,-0.6338,-0.6338,0.0,0.0,0.0,0.0,0.0,0.0,0.0,0.0,-0.493,-0.307,-0.2687,-0.1565,-0.0,-0.0,-0.0,-0.0,-0.0,-0.0,-0.0,-0.0,-0.0,-0.0,-0.0,-0.0,-0.0,-0.0,0.1208,0.3084,0.487,0.4108,0.2277,0.047,-0.0,-0.0,-0.0,-0.0,-0.0,-0.0,-0.0,-0.0,-0.0,-0.0,-0.0,-0.0,-0.0,-0.0,-0.0,0.0,0.0,0.0,0.0,0.0,-0.0,0.0,0.148,0.0,0.3914,0.0,0.0,0.0,0.0,0.0,0.0,0.0,0.5428,0.0,0.5428,0.5428,0.5428,0.5428,0.5428,0.5428,0.5428,0.5428,0.5428,0.5428,0.5428,0.5428,0.5428,0.5432,0.543,0.5508,0.561,0.5813,0.5949,0.6051,0.6203,0.6718,0.7326,-1.2305,0.0,-1.2305,0.0,-1.1242,-1.0115,-0.9372,-0.8161,-0.7099,-0.6416,-0.6338,-0.6338,-0.6338,-0.6338,-0.6338,-0.6338,-0.6338,-0.6338,-0.6338,-0.6338,-0.6338,-0.6338,-0.6338,0.0,-0.6338,-0.6338,-0.6264,-0.6268,-0.6297,0.0,0.0,0.0,0.0,0.0,-0.5741,-0.4812,-0.3099,-0.0948,-0.0,-0.0,-0.0,-0.0,-0.0,-0.0,-0.0,-0.0,-0.0,-0.0,-0.0,-0.0,-0.0,-0.0,-0.0,0.1208,0.3082,0.4858,0.4512,0.3082,0.1272,0.0403,-0.0,-0.0,-0.0,-0.0,-0.0,-0.0,-0.0,-0.0,-0.0,-0.0,-0.0,-0.0,-0.0,-0.0,0.0,0.0,0.0,-0.0,0.0,-0.0,-0.0,0.0472,0.1752,0.3991,0.0,0.0,0.0,0.0,0.0,0.0,0.0,0.0,0.0,0.0,0.5428,0.5428,0.5428,0.5428,0.5428,0.5428,0.5428,0.5428,0.5428,0.5428,0.5428,0.5428,0.5428,0.5428,0.5423,0.5538,0.5684,0.583,0.5979,0.6135,0.6904,0.7936,-1.2305,-1.2305,-1.2305,-1.2305,-1.0651,-0.9301,-0.9296,-0.7629,-0.6338,-0.6338,-0.6338,-0.6338,-0.6338,-0.6338,-0.6338,-0.6338,-0.6338,-0.6338,-0.6338,-0.6338,-0.6338,0.0,0.0,-0.6338,-0.6338,-0.6338,-0.6268,-0.6278,0.0,0.0,-0.6238,0.0,-0.4504,-0.5593,-0.5676,-0.4891,-0.3411,-0.1003,-0.0,-0.0,-0.0,-0.0,-0.0,-0.0,-0.0,-0.0,-0.0,-0.0,-0.0,-0.0,-0.0,-0.0,-0.0,0.1208,0.3082,0.4858,0.5403,0.4982,0.3149,0.1343,-0.0,-0.0,-0.0,-0.0,-0.0,-0.0,-0.0,-0.0,-0.0,-0.0,-0.0,-0.0,-0.0,-0.0,0.0,0.0,0.0,-0.0,0.0,-0.0,-0.0,-0.0,-0.0,0.3295,0.0,0.0,0.0,0.0,0.0,0.0,0.0,0.5428,0.5428,0.0,0.5428,0.5428,0.5428,0.5428,0.5428,0.5428,0.5428,0.5428,0.5428,0.5428,0.5428,0.5428,0.5428,0.5428,0.5428,0.5446,0.5532,0.5681,0.5823,0.5976,0.6802,0.7936,-1.2305,-1.2305,-1.2077,-1.1391,-1.0196,-0.9069,-0.8389,-0.7176,-0.6338,-0.6338,-0.6338,-0.6338,-0.6338,-0.6338,-0.6338,0.0,-0.6338,-0.6338,0.0,-0.6338,-0.6338,-0.6338,-0.6268,-0.6274,-0.6274,-0.6266,-0.6298,-0.6301,0.0,0.0,0.0,-0.4977,-0.5237,-0.5447,-0.5518,-0.5218,-0.4764,-0.4033,-0.2281,-0.0,-0.0,-0.0,-0.0,-0.0,-0.0,-0.0,-0.0,-0.0,-0.0,-0.0,-0.0,-0.0,-0.0,0.1208,0.3082,0.4852,0.5393,0.5109,0.3682,0.3487,0.3362,0.2143,0.1809,0.1811,0.1811,0.1811,0.1811,0.1811,0.1811,0.1811,0.1811,0.1811,0.1408,0.0201,-0.0,0.0,-0.0,0.0,-0.0,-0.0,-0.0,-0.0,-0.0,0.101,0.0,0.0,0.0,0.0,0.0,0.0,0.0,0.0,0.5376,0.0,0.5372,0.5432,0.5428,0.5428,0.5428,0.5428,0.5428,0.5428,0.5428,0.5428,0.5428,0.5428,0.5428,0.5428,0.5428,0.5442,0.5532,0.5616,0.5755,0.666,0.7755,0.8867,-1.1842,-1.1768,-1.1391,-1.0415,-0.9442,-0.8542,-0.7936,-0.6949,-0.6338,-0.6338,-0.6338,-0.6338,-0.6338,-0.6338,0.0,-0.6338,-0.6338,-0.6338,-0.6338,-0.6338,-0.6234,-0.6176,-0.6179,-0.6159,-0.6184,-0.6172,0.0,-0.6311,-0.5098,-0.4101,-0.3502,-0.4897,-0.5542,-0.5372,-0.5372,-0.5372,-0.5372,-0.5393,-0.3694,-0.0937,-0.0269,-0.0,-0.0,-0.0,-0.0,-0.0,-0.0,-0.0,-0.0,-0.0,-0.0,-0.0,-0.0,0.1208,0.3082,0.4846,0.5386,0.5239,0.4486,0.4837,0.5119,0.4023,0.3687,0.3689,0.3689,0.3689,0.3689,0.3689,0.3689,0.3689,0.3689,0.3689,0.3353,0.2213,0.0871,-0.0,-0.0,0.0,-0.0,0.0,0.0,0.0,0.0,-0.0,0.0472,0.0,0.0,0.0,0.0,0.0,0.3694,0.437,0.4364,0.47,0.5379,0.5372,0.5432,0.5428,0.5428,0.5428,0.5428,0.5428,0.5428,0.5428,0.5428,0.5428,0.5428,0.5428,0.5428,0.5435,0.5467,0.574,0.6229,0.7064,0.8374,0.9717,-1.0864,-1.0708,-1.0415,0.0,-0.8389,0.0,-0.7706,-0.6872,-0.6338,-0.6338,-0.6338,-0.6338,-0.6338,-0.6338,-0.6338,-0.6338,0.0,0.0,-0.6338,-0.6251,-0.6179,-0.6037,-0.602,-0.5956,-0.5971,-0.5724,-0.5803,-0.6212,-0.5425,-0.4298,-0.2945,-0.464,-0.5382,-0.5428,-0.5428,-0.5428,-0.5428,-0.5372,-0.4428,-0.2744,-0.0803,-0.0,-0.0,-0.0,-0.0,-0.0,-0.0,-0.0,-0.0,-0.0,-0.0,-0.0,-0.0,0.1209,0.3082,0.4846,0.5386,0.5376,0.5432,0.5376,0.5389,0.5379,0.5386,0.5393,0.5393,0.5393,0.5393,0.5393,0.5393,0.5393,0.5393,0.5393,0.5399,0.541,0.2551,0.0268,0.0067,-0.0,-0.0,0.0,0.0,0.0,-0.0,-0.0,-0.0,0.0,0.0,0.0,0.0,0.0,0.0804,0.2477,0.2544,0.3418,0.5379,0.5379,0.5372,0.5428,0.5428,0.5428,0.5428,0.5428,0.5428,0.5428,0.5428,0.5428,0.5428,0.5428,0.5428,0.5428,0.5491,0.6041,0.6937,0.7333,0.8735,1.0413,0.0,0.0,-0.9367,-0.8313,-0.7936,-0.7557,-0.6795,-0.649,-0.6338,-0.6338,-0.6338,-0.6338,-0.6338,-0.6338,-0.6338,-0.6338,-0.6338,-0.6338,-0.6338,-0.6149,-0.6067,-0.603,-0.5858,-0.5791,-0.5758,-0.4202,-0.4119,-0.5634,-0.272,-0.2496,-0.4755,-0.5183,-0.5382,-0.5428,-0.5428,-0.5428,-0.5428,-0.5372,-0.5179,-0.4506,-0.1272,-0.0,-0.0,-0.0,-0.0,-0.0,-0.0,-0.0,-0.0,-0.0,-0.0,-0.0,-0.0,0.121,0.3088,0.4849,0.5382,0.5432,0.5428,0.5432,0.5369,0.5432,0.5369,0.5369,0.5369,0.5369,0.5369,0.5369,0.5369,0.5369,0.5369,0.5376,0.5386,0.5396,0.4651,0.3165,0.0404,-0.0,-0.0,0.0,-0.0,-0.0,-0.0,-0.0,-0.0,0.0,0.0,-0.0,-0.0,-0.0,0.0202,0.0605,0.0671,0.2144,0.5336,0.5386,0.5372,0.5428,0.5428,0.5428,0.5428,0.5428,0.5428,0.5428,0.5428,0.5428,0.5428,0.5428,0.5428,0.5491,0.6137,0.6552,0.6941,0.856,0.9553,1.0301,-0.8841,-0.8618,-0.8313,-0.7326,-0.7099,-0.6945,-0.6416,-0.6338,-0.6338,-0.6338,-0.6338,-0.6338,-0.6338,-0.6338,-0.6234,-0.6162,-0.6156,-0.6156,-0.6156,-0.601,-0.5895,-0.583,-0.5688,-0.5621,-0.5557,-0.4491,-0.4422,-0.5379,-0.342,-0.3485,-0.5369,-0.5382,-0.5379,-0.5428,-0.5428,-0.5428,-0.5428,-0.5369,-0.5379,-0.5189,-0.2344,-0.0738,-0.0,-0.0,-0.0,-0.0,-0.0,-0.0,-0.0,-0.0,-0.0,-0.0,-0.0,0.0672,0.181,0.3625,0.4767,0.5369,0.5428,0.5428,0.5428,0.5428,0.5428,0.5428,0.5428,0.5428,0.5428,0.5428,0.5428,0.5428,0.5428,0.5369,0.5109,0.43,0.4852,0.4113,0.0539,-0.0,-0.0,-0.0,-0.0,-0.0,-0.0,-0.0,-0.0,-0.0,-0.0,0.0,-0.0,-0.0,-0.0,-0.0,-0.0,0.1343,0.411,0.4979,0.5372,0.5428,0.5428,0.5428,0.5428,0.5428,0.5428,0.5428,0.5428,0.5428,0.5428,0.5428,0.562,0.6009,0.6527,0.7177,0.8052,0.9285,1.0153,1.0836,-0.7783,-0.7553,-0.7326,-0.6412,-0.6338,-0.6338,-0.6338,-0.6338,-0.6338,-0.6338,-0.6338,-0.6338,-0.6338,-0.624,-0.6173,-0.604,-0.5989,-0.5973,-0.5993,-0.5854,-0.5715,-0.5596,-0.5566,-0.5498,-0.5379,-0.5432,-0.5432,-0.5376,-0.5386,-0.5386,-0.5376,-0.5379,-0.5372,-0.5428,-0.5428,-0.5428,-0.5428,-0.5428,-0.5376,-0.5259,-0.342,-0.161,-0.0,-0.0,-0.0,-0.0,-0.0,-0.0,-0.0,-0.0,-0.0,-0.0,-0.0,0.0403,0.1072,0.2342,0.3954,0.5376,0.5432,0.5428,0.5428,0.5428,0.5428,0.5428,0.5428,0.5428,0.5428,0.5428,0.5428,0.5428,0.5428,0.5372,0.4837,0.3147,0.3828,0.3701,0.1145,0.0,-0.0,-0.0,-0.0,-0.0,-0.0,-0.0,-0.0,-0.0,-0.0,-0.0,-0.0,-0.0,-0.0,-0.0,-0.0,0.0875,0.2684,0.45,0.5376,0.5428,0.5428,0.5428,0.5428,0.5428,0.5428,0.5428,0.5428,0.5495,0.5557,0.5425,0.6009,0.6915,0.6915,0.7897,0.9361,0.9712,1.0501,1.1403,-0.6718,-0.6567,-0.649,-0.6338,-0.6338,-0.6338,-0.6338,-0.6338,-0.6338,-0.6338,-0.6338,-0.6338,-0.6338,-0.6142,-0.6057,-0.603,-0.5803,-0.5708,-0.583,-0.5701,-0.5613,-0.5593,-0.5464,-0.5452,-0.5432,-0.5428,-0.5428,-0.5432,-0.5376,-0.5376,-0.5432,-0.5372,-0.5372,-0.5428,-0.5428,-0.5428,-0.5428,-0.5428,-0.5376,-0.5259,-0.342,-0.161,-0.0,-0.0,-0.0,-0.0,-0.0,-0.0,-0.0,-0.0,-0.0,-0.0,-0.0,0.2087,0.4314,0.3084,0.3954,0.5376,0.5432,0.5428,0.5428,0.5428,0.5428,0.5428,0.5428,0.5428,0.5428,0.5428,0.5428,0.5428,0.5428,0.5379,0.4979,0.368,0.2013,0.1682,0.4185,0.0,-0.0,-0.0,-0.0,-0.0,-0.0,-0.0,-0.0,-0.0,-0.0,-0.0,-0.0,-0.0,-0.0,-0.0,-0.0,0.0874,0.2679,0.4503,0.5382,0.5428,0.5428,0.5428,0.5428,0.5428,0.5428,0.5428,0.5428,0.5815,0.6461,0.5686,0.6338,0.7832,0.7832,0.842,0.9408,1.0155,1.0744,1.1102,-0.6416,-0.6338,-0.6338,-0.6338,-0.6338,-0.6338,-0.6338,-0.6338,-0.6338,-0.6338,-0.6186,-0.6135,-0.6135,-0.6,-0.5878,-0.58,-0.5667,-0.5583,-0.5566,-0.5504,-0.5467,-0.5467,-0.5466,-0.5428,-0.5428,-0.5428,-0.5428,-0.5428,-0.5432,-0.5432,-0.5428,-0.5432,-0.5432,-0.5428,-0.5428,-0.5428,-0.5428,-0.5369,-0.5379,-0.5326,-0.4512,-0.2488,-0.0,-0.0,-0.0,-0.0,-0.0,-0.0,-0.0,-0.0,-0.0,0.0337,0.2296,0.4056,0.5205,0.4372,0.4767,0.5369,0.5428,0.5428,0.5428,0.5428,0.5428,0.5428,0.5428,0.5428,0.5428,0.5428,0.5428,0.5428,0.5428,0.5376,0.4976,0.3813,0.322,0.3161,0.3832,0.3366,0.2153,0.0201,-0.0,-0.0,-0.0,-0.0,-0.0,-0.0,0.1818,0.2896,0.2896,0.2016,0.1477,0.1477,0.2421,0.3295,0.4156,0.4976,0.5379,0.5428,0.5428,0.5428,0.5428,0.5428,0.5428,0.5428,0.5881,0.633,0.6719,0.6793,0.7572,0.8683,0.8683,0.9262,1.0047,1.0434,1.0742,1.1009,-0.6338,-0.6338,-0.6338,-0.6338,-0.6338,-0.6338,-0.6338,-0.623,-0.6207,-0.6207,-0.6071,-0.5976,-0.5976,-0.584,-0.5708,-0.5599,-0.5555,-0.5488,-0.5435,-0.5428,-0.5428,-0.5428,-0.5428,-0.5428,-0.5428,-0.5428,-0.5428,-0.5428,-0.5428,-0.5428,-0.5428,-0.5428,-0.5428,-0.5428,-0.5428,-0.5428,-0.5428,-0.5372,-0.5179,-0.4779,-0.5202,-0.3236,-0.0,-0.0,-0.0,-0.0,-0.0,-0.0,-0.0,-0.0,-0.0,0.0472,0.3248,0.4742,0.541,0.5399,0.5379,0.5428,0.5428,0.5428,0.5428,0.5428,0.5428,0.5428,0.5428,0.5428,0.5428,0.5428,0.5428,0.5428,0.5428,0.5369,0.5103,0.4148,0.0,0.4849,0.3147,0.4375,0.4244,0.1005,0.0269,0.0135,0.0605,0.101,0.1077,0.0673,0.323,0.4928,0.5346,0.4102,0.3349,0.3349,0.4648,0.5399,0.5379,0.5379,0.5372,0.5428,0.5428,0.5428,0.5428,0.5428,0.5491,0.5752,0.6396,0.6915,0.7372,0.7827,0.8613,0.9594,0.9402,0.9849,1.0624,1.0624,1.0701,1.0902,-0.6338,-0.6338,-0.6338,-0.6338,-0.6338,-0.6338,-0.6338,-0.6139,-0.6047,-0.6047,-0.5915,-0.582,-0.582,-0.5691,-0.5599,-0.5593,-0.546,-0.5439,-0.5428,-0.5428,-0.5428,-0.5428,-0.5428,-0.5428,-0.5428,-0.5428,-0.5428,-0.5428,-0.5428,-0.5428,-0.5428,-0.5428,-0.5428,-0.5428,-0.5428,-0.5428,-0.5428,-0.5372,-0.4428,-0.3015,-0.4721,-0.3236,-0.0,-0.0,-0.0,-0.0,-0.0,-0.0,-0.0,-0.0,-0.0,0.0067,0.0337,0.2696,0.541,0.5399,0.5379,0.5428,0.5428,0.5428,0.5428,0.5428,0.5428,0.5428,0.5428,0.5428,0.5428,0.5428,0.5428,0.5428,0.5428,0.5369,0.5376,0.5296,0.0,0.0,0.368,0.4643,0.4654,0.2744,0.1004,0.067,0.2344,0.4038,0.4317,0.2619,0.275,0.3625,0.5343,0.5266,0.5186,0.5176,0.5322,0.5389,0.5379,0.5379,0.5372,0.5428,0.5428,0.5428,0.5428,0.5428,0.5815,0.6588,0.6654,0.7632,0.9075,0.8291,0.9,1.0428,0.9594,0.9849,1.0624,1.0624,1.0638,1.0628,-0.6338,-0.6338,-0.623,-0.6135,-0.6118,-0.6084,-0.5989,-0.5925,-0.5888,-0.5888,-0.5759,-0.5671,-0.5671,-0.5538,-0.5447,-0.5447,-0.5463,-0.5428,-0.5428,-0.5428,-0.5428,-0.5428,-0.5428,-0.5428,-0.5428,-0.5428,-0.5428,-0.5428,-0.5428,-0.5428,-0.5428,-0.5428,-0.5428,-0.5428,-0.5369,-0.5372,-0.5372,-0.5393,-0.4992,-0.4241,-0.2693,-0.1212,-0.0,-0.0,-0.0,-0.0,-0.0,-0.0,-0.0,-0.0,-0.0,0.0202,0.1349,0.2626,0.3964,0.504,0.5369,0.5428,0.5428,0.5428,0.5428,0.5428,0.5428,0.5428,0.5428,0.5428,0.5428,0.5428,0.5428,0.5428,0.5428,0.5432,0.5432,0.5428,0.0,0.5246,0.4755,0.5113,0.5122,0.4431,0.3758,0.3153,0.2744,0.4303,0.5125,0.4442,0.4367,0.47,0.5389,0.5379,0.5372,0.5369,0.5372,0.5372,0.5369,0.5369,0.5432,0.5428,0.5428,0.5428,0.5428,0.5947,0.6396,0.6785,0.7832,0.8683,0.9338,0.9518,0.997,1.0561,1.0238,1.0301,1.0624,1.0624,1.0624,1.0638,-0.6115,-0.6115,-0.6084,-0.5976,-0.5959,-0.5922,-0.5817,-0.5766,-0.5735,-0.5735,-0.5606,-0.5518,-0.5518,-0.5423,-0.5428,-0.5428,-0.5428,-0.5428,-0.5428,-0.5428,-0.5428,-0.5428,-0.5428,-0.5428,-0.5428,-0.5428,-0.5428,-0.5428,-0.5428,-0.5428,-0.5428,-0.5428,-0.5428,-0.5428,-0.5372,-0.5379,-0.5379,-0.5403,-0.5413,-0.5071,-0.1482,-0.0,-0.0,-0.0,-0.0,-0.0,-0.0,-0.0,-0.0,-0.0,0.0742,0.189,0.3175,0.3567,0.3818,0.503,0.5432,0.5428,0.5428,0.5428,0.5428,0.5428,0.5428,0.5428,0.5428,0.5428,0.5428,0.5428,0.5428,0.5428,0.5428,0.5428,0.5428,0.5428,0.5372,0.5376,0.5428,0.5379,0.5386,0.5376,0.5382,0.4909,0.3682,0.4703,0.5389,0.5389,0.5379,0.5372,0.5372,0.5432,0.5428,0.5428,0.5428,0.5428,0.5428,0.5428,0.5428,0.5428,0.5428,0.5428,0.5428,0.6334,0.685,0.7177,0.8683,0.9466,0.9786,1.0364,1.0624,1.0624,1.0624,1.0624,1.0624,1.0624,1.0624,1.0624,-0.58,-0.58,-0.58,-0.58,-0.58,-0.58,-0.5796,-0.5677,-0.5589,-0.5589,-0.5457,-0.5428,-0.5428,-0.5428,-0.5428,-0.5428,-0.5428,-0.5428,-0.5428,-0.5428,-0.5428,-0.5428,-0.5428,-0.5428,-0.5428,-0.5428,-0.5428,-0.5428,-0.5428,-0.5428,-0.5428,-0.5428,-0.5428,-0.5428,-0.5372,-0.5379,-0.5379,-0.5336,-0.5346,-0.5068,-0.1414,-0.0,-0.0,-0.0,-0.0,-0.0,-0.0,-0.0,-0.0,-0.0,0.2432,0.5376,0.542,0.5396,0.5379,0.5379,0.5369,0.5428,0.5428,0.5428,0.5428,0.5428,0.5428,0.5428,0.5428,0.5428,0.5428,0.5428,0.5428,0.5428,0.5428,0.5428,0.5428,0.5428,0.5372,0.5376,0.5428,0.5372,0.5372,0.5428,0.5372,0.5372,0.5428,0.5372,0.5379,0.5379,0.5369,0.5428,0.5428,0.5428,0.5428,0.5428,0.5428,0.5428,0.5428,0.5428,0.5428,0.5428,0.5428,0.5428,0.5428,0.6334,0.7177,0.8027,0.8941,0.9786,1.0624,1.0624,1.0624,1.0624,1.0624,1.0624,1.0624,1.0624,1.0624,1.0624,-0.5943,-0.58,-0.5769,-0.5671,-0.5654,-0.5616,-0.5508,-0.5457,-0.543,-0.543,-0.5456,-0.5428,-0.5428,-0.5428,-0.5428,-0.5428,-0.5428,-0.5428,-0.5428,-0.5428,-0.5428,-0.5428,-0.5428,-0.5428,-0.5428,-0.5428,-0.5428,-0.5428,-0.5428,-0.5428,-0.5428,-0.5428,-0.5428,-0.5428,-0.5382,-0.4706,-0.3416,-0.2151,-0.1616,-0.1549,-0.0404,-0.0,-0.0,-0.0,-0.0,-0.0,-0.0,-0.0,-0.0,-0.0,0.2432,0.5376,0.541,0.5389,0.5376,0.5369,0.5432,0.5428,0.5428,0.5428,0.5428,0.5428,0.5428,0.5428,0.5428,0.5428,0.5428,0.5428,0.5428,0.5428,0.5428,0.5428,0.5428,0.5428,0.5432,0.5432,0.5428,0.5432,0.5432,0.5428,0.5432,0.5432,0.5428,0.5432,0.5432,0.5432,0.5428,0.5428,0.5428,0.5428,0.5428,0.5428,0.5428,0.5428,0.5428,0.5428,0.5428,0.5428,0.6009,0.6334,0.6334,0.7832,0.8683,0.8947,0.9849,1.0364,1.0624,1.0624,1.0624,1.0624,1.0624,1.0624,1.0624,1.0624,1.0624,1.0624,-0.6241,-0.5901,-0.5599,-0.5515,-0.5501,-0.5467,-0.5442,-0.5428,-0.5428,-0.5428,-0.5428,-0.5428,-0.5428,-0.5428,-0.5428,-0.5428,-0.5428,-0.5428,-0.5428,-0.5428,-0.5428,-0.5428,-0.5428,-0.5428,-0.5428,-0.5428,-0.5428,-0.5428,-0.5428,-0.5428,-0.5428,-0.5428,-0.5428,-0.5428,-0.5379,-0.4367,-0.2611,-0.0738,-0.0,-0.0,-0.0,-0.0,-0.0,-0.0,-0.0,-0.0,-0.0,-0.0,-0.0,-0.0,0.1955,0.4459,0.5196,0.5386,0.5369,0.5428,0.5428,0.5428,0.5428,0.5428,0.5428,0.5428,0.5428,0.5428,0.5428,0.5428,0.5428,0.5428,0.5428,0.5428,0.5428,0.5428,0.5428,0.5428,0.5428,0.5428,0.5428,0.5428,0.5428,0.5428,0.5428,0.5428,0.5428,0.5428,0.5428,0.5428,0.5428,0.5428,0.5428,0.5428,0.5428,0.5428,0.5428,0.5428,0.5428,0.5428,0.5557,0.5947,0.6461,0.685,0.7242,0.8683,0.9274,0.9338,1.0238,1.0624,1.0624,1.0624,1.0624,1.0624,1.0624,1.0624,1.0624,1.0624,1.0624,1.0624,-0.6719,-0.6075,-0.5491,-0.5428,-0.5428,-0.5428,-0.5428,-0.5428,-0.5428,-0.5428,-0.5428,-0.5428,-0.5428,-0.5428,-0.5428,-0.5428,-0.5428,-0.5428,-0.5428,-0.5428,-0.5428,-0.5428,-0.5428,-0.5428,-0.5428,-0.5428,-0.5428,-0.5428,-0.5428,-0.5428,-0.5428,-0.5428,-0.5428,-0.5428,-0.5376,-0.4495,-0.2813,-0.087,-0.0,-0.0,-0.0,-0.0,-0.0,-0.0,-0.0,-0.0,-0.0,-0.0,0.0067,0.0404,0.1478,0.3013,0.4846,0.5379,0.5428,0.5428,0.5428,0.5428,0.5428,0.5428,0.5428,0.5428,0.5428,0.5428,0.5428,0.5428,0.5428,0.5428,0.5428,0.5428,0.5428,0.5428,0.5428,0.5428,0.5428,0.5428,0.5428,0.5428,0.5428,0.5428,0.5428,0.5428,0.5428,0.5428,0.5428,0.5428,0.5428,0.5428,0.5428,0.5428,0.5428,0.5428,0.5428,0.5428,0.5491,0.5491,0.5947,0.6719,0.6785,0.7242,0.8156,0.9005,0.9402,0.9466,1.0238,1.0624,1.0624,1.0624,1.0624,1.0624,1.0624,1.0624,1.0624,1.0624,1.0624,1.0624,-0.6981,-0.6527,-0.6203,-0.5491,-0.5428,-0.5428,-0.5428,-0.5428,-0.5428,-0.5428,-0.5428,-0.5428,-0.5428,-0.5428,-0.5428,-0.5428,-0.5428,-0.5428,-0.5428,-0.5428,-0.5428,-0.5428,-0.5428,-0.5428,-0.5428,-0.5428,-0.5428,-0.5428,-0.5428,-0.5428,-0.5428,-0.5428,-0.5428,-0.5428,-0.5382,-0.5189,-0.4576,-0.1344,-0.0,-0.0,-0.0,-0.0,-0.0,-0.0,-0.0,-0.0,-0.0,-0.0,0.0404,0.3303,0.3563,0.3013,0.4837,0.5372,0.5428,0.5428,0.5428,0.5428,0.5428,0.5428,0.5428,0.5428,0.5428,0.5428,0.5428,0.5428,0.5428,0.5428,0.5428,0.5428,0.5428,0.5428,0.5428,0.5428,0.5428,0.5428,0.5428,0.5428,0.5428,0.5428,0.5428,0.5428,0.5428,0.5428,0.5428,0.5428,0.5428,0.5428,0.5428,0.5428,0.5428,0.5428,0.5428,0.5752,0.6396,0.6396,0.6527,0.6719,0.7372,0.8156,0.9075,0.9913,1.0301,1.0301,1.0498,1.0624,1.0624,1.0624,1.0624,1.0624,1.0624,1.0624,1.0624,1.0624,1.0624,1.0624,-0.7567,-0.6981,-0.6396,-0.5557,-0.5428,-0.5428,-0.5428,-0.5428,-0.5428,-0.5428,-0.5428,-0.5428,-0.5428,-0.5428,-0.5428,-0.5428,-0.5428,-0.5428,-0.5428,-0.5428,-0.5428,-0.5428,-0.5428,-0.5428,-0.5428,-0.5428,-0.5428,-0.5428,-0.5428,-0.5428,-0.5428,-0.5428,-0.5428,-0.5428,-0.5379,-0.4909,-0.403,-0.3029,-0.1549,-0.0,-0.0,-0.0,-0.0,-0.0,-0.0,-0.0,-0.0,0.1078,0.2896,0.473,0.4782,0.4159,0.5106,0.5369,0.5428,0.5428,0.5428,0.5428,0.5428,0.5428,0.5428,0.5428,0.5428,0.5428,0.5428,0.5428,0.5428,0.5428,0.5428,0.5428,0.5428,0.5428,0.5428,0.5428,0.5428,0.5428,0.5428,0.5428,0.5428,0.5428,0.5428,0.5428,0.5428,0.5428,0.5428,0.5428,0.5815,0.6009,0.6009,0.6009,0.6207,0.6601,0.6207,0.6465,0.7307,0.7307,0.7502,0.7962,0.842,0.9069,0.9913,1.0364,1.0624,1.0624,1.0624,1.0624,1.0624,1.0624,1.0624,1.0624,1.0624,1.0624,1.0624,1.0624,1.0624,1.0624,-0.8221,-0.7437,-0.6593,-0.5557,-0.5428,-0.5428,-0.5428,-0.5428,-0.5428,-0.5428,-0.5428,-0.5428,-0.5428,-0.5428,-0.5428,-0.5428,-0.5428,-0.5428,-0.5428,-0.5428,-0.5428,-0.5428,-0.5428,-0.5428,-0.5428,-0.5428,-0.5428,-0.5428,-0.5428,-0.5428,-0.5428,-0.5428,-0.5428,-0.5432,-0.5376,-0.4567,-0.3218,-0.411,-0.2762,-0.0,-0.0,-0.0,-0.0,-0.0,-0.0,-0.0,-0.0,0.2357,0.5413,0.541,0.5396,0.5379,0.5376,0.5369,0.5428,0.5428,0.5428,0.5428,0.5428,0.5428,0.5428,0.5428,0.5428,0.5428,0.5428,0.5428,0.5428,0.5428,0.5428,0.5428,0.5428,0.5428,0.5428,0.5428,0.5428,0.5428,0.5428,0.5428,0.5428,0.5428,0.5428,0.5428,0.5428,0.5428,0.5428,0.5428,0.6203,0.6719,0.6719,0.685,0.7242,0.7962,0.7307,0.7372,0.8221,0.8221,0.8678,0.953,0.953,0.9919,1.0624,1.0624,1.0624,1.0624,1.0624,1.0624,1.0624,1.0624,1.0624,1.0624,1.0624,1.0624,1.0624,1.0624,1.0624,1.0624,-0.835,-0.7897,-0.7312,-0.5686,-0.5428,-0.5428,-0.5428,-0.5428,-0.5428,-0.5428,-0.5428,-0.5428,-0.5428,-0.5428,-0.5428,-0.5428,-0.5428,-0.5428,-0.5428,-0.5428,-0.5428,-0.5428,-0.5428,-0.5428,-0.5428,-0.5428,-0.5428,-0.5428,-0.5428,-0.5428,-0.5428,-0.5428,-0.5432,-0.5376,-0.5389,-0.5262,-0.4861,-0.1952,-0.0472,-0.0,-0.0,-0.0,-0.0,-0.0,-0.0,-0.0,-0.0,0.2357,0.541,0.5399,0.5389,0.5376,0.5432,0.5428,0.5428,0.5428,0.5428,0.5428,0.5428,0.5428,0.5428,0.5428,0.5428,0.5428,0.5428,0.5428,0.5428,0.5428,0.5428,0.5428,0.5428,0.5428,0.5428,0.5428,0.5428,0.5428,0.5428,0.5428,0.5428,0.5428,0.5428,0.5428,0.5428,0.5428,0.5428,0.5428,0.6203,0.6719,0.6719,0.7437,0.7897,0.8027,0.7897,0.8221,0.9139,0.9139,0.9594,1.0428,1.0428,1.0498,1.0624,1.0624,1.0624,1.0624,1.0624,1.0624,1.0624,1.0624,1.0624,1.0624,1.0624,1.0624,1.0624,1.0624,1.0624,1.0624,-0.8221,-0.7632,-0.6854,-0.5624,-0.5428,-0.5428,-0.5428,-0.5428,-0.5428,-0.5428,-0.5428,-0.5428,-0.5428,-0.5428,-0.5428,-0.5428,-0.5428,-0.5428,-0.5428,-0.5428,-0.5428,-0.5428,-0.5428,-0.5428,-0.5428,-0.5428,-0.5428,-0.5428,-0.5428,-0.5428,-0.5428,-0.5428,-0.5369,-0.5376,-0.4364,-0.4442,-0.5138,-0.1549,-0.0,-0.0,-0.0,-0.0,-0.0,-0.0,-0.0,0.027,0.229,0.3366,0.4033,0.5046,0.5379,0.5369,0.5428,0.5428,0.5428,0.5428,0.5428,0.5428,0.5428,0.5428,0.5428,0.5428,0.5428,0.5428,0.5428,0.5428,0.5428,0.5428,0.5428,0.5428,0.5428,0.5428,0.5428,0.5428,0.5428,0.5428,0.5428,0.5428,0.5428,0.5428,0.5428,0.5428,0.5428,0.5428,0.5624,0.6075,0.6915,0.7632,0.8156,0.8549,0.8935,0.9454,0.9,0.9134,1.0047,1.0047,1.0238,1.0624,1.0624,1.0624,1.0624,1.0624,1.0624,1.0624,1.0624,1.0624,1.0624,1.0624,1.0624,1.0624,1.0624,1.0624,1.0624,1.0624,1.0624,1.0624]},{"header":{"parameterUnit":"m.s-1","parameterCategory":1,"la1":30.6,"la2":28.766,"lo1":-90.7593,"lo2":-88.6598,"dy":0.0162,"dx":0.0183,"nx":116,"ny":114,"refTime":"2023-08-02T00:00:00:Z","depth":0,"parameterNumber":3,"parameterNumberName":"V-component_of_WINDS"},"data":[0.0,0.0,0.0,0.0,0.0,0.0,0.0,0.0,0.0,0.0,0.0,0.0,0.0,0.0,0.0,0.0,0.0,0.0,0.0,0.0,0.0,0.0,0.0,0.0,0.0,0.0,0.0,0.0,0.0,0.0,0.0,0.0,0.0,0.0,0.0,0.0,0.0,0.0,0.0,0.0,0.0,0.0,0.0,0.0,0.0,0.0,0.0,0.0,0.0,0.0,0.0,0.0,0.0,0.0,0.0,0.0,0.0,0.0,0.0,0.0,0.0,0.0,0.0,0.0,0.0,0.0,0.0,0.0,0.0,0.0,0.0,0.0,0.0,0.0,0.0,0.0,0.0,0.0,0.0,0.0,0.0,0.0,0.0,0.0,0.0,0.0,0.0,0.0,0.0,0.0,0.0,0.0,0.0,0.0,0.0,0.0,0.0,0.0,0.0,0.0,0.0,0.0,0.0,0.0,0.0,0.0,0.0,0.0,0.0,0.0,0.0,0.0,0.0,0.0,0.0,0.0,0.0,0.0,0.0,0.0,0.0,0.0,0.0,0.0,0.0,0.0,0.0,0.0,0.0,0.0,0.0,0.0,0.0,0.0,0.0,0.0,0.0,0.0,0.0,0.0,0.0,0.0,0.0,0.0,0.0,0.0,0.0,0.0,0.0,0.0,0.0,0.0,0.0,0.0,0.0,0.0,0.0,0.0,0.0,0.0,0.0,0.0,0.0,0.0,0.0,0.0,0.0,0.0,0.0,0.0,0.0,0.0,0.0,0.0,0.0,0.0,0.0,0.0,0.0,0.0,0.0,0.0,0.0,0.0,0.0,0.0,0.0,0.0,0.0,0.0,0.0,0.0,0.0,0.0,0.0,0.0,0.0,0.0,0.0,0.0,0.0,0.0,0.0,0.0,0.0,0.0,0.0,0.0,0.0,0.0,0.0,0.0,0.0,0.0,0.0,0.0,0.0,0.0,0.0,0.0,0.0,0.0,0.0,0.0,0.0,0.0,0.0,0.0,0.0,0.0,0.0,0.0,0.0,0.0,0.0,0.0,0.0,0.0,0.0,0.0,0.0,0.0,0.0,0.0,0.0,0.0,0.0,0.0,0.0,0.0,0.0,0.0,0.0,0.0,0.0,0.0,0.0,0.0,0.0,0.0,0.0,0.0,0.0,0.0,0.0,0.0,0.0,0.0,0.0,0.0,0.0,0.0,0.0,0.0,0.0,0.0,0.0,0.0,0.0,0.0,0.0,0.0,0.0,0.0,0.0,0.0,0.0,0.0,0.0,0.0,0.0,0.0,0.0,0.0,0.0,0.0,0.0,0.0,0.0,0.0,0.0,0.0,0.0,0.0,0.0,0.0,0.0,0.0,0.0,0.0,0.0,0.0,0.0,0.0,0.0,0.0,0.0,0.0,0.0,0.0,0.0,0.0,0.0,0.0,0.0,0.0,0.0,0.0,0.0,0.0,0.0,0.0,0.0,0.0,0.0,0.0,0.0,0.0,0.0,0.0,0.0,0.0,0.0,0.0,0.0,0.0,0.0,0.0,0.0,0.0,0.0,0.0,0.0,0.0,0.0,0.0,0.0,0.0,0.0,0.0,0.0,0.0,0.0,0.0,0.0,0.0,0.0,0.0,0.0,0.0,0.0,0.0,0.0,0.0,0.0,0.0,0.0,0.0,0.0,0.0,0.0,0.0,0.0,0.0,0.0,0.0,0.0,0.0,0.0,0.0,0.0,0.0,0.0,0.0,0.0,0.0,0.0,0.0,0.0,0.0,0.0,0.0,0.0,0.0,0.0,0.0,0.0,0.0,0.0,0.0,0.0,0.0,0.0,0.0,0.0,0.0,0.0,0.0,0.0,0.0,0.0,0.0,0.0,0.0,0.0,0.0,0.0,0.0,0.0,0.0,0.0,0.0,0.0,0.0,0.0,0.0,0.0,0.0,0.0,0.0,0.0,0.0,0.0,0.0,0.0,0.0,0.0,0.0,0.0,0.0,0.0,0.0,0.0,0.0,0.0,0.0,0.0,0.0,0.0,0.0,0.0,0.0,0.0,0.0,0.0,0.0,0.0,0.0,0.0,0.0,0.0,0.0,0.0,0.0,0.0,0.0,0.0,0.0,0.0,0.0,0.0,0.0,0.0,0.0,0.0,0.0,0.0,0.0,0.0,0.0,0.0,0.0,0.0,0.0,0.0,0.0,0.0,0.0,0.0,0.0,0.0,0.0,0.0,0.0,0.0,0.0,0.0,0.0,0.0,0.0,0.0,0.0,0.0,0.0,0.0,0.0,0.0,0.0,0.0,0.0,0.0,0.0,0.0,0.0,0.0,0.0,0.0,0.0,0.0,0.0,0.0,0.0,0.0,0.0,0.0,0.0,0.0,0.0,0.0,0.0,0.0,0.0,0.0,0.0,0.0,0.0,0.0,0.0,0.0,0.0,0.0,0.0,0.0,0.0,0.0,0.0,0.0,0.0,0.0,0.0,0.0,0.0,0.0,0.0,0.0,0.0,0.0,0.0,0.0,0.0,0.0,0.0,0.0,0.0,0.0,0.0,0.0,0.0,0.0,0.0,0.0,0.0,0.0,0.0,0.0,0.0,0.0,0.0,0.0,0.0,0.0,0.0,0.0,0.0,0.0,0.0,0.0,0.0,0.0,0.0,0.0,0.0,0.0,0.0,0.0,0.0,0.0,0.0,0.0,0.0,0.0,0.0,0.0,0.0,0.0,0.0,0.0,0.0,0.0,0.0,0.0,0.0,0.0,0.0,0.0,0.0,0.0,0.0,0.0,0.0,0.0,0.0,0.0,0.0,0.0,0.0,0.0,0.0,0.0,0.0,0.0,0.0,0.0,0.0,0.0,0.0,0.0,0.0,0.0,0.0,0.0,0.0,0.0,0.0,0.0,0.0,0.0,0.0,0.0,0.0,0.0,0.0,0.0,0.0,0.0,0.0,0.0,0.0,0.0,0.0,0.0,0.0,0.0,0.0,0.0,0.0,0.0,0.0,0.0,0.0,0.0,0.0,0.0,0.0,0.0,0.0,0.0,0.0,0.0,0.0,0.0,0.0,0.0,0.0,0.0,0.0,0.0,0.0,0.0,0.0,0.0,0.0,0.0,0.0,0.0,0.0,0.0,0.0,0.0,0.0,0.0,0.0,0.0,0.0,0.0,0.0,0.0,0.0,0.0,0.0,0.0,0.0,0.0,0.0,0.0,0.0,0.0,0.0,0.0,0.0,0.0,0.0,0.0,0.0,0.0,0.0,0.0,0.0,0.0,0.0,0.0,0.0,0.0,0.0,0.0,0.0,0.0,0.0,0.0,0.0,0.0,0.0,0.0,0.0,0.0,0.0,0.0,0.0,0.0,0.0,0.0,0.0,0.0,0.0,0.0,0.0,0.0,0.0,0.0,0.0,0.0,0.0,0.0,0.0,0.0,0.0,0.0,0.0,0.0,0.0,0.0,0.0,0.0,0.0,0.0,0.0,0.0,0.0,0.0,0.0,0.0,0.0,0.0,0.0,0.0,0.0,0.0,0.0,0.0,0.0,0.0,0.0,0.0,0.0,0.0,0.0,0.0,0.0,0.0,0.0,0.0,0.0,0.0,0.0,0.0,0.0,0.0,0.0,0.0,0.0,0.0,0.0,0.0,0.0,0.0,0.0,0.0,0.0,0.0,0.0,0.0,0.0,0.0,0.0,0.0,0.0,0.0,0.0,0.0,0.0,0.0,0.0,0.0,0.0,0.0,0.0,0.0,0.0,0.0,0.0,0.0,0.0,0.0,0.0,0.0,0.0,0.0,0.0,0.0,0.0,0.0,0.0,0.0,0.0,0.0,0.0,0.0,0.0,0.0,0.0,0.0,0.0,0.0,0.0,0.0,0.0,0.0,0.0,0.0,0.0,0.0,0.0,0.0,0.0,0.0,0.0,0.0,0.0,0.0,0.0,0.0,0.0,0.0,0.0,0.0,0.0,0.0,0.0,0.0,0.0,0.0,0.0,0.0,0.0,0.0,0.0,0.0,0.0,0.0,0.0,0.0,0.0,0.0,0.0,0.0,0.0,0.0,0.0,0.0,0.0,0.0,0.0,0.0,0.0,0.0,0.0,0.0,0.0,0.0,0.0,0.0,0.0,0.0,0.0,0.0,0.0,0.0,0.0,0.0,0.0,0.0,0.0,0.0,0.0,0.0,0.0,0.0,0.0,0.0,0.0,0.0,0.0,0.0,0.0,0.0,0.0,0.0,0.0,0.0,0.0,0.0,0.0,0.0,0.0,0.0,0.0,0.0,0.0,0.0,0.0,0.0,0.0,0.0,0.0,0.0,0.0,0.0,0.0,0.0,0.0,0.0,0.0,0.0,0.0,0.0,0.0,0.0,0.0,0.0,0.0,0.0,0.0,0.0,0.0,0.0,0.0,0.0,0.0,0.0,0.0,0.0,0.0,0.0,0.0,0.0,0.0,0.0,0.0,0.0,0.0,0.0,0.0,0.0,0.0,0.0,0.0,0.0,0.0,0.0,0.0,0.0,0.0,0.0,0.0,0.0,0.0,0.0,0.0,0.0,0.0,0.0,0.0,0.0,0.0,0.0,0.0,0.0,0.0,0.0,0.0,0.0,0.0,0.0,0.0,0.0,0.0,0.0,0.0,0.0,0.0,0.0,0.0,0.0,0.0,0.0,0.0,0.0,0.0,0.0,0.0,0.0,0.0,0.0,0.0,0.0,0.0,0.0,0.0,0.0,0.0,0.0,0.0,0.0,0.0,0.0,0.0,0.0,0.0,0.0,0.0,0.0,0.0,0.0,0.0,0.0,0.0,0.0,0.0,0.0,0.0,0.0,0.0,0.0,0.0,0.0,0.0,0.0,0.0,0.0,0.0,0.0,0.0,0.0,0.0,0.0,0.0,0.0,0.0,0.0,0.0,0.0,0.0,0.0,0.0,0.0,0.0,0.0,0.0,0.0,0.0,0.0,0.0,0.0,0.0,0.0,0.0,0.0,0.0,0.0,0.0,0.0,0.0,0.0,0.0,0.0,0.0,0.0,0.0,0.0,0.0,0.0,0.0,0.0,0.0,0.0,0.0,0.0,0.0,0.0,0.0,0.0,0.0,0.0,0.0,0.0,0.0,0.0,0.0,0.0,0.0,0.0,0.0,0.0,0.0,0.0,0.0,0.0,0.0,0.0,0.0,0.0,0.0,0.0,0.0,0.0,0.0,0.0,0.0,0.0,0.0,0.0,0.0,0.0,0.0,0.0,0.0,0.0,0.0,0.0,0.0,0.0,0.0,0.0,0.0,0.0,0.0,0.0,0.0,0.0,0.0,0.0,0.0,0.0,0.0,0.0,0.0,0.0,0.0,0.0,0.0,0.0,0.0,0.0,0.0,0.0,0.0,0.0,0.0,0.0,0.0,0.0,0.0,0.0,0.0,0.0,0.0,0.0,0.0,0.0,0.0,0.0,0.0,0.0,0.0,0.0,0.0,0.0,0.0,0.0,0.0,0.0,0.0,0.0,0.0,0.0,0.0,0.0,0.0,0.0,0.0,0.0,0.0,0.0,0.0,0.0,0.0,0.0,0.0,0.0,0.0,0.0,0.0,0.0,0.0,0.0,0.0,0.0,0.0,0.0,0.0,0.0,0.0,0.0,0.0,0.0,0.0,0.0,0.0,0.0,0.0,0.0,0.0,0.0,0.0,0.0,0.0,0.0,0.0,0.0,0.0,0.0,0.0,0.0,0.0,0.0,0.0,0.0,0.0,0.0,0.0,0.0,0.0,0.0,0.0,0.0,0.0,0.0,0.0,0.0,0.0,0.0,0.0,0.0,0.0,0.0,0.0,0.0,0.0,0.0,0.0,0.0,0.0,0.0,0.0,0.0,0.0,0.0,0.0,0.0,0.0,0.0,0.0,0.0,0.0,0.0,0.0,0.0,0.0,0.0,0.0,0.0,0.0,0.0,0.0,0.0,0.0,0.0,0.0,0.0,0.0,0.0,0.0,0.0,0.0,0.0,0.0,0.0,0.0,0.0,0.0,0.0,0.0,0.0,0.0,0.0,0.0,0.0,0.0,0.0,0.0,0.0,0.0,0.0,0.0,0.0,0.0,0.0,0.0,0.0,0.0,-3.5996,0.0,0.0,0.0,0.0,0.0,0.0,0.0,0.0,0.0,0.0,0.0,0.0,0.0,0.0,0.0,0.0,0.0,0.0,0.0,0.0,0.0,0.0,0.0,0.0,0.0,0.0,0.0,0.0,0.0,0.0,0.0,0.0,0.0,0.0,0.0,0.0,0.0,0.0,0.0,0.0,0.0,0.0,0.0,0.0,0.0,0.0,0.0,0.0,0.0,0.0,0.0,0.0,0.0,0.0,0.0,0.0,0.0,0.0,0.0,0.0,0.0,0.0,0.0,0.0,0.0,0.0,0.0,0.0,0.0,0.0,0.0,0.0,0.0,0.0,0.0,0.0,0.0,0.0,0.0,0.0,0.0,0.0,0.0,0.0,0.0,0.0,0.0,0.0,0.0,0.0,0.0,0.0,0.0,0.0,0.0,0.0,0.0,0.0,0.0,0.0,0.0,0.0,0.0,0.0,0.0,0.0,0.0,0.0,0.0,0.0,0.0,0.0,0.0,0.0,0.0,0.0,-3.5996,0.0,0.0,0.0,0.0,0.0,0.0,0.0,0.0,0.0,0.0,0.0,0.0,0.0,0.0,0.0,0.0,0.0,0.0,0.0,0.0,0.0,0.0,0.0,0.0,0.0,0.0,0.0,0.0,0.0,0.0,0.0,0.0,0.0,0.0,0.0,0.0,0.0,0.0,0.0,0.0,0.0,0.0,0.0,0.0,0.0,0.0,0.0,0.0,0.0,0.0,0.0,0.0,0.0,0.0,0.0,0.0,0.0,0.0,0.0,0.0,0.0,0.0,0.0,0.0,0.0,0.0,0.0,0.0,0.0,0.0,0.0,0.0,0.0,0.0,0.0,0.0,0.0,0.0,0.0,0.0,0.0,0.0,0.0,0.0,0.0,0.0,0.0,0.0,0.0,0.0,0.0,0.0,0.0,0.0,0.0,0.0,0.0,0.0,0.0,0.0,0.0,0.0,0.0,0.0,0.0,0.0,0.0,0.0,-3.5996,-3.5996,-3.5996,-3.5996,-3.5996,-3.5996,-3.5996,-3.5996,-3.5996,-3.5987,0.0,0.0,0.0,0.0,0.0,0.0,0.0,0.0,0.0,0.0,0.0,0.0,0.0,0.0,0.0,0.0,0.0,0.0,0.0,0.0,0.0,0.0,0.0,0.0,0.0,0.0,0.0,0.0,0.0,0.0,0.0,0.0,0.0,0.0,0.0,0.0,0.0,0.0,-3.5996,-3.5996,-3.5996,-3.5996,0.0,0.0,0.0,0.0,0.0,0.0,0.0,0.0,0.0,0.0,0.0,0.0,0.0,0.0,0.0,0.0,0.0,0.0,0.0,0.0,0.0,0.0,0.0,0.0,0.0,0.0,0.0,0.0,0.0,0.0,0.0,0.0,0.0,0.0,0.0,0.0,0.0,0.0,0.0,0.0,0.0,0.0,0.0,0.0,-3.5687,-3.5706,0.0,0.0,0.0,0.0,0.0,0.0,0.0,0.0,0.0,0.0,0.0,0.0,0.0,-3.5996,-3.5996,-3.5996,-3.5996,-3.5996,-3.5996,-3.5996,-3.5996,-3.5996,-3.5996,-3.5996,-3.5996,0.0,-3.5995,-3.5937,0.0,0.0,0.0,0.0,0.0,0.0,0.0,0.0,0.0,0.0,0.0,0.0,0.0,0.0,0.0,0.0,0.0,0.0,0.0,0.0,0.0,0.0,0.0,0.0,0.0,0.0,0.0,0.0,0.0,0.0,0.0,0.0,0.0,0.0,0.0,0.0,-3.5996,-3.5996,-3.5996,-3.5996,-3.5996,-3.5996,-3.5996,-3.5996,-3.5996,-3.5996,0.0,0.0,0.0,0.0,0.0,0.0,0.0,0.0,0.0,0.0,0.0,0.0,0.0,0.0,0.0,0.0,0.0,0.0,0.0,0.0,0.0,0.0,0.0,0.0,0.0,0.0,0.0,0.0,0.0,0.0,0.0,0.0,0.0,0.0,0.0,0.0,0.0,0.0,0.0,-3.578,-3.5874,-3.5874,-3.5929,-3.5969,0.0,0.0,0.0,0.0,0.0,0.0,0.0,0.0,0.0,-3.5996,-3.5996,-3.5996,-3.5996,-3.5996,-3.5996,-3.5996,-3.5996,-3.5996,-3.5996,-3.5996,-3.5996,-3.5996,-3.5967,-3.5939,-3.5943,-3.5905,-3.5875,-3.5826,0.0,0.0,0.0,0.0,-3.5545,-3.5493,0.0,0.0,0.0,0.0,0.0,0.0,0.0,0.0,0.0,0.0,0.0,0.0,0.0,0.0,0.0,-3.5996,0.0,0.0,0.0,0.0,0.0,0.0,0.0,0.0,0.0,0.0,0.0,0.0,-3.5996,-3.5996,-3.5996,-3.5996,-3.5996,-3.5996,-3.5996,-3.5996,-3.5996,-3.5996,-3.5996,0.0,0.0,0.0,0.0,0.0,0.0,0.0,0.0,0.0,0.0,0.0,0.0,0.0,0.0,0.0,0.0,0.0,0.0,0.0,0.0,0.0,0.0,0.0,0.0,0.0,0.0,0.0,0.0,0.0,0.0,0.0,0.0,0.0,0.0,0.0,0.0,0.0,0.0,-3.5906,-3.5996,-3.5996,-3.5996,-3.5996,0.0,0.0,0.0,0.0,0.0,0.0,-3.5996,-3.5996,-3.5996,-3.5996,-3.5996,-3.5996,-3.5996,-3.5996,-3.5996,-3.5996,-3.5996,-3.5996,-3.5996,-3.5996,-3.6108,-3.6274,-3.6234,-3.632,-3.6469,-3.6007,-3.5776,-3.5699,-3.5622,-3.5565,-3.5526,-3.5526,-3.5493,-3.5493,0.0,0.0,0.0,0.0,0.0,0.0,0.0,0.0,0.0,0.0,0.0,0.0,0.0,0.0,-3.5996,-3.5996,-3.5996,-3.5996,0.0,0.0,0.0,0.0,0.0,0.0,0.0,0.0,0.0,-3.5996,-3.5996,-3.5996,-3.5996,-3.5996,-3.5996,-3.5996,-3.5996,-3.5996,-3.5996,-3.5996,-3.5996,-3.5996,0.0,0.0,0.0,0.0,0.0,0.0,0.0,0.0,0.0,0.0,0.0,0.0,0.0,0.0,0.0,0.0,0.0,0.0,0.0,0.0,0.0,0.0,0.0,0.0,0.0,0.0,0.0,0.0,0.0,0.0,0.0,0.0,0.0,0.0,0.0,0.0,0.0,0.0,0.0,-3.5996,-3.5996,0.0,0.0,0.0,0.0,-3.5996,-3.5996,-3.5996,-3.5996,-3.5996,-3.5996,-3.5996,-3.5996,-3.5996,-3.5996,-3.5996,-3.5996,-3.5996,-3.5996,-3.5996,-3.5996,-3.5996,-3.6381,-3.704,-3.7049,-3.7467,-3.806,-3.6315,-3.5661,-3.5699,-3.5565,-3.5545,-3.5603,-3.5526,-3.5493,-3.5493,0.0,0.0,0.0,0.0,0.0,0.0,0.0,0.0,0.0,0.0,0.0,0.0,0.0,-3.5996,-3.5996,-3.5996,-3.5996,-3.5996,-3.5996,0.0,0.0,0.0,0.0,0.0,0.0,0.0,-3.5996,-3.5996,-3.5996,-3.5996,-3.5996,-3.5996,-3.5996,-3.5996,-3.5996,-3.5996,-3.5996,-3.5996,-3.5996,-3.5996,-3.5996,-3.5996,0.0,0.0,0.0,0.0,0.0,0.0,0.0,0.0,0.0,0.0,0.0,0.0,0.0,0.0,0.0,0.0,0.0,0.0,0.0,0.0,0.0,0.0,0.0,0.0,0.0,0.0,0.0,0.0,0.0,0.0,0.0,0.0,0.0,0.0,0.0,0.0,0.0,-3.5996,-3.5996,0.0,-3.5996,-3.5996,-3.5996,-3.5996,-3.5996,-3.5996,-3.5996,-3.5996,-3.5996,-3.5996,-3.5996,-3.5996,-3.5996,-3.5996,-3.6289,-3.6836,-3.6836,-3.7093,-3.7531,-3.7531,-3.7656,-3.7868,-3.7775,-3.7901,-3.8123,-3.743,-3.718,-3.7243,-3.7142,-3.7123,-3.7142,-3.7123,-3.7103,-3.7103,0.0,0.0,0.0,0.0,0.0,0.0,0.0,0.0,0.0,0.0,0.0,-3.5996,-3.5996,-3.5996,-3.5996,-3.5996,-3.5996,-3.5996,-3.5996,0.0,0.0,0.0,0.0,0.0,0.0,-3.5996,-3.5996,-3.5996,-3.5996,-3.5996,-3.5996,-3.5996,-3.5996,-3.5996,-3.5996,-3.5996,-3.5996,-3.5996,-3.5996,-3.5996,-3.5996,-3.5996,-3.5996,0.0,0.0,0.0,0.0,0.0,0.0,0.0,0.0,0.0,0.0,0.0,0.0,0.0,0.0,0.0,0.0,0.0,0.0,0.0,0.0,0.0,0.0,0.0,0.0,0.0,0.0,0.0,0.0,0.0,0.0,0.0,0.0,0.0,0.0,0.0,-3.5996,-3.5996,-3.5996,-3.5996,-3.5996,-3.5996,-3.5996,-3.5996,-3.5996,-3.5996,-3.5996,-3.5996,-3.5996,-3.5996,-3.6289,-3.6417,-3.6367,-3.666,-3.7093,-3.7636,-3.7636,-3.7897,-3.8376,-3.8373,-3.8477,-3.8664,-3.8574,-3.8685,-3.8911,-3.8854,-3.8873,-3.8854,-3.8238,-3.8007,-3.8007,-3.8007,-3.8007,-3.8007,0.0,0.0,0.0,0.0,0.0,0.0,0.0,0.0,0.0,0.0,-3.5996,-3.5996,-3.5996,-3.5996,-3.5996,-3.5996,-3.5996,-3.5996,-3.5996,-3.5996,0.0,0.0,0.0,0.0,-3.5996,-3.5996,-3.5996,-3.5996,-3.5996,-3.5996,-3.5996,-3.5996,-3.5996,-3.5996,-3.5996,-3.5996,-3.5996,-3.5996,-3.5996,-3.5996,-3.5996,-3.5996,-3.5996,0.0,0.0,0.0,0.0,0.0,0.0,0.0,0.0,0.0,0.0,0.0,0.0,0.0,0.0,0.0,0.0,0.0,0.0,0.0,0.0,0.0,0.0,0.0,0.0,0.0,0.0,0.0,0.0,0.0,0.0,0.0,0.0,0.0,-3.6289,-3.6035,-3.6035,-3.5996,-3.5996,-3.5996,-3.5996,-3.5996,-3.5996,-3.5996,-3.5996,-3.5996,-3.5996,-3.6035,-3.6035,-3.6034,-3.6874,-3.7269,-3.7145,-3.7967,-3.8382,-3.8338,-3.8338,-3.8358,-3.8369,-3.8369,-3.877,-3.9419,-3.9419,-3.9838,-4.0489,-4.0489,-4.0489,-4.0335,-3.87,-3.8084,-3.8084,-3.8084,-3.8084,-3.8084,0.0,0.0,0.0,0.0,0.0,0.0,0.0,0.0,0.0,0.0,-3.5996,-3.5996,-3.5996,-3.5996,-3.5996,-3.5996,-3.5996,-3.5996,-3.5996,0.0,0.0,0.0,0.0,0.0,-3.5996,-3.5996,-3.5996,-3.5996,-3.5996,-3.5996,-3.5996,-3.5996,-3.5996,-3.5996,-3.5996,-3.5996,-3.5996,-3.5996,-3.5996,-3.5996,-3.5996,-3.5996,-3.5996,0.0,0.0,0.0,0.0,0.0,0.0,0.0,0.0,0.0,0.0,0.0,0.0,0.0,0.0,0.0,0.0,0.0,0.0,0.0,0.0,0.0,0.0,0.0,0.0,0.0,0.0,0.0,0.0,0.0,0.0,0.0,0.0,-3.8203,-3.7109,-3.6934,-3.6719,-3.6074,-3.5996,-3.5996,-3.5996,-3.5996,-3.5996,-3.5996,-3.5996,-3.5996,-3.5996,-3.6601,-3.6898,-3.6809,-3.7641,-3.8061,-3.7967,-3.8207,-3.8642,-3.9251,-3.9251,-3.9521,-4.0036,-4.0034,-4.0104,-4.02,-4.02,-4.0315,-4.0489,-4.0489,-4.0489,-4.045,-3.9988,-3.9796,-3.9796,-3.9796,-3.9796,-3.9796,0.0,0.0,0.0,0.0,0.0,0.0,0.0,0.0,0.0,0.0,-3.5996,-3.5996,-3.5996,-3.5996,-3.5996,-3.5996,-3.5996,-3.5996,-3.5996,0.0,0.0,0.0,0.0,-3.5996,-3.5996,-3.5996,-3.5996,-3.5996,-3.5996,-3.5996,-3.5996,-3.5996,-3.5996,-3.5996,-3.5996,-3.5996,-3.5996,-3.5996,-3.5996,-3.5996,-3.5996,-3.5996,-3.5996,-3.5996,-3.5996,-3.5996,-3.5996,-3.5996,-3.5996,-3.5996,0.0,0.0,0.0,0.0,0.0,0.0,0.0,0.0,0.0,0.0,0.0,0.0,0.0,0.0,0.0,0.0,0.0,0.0,0.0,0.0,0.0,0.0,0.0,0.0,-4.0019,-3.9375,-3.8516,-3.8066,-3.7656,-3.7148,-3.709,-3.709,-3.709,-3.709,-3.709,-3.709,-3.709,-3.706,-3.7021,-3.7501,-3.77,-3.7622,-3.844,-3.8868,-3.8748,-3.9119,-3.9531,-3.9973,-3.9973,-4.02,-4.062,-4.062,-4.0581,-4.0489,-4.0489,-4.0489,-4.0489,-4.0489,-4.0489,0.0,0.0,0.0,0.0,0.0,-4.0489,-4.0546,0.0,0.0,0.0,0.0,0.0,0.0,0.0,0.0,0.0,0.0,0.0,-3.5996,-3.5996,-3.5996,-3.5996,-3.5996,-3.5996,-3.5996,0.0,0.0,0.0,-3.5996,-3.5996,-3.5996,-3.5996,-3.5996,-3.5996,-3.5996,-3.5996,-3.5996,-3.5996,-3.5996,-3.5996,-3.5996,-3.5996,-3.5996,-3.5996,-3.5996,-3.5996,-3.5996,-3.5996,-3.5996,-3.5996,-3.5996,-3.5996,-3.5996,-3.5996,-3.5996,-3.5996,-3.5996,0.0,0.0,0.0,0.0,0.0,0.0,0.0,0.0,0.0,0.0,0.0,0.0,0.0,0.0,0.0,0.0,0.0,0.0,0.0,0.0,0.0,0.0,0.0,0.0,-4.1191,-4.0937,-4.0156,-3.9375,-3.8828,-3.8613,-3.8594,-3.8594,-3.8594,-3.8594,-3.8593,-3.8586,-3.8584,-3.8511,-3.8397,0.0,0.0,0.0,0.0,-3.9665,-3.9531,-4.0296,-4.062,-4.0489,-4.0489,-4.0489,-4.0489,-4.0489,-4.0489,-4.0489,-4.0489,-4.0489,-4.0489,-4.0489,-4.0546,-4.0642,-4.0527,-4.0546,-4.0642,-4.0642,-4.07,-4.0893,0.0,0.0,0.0,0.0,0.0,0.0,0.0,0.0,0.0,-3.5996,-3.5996,-3.5996,-3.5996,-3.5996,-3.5996,-3.5996,-3.5996,-3.5996,0.0,0.0,-3.5996,-3.5996,-3.5996,-3.5996,-3.5996,-3.5996,-3.5996,-3.5996,-3.5996,-3.5996,-3.5996,-3.5996,-3.5996,-3.5996,-3.5996,-3.5996,-3.5996,-3.5996,-3.5996,-3.5996,-3.5996,-3.5996,-3.5996,-3.5996,-3.5996,-3.5996,-3.5996,-3.5996,-3.5996,-3.5996,-3.5996,-3.6113,-3.6836,0.0,0.0,0.0,0.0,0.0,0.0,0.0,0.0,0.0,0.0,0.0,0.0,0.0,0.0,0.0,0.0,0.0,0.0,0.0,0.0,-4.1191,-4.1191,-4.1133,-4.0976,-4.0801,-4.0176,-3.8769,-3.8594,-3.8594,-3.8594,-3.8594,-3.8561,-3.845,-3.844,-3.8404,-3.8307,-3.8981,-3.9296,-3.9177,-4.0019,-4.0412,-4.0296,-4.045,-4.0543,-4.0489,0.0,0.0,-4.0489,-4.0489,-4.0489,-4.0489,-4.0489,-4.0489,-4.0489,-4.0489,-4.0912,-4.1489,-4.0758,-4.0931,-4.1546,-4.1546,-4.1989,-4.2624,0.0,0.0,0.0,0.0,0.0,0.0,0.0,0.0,0.0,0.0,-3.5996,-3.5996,-3.5996,-3.5996,-3.5996,-3.5996,-3.5996,0.0,0.0,-3.5996,-3.5996,-3.5996,-3.5996,-3.5996,-3.5996,-3.5996,-3.5996,-3.5996,-3.5996,-3.5996,-3.5996,-3.5996,-3.5996,-3.5996,-3.5996,-3.5996,-3.5996,-3.5996,-3.5996,-3.5996,-3.5963,-3.5956,-3.5957,-3.5987,-3.5996,-3.5996,-3.5996,-3.5971,-3.5956,-3.5956,-3.5914,-3.5923,-3.6352,-3.6847,-3.75,0.0,0.0,0.0,0.0,0.0,0.0,0.0,0.0,0.0,0.0,0.0,0.0,0.0,0.0,-4.1191,0.0,0.0,-4.1191,-4.1191,-4.1191,-4.1191,-4.1191,-4.1191,-4.0879,-4.0,-3.9902,-3.9871,-3.9804,-3.9801,-3.9751,-3.9619,-3.9595,-3.9567,-3.9499,-3.9904,-4.0104,-3.9935,-4.0373,-4.0581,-4.0489,-4.0489,-4.0489,-4.0489,-4.0489,-4.0719,-4.1143,-4.1143,-4.1393,-4.1797,-4.1797,-4.1797,-4.1797,-4.1797,-4.2066,-4.2412,-4.197,-4.2066,-4.245,-4.245,-4.2739,-4.3162,0.0,0.0,0.0,0.0,0.0,0.0,0.0,0.0,0.0,0.0,-3.5996,-3.5996,-3.5996,-3.5996,-3.5996,0.0,0.0,0.0,0.0,-3.5996,-3.5996,-3.5996,-3.5996,-3.5996,-3.5996,-3.5996,-3.5996,-3.5996,-3.5996,-3.5996,-3.5996,-3.5996,-3.5996,-3.5996,-3.5996,-3.5993,-3.5974,-3.5974,-3.5962,-3.5947,-3.5873,-3.5862,-3.5862,-3.5928,-3.5945,-3.5932,-3.5932,-3.5905,-3.5849,-3.5861,-3.5778,-3.5702,-3.5702,-3.6259,-3.7092,-3.8096,-3.8959,0.0,0.0,0.0,0.0,0.0,0.0,0.0,0.0,0.0,-4.1191,-4.1191,-4.1191,-4.1191,-4.1191,-4.1191,-4.1191,-4.1191,-4.1191,-4.119,-4.1153,-4.1169,-4.1155,-4.1126,-4.1158,-4.113,-4.1007,-4.0966,-4.0905,-4.0801,-4.0791,-4.0754,-4.0677,-4.0658,-4.062,-4.0489,-4.0662,-4.0739,-4.0739,-4.0912,-4.1008,-4.1008,-4.1008,-4.1373,-4.2047,-4.2047,-4.245,-4.3104,-4.3104,-4.3104,-4.3104,-4.3278,-4.3335,-4.3355,-4.3528,-4.3585,-4.3566,-4.3393,-4.3431,-4.3682,0.0,0.0,0.0,0.0,0.0,0.0,0.0,0.0,0.0,0.0,0.0,0.0,0.0,0.0,0.0,0.0,0.0,0.0,-3.5996,-3.5996,-3.5996,-3.5996,-3.5996,-3.5996,-3.5996,-3.5996,-3.5996,-3.5996,-3.5996,-3.5996,-3.5996,-3.5996,-3.5996,-3.5996,-3.5996,-3.5973,-3.5912,-3.5912,-3.5834,-3.5729,-3.5728,-3.5718,-3.5732,-3.5733,-3.5728,-3.5735,-3.5735,-3.573,-3.5721,-3.5726,-3.5707,-3.5695,-3.5695,-3.5791,-3.6203,-3.7833,0.0,-3.8831,-4.0402,-4.0831,-4.0831,-4.0831,-4.0925,-4.1016,0.0,0.0,-4.1191,-4.1191,-4.1191,-4.1191,-4.1191,-4.1191,-4.1191,-4.1191,-4.1191,-4.1166,-4.1035,-4.1021,-4.097,-4.0848,-4.0942,-4.1031,-4.1001,-4.0889,-4.0789,-4.0718,-4.0712,-4.0658,-4.0543,-4.0508,-4.0508,-4.0489,-4.1258,-4.1662,-4.1662,-4.2412,-4.2816,-4.2816,-4.2816,-4.2854,-4.2951,-4.2951,-4.3008,-4.3104,-4.3104,-4.3104,-4.3162,-4.3874,-4.4162,-4.4239,-4.5009,-4.5316,-4.522,-4.4451,-4.4662,-4.5316,0.0,0.0,0.0,0.0,0.0,0.0,0.0,0.0,0.0,0.0,0.0,0.0,0.0,0.0,0.0,0.0,0.0,0.0,-3.5996,-3.5996,-3.5996,-3.5996,-3.5996,-3.5996,-3.5996,-3.5996,-3.5996,-3.5996,-3.5996,-3.5996,-3.5996,-3.5996,-3.5971,-3.5943,-3.5943,-3.5879,-3.5766,-3.5791,-3.5753,-3.5695,-3.5657,-3.5635,-3.5641,-3.5603,-3.5579,-3.5599,-3.5676,-3.5676,0.0,0.0,-3.5622,-3.5584,-3.5584,-3.5968,-3.665,-3.7873,-3.8632,0.0,-4.0493,-4.0803,0.0,0.0,-4.0848,-4.0882,-4.0886,-4.0925,-4.0964,-4.0964,-4.0964,-4.0964,-4.0964,-4.0964,-4.0964,0.0,-4.0964,-4.0961,-4.0897,-4.088,-4.0853,-4.081,-4.0819,-4.0831,-4.0831,-4.0773,-4.0696,-4.06,-4.0581,-4.0562,-4.0489,-4.0969,-4.1258,-4.1258,-4.2104,-4.2566,-4.2566,-4.2912,-4.3104,-4.3104,-4.3104,-4.3355,-4.3797,-4.3797,-4.4085,-4.4547,-4.4547,-4.4547,-4.4566,-4.4913,-4.5047,-4.5086,-4.5451,-4.5586,-4.5547,-4.5182,-4.5278,-4.5586,0.0,0.0,0.0,0.0,0.0,0.0,0.0,0.0,0.0,0.0,0.0,0.0,0.0,0.0,0.0,0.0,0.0,0.0,0.0,-3.5996,-3.5996,-3.5996,-3.5979,-3.5974,-3.5974,-3.5971,-3.5976,-3.5976,-3.5996,-3.5991,-3.5974,-3.5974,-3.5924,-3.584,-3.5849,-3.5782,-3.5668,-3.5669,-3.5661,-3.5641,-3.5603,-3.5584,-3.5584,-3.5526,-3.5493,-3.5526,-3.5622,-3.5622,0.0,0.0,-3.5545,-3.5493,-3.5493,-3.5974,-3.6666,-3.7541,-3.8604,-3.9685,-4.0504,0.0,0.0,-4.0716,-4.0754,-4.0771,-4.0779,-4.0781,-4.0801,-4.0801,-4.0801,-4.0801,-4.0801,-4.0801,-4.0801,-4.0801,-4.0801,-4.0781,-4.0781,-4.0771,-4.0754,-4.0716,-4.0677,-4.0639,-4.0639,-4.0639,-4.06,-4.0508,-4.0489,-4.0585,-4.0854,-4.147,-4.1912,-4.2162,-4.2989,-4.3431,-4.3431,-4.3662,-4.3797,-4.3797,-4.3797,-4.4085,-4.4662,-4.4662,-4.4989,-4.5586,-4.5586,-4.5586,-4.5586,-4.5586,-4.5586,-4.5586,-4.5586,-4.5586,-4.5586,-4.5586,-4.5586,-4.5586,0.0,0.0,0.0,0.0,0.0,0.0,0.0,0.0,0.0,0.0,0.0,0.0,0.0,0.0,0.0,0.0,0.0,0.0,0.0,-3.5996,-3.5996,-3.5996,-3.5937,-3.5913,-3.5913,-3.5895,-3.5898,-3.5898,-3.5976,-3.5973,-3.5913,-3.5913,-3.5839,-3.5709,-3.5717,-3.5661,-3.5597,-3.5603,-3.5584,-3.5526,-3.5493,-3.5493,-3.5493,-3.5493,-3.5493,-3.5493,-3.5493,0.0,0.0,0.0,-3.5493,-3.5493,-3.5493,-3.5512,0.0,-3.6507,-3.7969,-3.9469,0.0,0.0,-4.0508,-4.0508,-4.062,-4.0696,-4.0712,-4.075,-4.0789,-4.0789,-4.0789,-4.0789,-4.0789,-4.0789,-4.0789,-4.0789,-4.0789,-4.077,-4.0712,-4.0696,-4.0658,-4.0508,-4.0508,-4.0508,0.0,-4.0508,-4.0489,-4.0489,-4.0489,-4.0873,-4.172,-4.1797,-4.22,-4.3028,-4.3835,-4.4259,-4.4259,-4.5086,-4.5509,-4.5509,-4.5509,-4.5528,-4.5547,-4.5547,-4.5566,-4.5586,-4.5586,-4.5586,-4.5586,-4.5586,-4.5586,-4.5586,-4.5586,-4.5586,-4.5586,-4.5586,-4.5586,-4.5586,0.0,0.0,0.0,0.0,0.0,0.0,0.0,0.0,0.0,0.0,0.0,0.0,0.0,0.0,0.0,0.0,0.0,0.0,0.0,-3.5996,-3.5996,-3.5996,-3.5948,-3.5892,-3.5892,-3.5822,-3.5772,-3.5763,-3.5782,-3.5788,-3.5766,-3.5765,-3.5727,-3.5631,-3.5637,-3.5603,-3.5545,-3.5545,-3.5526,-3.5493,-3.5493,-3.5493,-3.5493,-3.5493,-3.5493,-3.5493,0.0,0.0,0.0,0.0,0.0,-3.5493,-3.5493,-3.5872,-3.6584,-3.8007,-3.8834,-3.9469,-4.0277,0.0,-4.0489,-4.0489,-4.0543,-4.0581,-4.0581,-4.0581,-4.06,-4.06,-4.06,-4.06,-4.06,-4.06,-4.06,-4.06,-4.06,-4.06,-4.0581,-4.0581,-4.0562,-4.0508,-4.0489,0.0,0.0,0.0,0.0,-4.1316,-4.1354,-4.1739,-4.2624,-4.3162,-4.3585,-4.3893,-4.472,-4.5163,-4.5163,-4.5451,-4.5586,-4.5586,-4.5586,-4.5586,-4.5586,-4.5586,-4.5586,-4.5586,-4.5586,-4.5586,-4.5586,-4.5586,-4.5586,-4.5586,-4.5586,-4.5586,-4.5586,-4.5586,-4.5586,-4.5586,0.0,0.0,0.0,0.0,0.0,0.0,0.0,0.0,0.0,0.0,0.0,0.0,0.0,0.0,0.0,0.0,0.0,0.0,0.0,0.0,-3.5996,-3.5996,-3.5884,-3.5828,-3.5815,-3.5718,-3.5649,-3.5669,-3.5688,-3.5688,-3.566,-3.5669,-3.5641,-3.5565,-3.5565,-3.5545,-3.5493,-3.5493,-3.5493,-3.5493,-3.5493,-3.5493,-3.5493,-3.5493,-3.5493,0.0,0.0,0.0,0.0,0.0,0.0,-3.5493,-3.5493,-3.5853,-3.6546,-3.7969,-3.8584,-3.9008,-3.9835,-4.0277,-4.0489,-4.0489,-4.0489,-4.0489,-4.0489,-4.0489,-4.0489,-4.0489,-4.0489,-4.0489,-4.0489,-4.0489,-4.0489,-4.0489,-4.0489,-4.0489,-4.0489,-4.0489,-4.0489,-4.0489,-4.0489,-4.0489,0.0,0.0,0.0,-4.1758,-4.2085,-4.2624,-4.347,-4.4028,-4.4432,-4.4739,-4.5297,-4.5586,-4.5586,-4.5586,-4.5586,-4.5586,-4.5586,-4.5586,-4.5586,-4.5586,-4.5586,-4.5586,-4.5586,-4.5586,-4.5586,-4.5586,-4.5586,-4.5586,-4.5586,-4.5586,-4.5586,-4.5586,-4.5586,-4.5586,0.0,0.0,0.0,0.0,0.0,0.0,0.0,0.0,0.0,0.0,0.0,0.0,0.0,0.0,0.0,0.0,0.0,0.0,0.0,0.0,0.0,-3.5996,-3.5806,-3.5706,-3.5713,-3.5641,-3.5603,-3.5603,-3.5661,-3.5661,-3.5603,-3.5603,-3.5565,-3.5493,-3.5493,-3.5493,-3.5493,-3.5493,-3.5493,-3.5493,-3.5493,-3.5493,-3.5493,-3.5493,0.0,0.0,0.0,0.0,0.0,0.0,0.0,0.0,0.0,-3.5493,-3.5661,-3.6469,-3.7315,-3.818,-3.9065,-3.9892,-4.0489,-4.0489,-4.0489,-4.0489,-4.0489,-4.0489,-4.0489,-4.0489,-4.0489,-4.0489,0.0,0.0,-4.0489,-4.0489,-4.0489,-4.0489,-4.0489,-4.0489,-4.0489,0.0,0.0,0.0,0.0,0.0,0.0,-4.1931,0.0,-4.3508,-4.4316,-4.4374,-4.4739,-4.5566,-4.5586,-4.5586,-4.5586,-4.5586,-4.5586,-4.5586,-4.5586,-4.5586,-4.5586,-4.5586,-4.5586,-4.5586,-4.5586,-4.5586,-4.5586,-4.5586,-4.5586,-4.5586,-4.5586,-4.5586,-4.5586,-4.5586,-4.5586,-4.5586,0.0,0.0,0.0,0.0,0.0,0.0,0.0,0.0,0.0,0.0,0.0,0.0,0.0,0.0,0.0,0.0,0.0,0.0,0.0,0.0,0.0,0.0,0.0,0.0,0.0,0.0,0.0,0.0,0.0,-3.5545,-3.5545,-3.5545,-3.5526,-3.5493,-3.5493,-3.5493,-3.5493,-3.5493,-3.5493,-3.5493,0.0,-3.5493,-3.5493,0.0,0.0,0.0,0.0,0.0,0.0,0.0,0.0,0.0,0.0,-3.5493,-3.5661,-3.6469,-3.7315,-3.818,-3.9065,-3.9892,-4.0489,-4.0489,-4.0489,-4.0489,-4.0489,-4.0489,-4.0489,-4.0489,-4.0489,-4.0489,0.0,0.0,0.0,-4.0489,-4.0489,0.0,-4.0489,-4.0489,0.0,-4.0489,0.0,-4.0758,-4.1412,-4.2258,0.0,0.0,-4.3874,-4.4374,-4.522,-4.5259,-4.5355,-4.5586,-4.5586,-4.5586,-4.5586,-4.5586,-4.5586,-4.5586,-4.5586,-4.5586,-4.5586,-4.5586,-4.5586,-4.5586,-4.5586,-4.5586,-4.5586,-4.5586,-4.5586,-4.5586,-4.5586,-4.5586,-4.5586,-4.5586,-4.5586,-4.5586,0.0,0.0,0.0,0.0,0.0,0.0,0.0,0.0,0.0,0.0,0.0,0.0,0.0,0.0,0.0,0.0,0.0,0.0,0.0,0.0,0.0,0.0,0.0,0.0,0.0,0.0,0.0,0.0,0.0,0.0,0.0,-3.5493,-3.5493,-3.5493,-3.5493,-3.5493,-3.5493,0.0,0.0,0.0,0.0,0.0,0.0,0.0,0.0,0.0,0.0,0.0,0.0,0.0,0.0,-3.5493,-3.5493,-3.5493,-3.5603,-3.6045,0.0,-3.7623,-3.8488,-3.9335,-4.0046,-4.0412,-4.0489,-4.0489,-4.0489,-4.0489,-4.0489,-4.0489,-4.0489,0.0,0.0,0.0,0.0,0.0,0.0,0.0,-4.0489,-4.0489,-4.0489,0.0,-4.0489,0.0,-4.172,-4.2585,-4.3431,0.0,-4.4643,-4.5066,-4.5566,-4.5586,-4.5586,-4.5586,-4.5586,-4.5586,-4.5586,-4.5586,-4.5586,-4.5586,-4.5586,-4.5586,-4.5586,-4.5586,-4.5586,-4.5586,0.0,-4.5586,-4.5586,-4.5586,-4.5586,-4.5586,-4.5586,-4.5586,-4.5586,-4.5586,-4.5586,-4.5586,0.0,0.0,0.0,0.0,0.0,0.0,0.0,0.0,0.0,0.0,0.0,0.0,0.0,0.0,0.0,0.0,0.0,0.0,0.0,0.0,0.0,0.0,0.0,0.0,0.0,0.0,0.0,0.0,0.0,0.0,0.0,0.0,0.0,0.0,0.0,0.0,0.0,0.0,0.0,0.0,0.0,0.0,0.0,0.0,0.0,0.0,0.0,0.0,0.0,0.0,-3.5493,-3.5493,-3.5493,-3.5493,-3.5493,-3.5493,-3.6084,-3.6892,-3.7757,-3.8642,-3.9488,-4.0296,-4.0489,-4.0489,-4.0489,-4.0489,-4.0489,-4.0489,0.0,-4.0489,-4.0489,-4.0489,-4.0489,-4.0489,0.0,-4.0489,-4.0489,-4.0489,-4.0489,-4.0489,-4.0489,-4.0893,-4.1893,-4.2662,-4.347,-4.4393,-4.5163,-4.5586,-4.5586,-4.5586,-4.5586,-4.5586,-4.5586,-4.5586,-4.5586,-4.5586,-4.5586,-4.5586,-4.5586,-4.5586,-4.5586,-4.5586,-4.5586,-4.5586,-4.5586,-4.5586,-4.5586,-4.5586,-4.5586,-4.5586,-4.5586,-4.5586,-4.5586,-4.5586,-4.5586,-4.5586,0.0,0.0,0.0,0.0,0.0,0.0,0.0,0.0,0.0,0.0,-3.4219,-3.5039,0.0,0.0,0.0,0.0,0.0,0.0,0.0,0.0,0.0,0.0,0.0,0.0,0.0,0.0,0.0,0.0,0.0,0.0,0.0,0.0,0.0,0.0,0.0,0.0,0.0,0.0,0.0,0.0,0.0,0.0,0.0,0.0,0.0,0.0,0.0,0.0,0.0,0.0,-3.5493,-3.5493,-3.5493,-3.5493,-3.5493,-3.5493,-3.6084,-3.6892,-3.7757,-3.8642,-3.9488,-4.0296,-4.0489,-4.0489,-4.0489,-4.0489,0.0,0.0,0.0,-4.0489,-4.0489,-4.0489,0.0,-4.0489,0.0,0.0,0.0,0.0,-4.0489,0.0,0.0,0.0,0.0,0.0,0.0,0.0,0.0,-4.5586,-4.5586,-4.5586,-4.5586,-4.5586,-4.5586,-4.5586,-4.5586,-4.5586,-4.5586,-4.5586,-4.5586,-4.5586,-4.5586,-4.5586,-4.5586,-4.5586,-4.5586,0.0,-4.5586,-4.5586,-4.5586,-4.5586,-4.5586,-4.5586,-4.5586,-4.5586,-4.5586,-4.5586,0.0,0.0,0.0,0.0,0.0,0.0,0.0,-3.0568,-3.1248,-3.3064,-3.3711,-3.4531,-3.5859,-3.5996,0.0,0.0,0.0,0.0,0.0,0.0,0.0,0.0,0.0,0.0,0.0,0.0,0.0,0.0,0.0,0.0,0.0,0.0,0.0,0.0,0.0,0.0,0.0,0.0,0.0,0.0,0.0,0.0,0.0,0.0,0.0,0.0,0.0,0.0,0.0,0.0,-3.5493,-3.5493,-3.5493,-3.5493,-3.5493,-3.5493,-3.5776,-3.6257,-3.7103,-3.7969,-3.8834,-3.9662,-4.0181,-4.0489,-4.0489,0.0,0.0,0.0,-4.0489,-4.0489,-4.0489,0.0,0.0,0.0,0.0,0.0,0.0,0.0,0.0,0.0,0.0,0.0,0.0,0.0,0.0,0.0,0.0,-4.5586,-4.5586,-4.5586,-4.5586,-4.5586,-4.5586,-4.5586,-4.5586,-4.5586,-4.5586,-4.5586,-4.5586,-4.5586,-4.5586,-4.5586,-4.5586,-4.5586,-4.5586,0.0,-4.5586,-4.5586,-4.5586,-4.5586,-4.5586,-4.5586,-4.5586,-4.5586,-4.5586,-4.5586,0.0,0.0,0.0,0.0,0.0,0.0,0.0,-3.0564,-3.1178,-3.2817,-3.3238,-3.3984,-3.5547,-3.5898,-3.5996,0.0,0.0,0.0,0.0,0.0,0.0,0.0,0.0,0.0,0.0,0.0,0.0,-3.5657,0.0,0.0,0.0,0.0,0.0,0.0,0.0,0.0,0.0,0.0,0.0,0.0,0.0,0.0,0.0,0.0,0.0,0.0,0.0,0.0,0.0,0.0,-3.5493,-3.5493,-3.5493,-3.5493,-3.5493,-3.5493,-3.5493,-3.568,-3.6488,-3.7334,-3.82,-3.9084,-3.9892,-4.0489,-4.0489,-4.0489,0.0,0.0,-4.0489,-4.0489,-4.0489,0.0,0.0,0.0,0.0,0.0,0.0,0.0,0.0,0.0,0.0,0.0,0.0,0.0,0.0,0.0,0.0,0.0,-4.5586,-4.5586,-4.5586,-4.5586,-4.5586,-4.5586,-4.5586,-4.5586,-4.5586,-4.5586,-4.5586,-4.5586,-4.5586,-4.5586,-4.5586,-4.5586,-4.5586,0.0,-4.5586,-4.5586,-4.5586,-4.5586,-4.5586,-4.5586,-4.5586,-4.5586,-4.5586,-4.5586,0.0,0.0,0.0,0.0,0.0,0.0,0.0,-3.0564,-3.0983,-3.1987,-3.2868,-3.3769,-3.4726,-3.5527,-3.5996,0.0,0.0,0.0,0.0,0.0,0.0,0.0,0.0,0.0,0.0,0.0,0.0,-3.5875,-3.5747,0.0,0.0,0.0,0.0,0.0,0.0,0.0,0.0,0.0,0.0,0.0,0.0,0.0,0.0,0.0,0.0,0.0,0.0,0.0,0.0,0.0,0.0,-3.5493,-3.5493,-3.5493,-3.5493,-3.5493,0.0,0.0,-3.6488,-3.7334,-3.82,-3.9084,-3.9892,-4.0489,-4.0489,0.0,0.0,-4.0489,-4.0489,-4.0489,-4.0489,-4.0489,0.0,0.0,0.0,0.0,0.0,0.0,0.0,0.0,0.0,0.0,0.0,0.0,0.0,0.0,0.0,0.0,-4.5586,-4.5586,-4.5586,-4.5586,-4.5586,-4.5586,-4.5586,-4.5586,-4.5586,-4.5586,-4.5586,-4.5586,-4.5586,-4.5586,-4.5586,-4.5586,-4.5586,0.0,0.0,-4.5586,-4.5586,-4.5586,-4.5586,-4.5586,-4.5586,-4.5586,-4.5586,-4.5586,0.0,0.0,0.0,0.0,0.0,0.0,-3.0448,-3.0509,-3.0887,-3.182,-3.2755,-3.3691,-3.4609,-3.5488,-3.5996,0.0,0.0,0.0,0.0,0.0,0.0,0.0,0.0,0.0,0.0,0.0,0.0,-3.5898,-3.5857,0.0,0.0,0.0,0.0,0.0,0.0,-3.5493,0.0,0.0,0.0,0.0,0.0,0.0,0.0,0.0,0.0,0.0,0.0,0.0,0.0,0.0,0.0,0.0,-3.5493,-3.5493,0.0,0.0,-3.5493,-3.557,-3.5892,-3.6584,-3.743,-3.8296,-3.9142,-3.9892,-4.0392,0.0,-4.0489,-4.0489,-4.0489,-4.0489,-4.0489,-4.0489,-4.0489,0.0,0.0,0.0,0.0,0.0,0.0,0.0,0.0,0.0,0.0,0.0,0.0,0.0,0.0,0.0,-4.5586,-4.5586,-4.5586,-4.5586,-4.5586,-4.5586,-4.5586,-4.5586,-4.5586,-4.5586,-4.5586,-4.5586,-4.5586,-4.5586,-4.5586,-4.5586,-4.5586,0.0,0.0,-4.5586,-4.5586,-4.5586,-4.5586,-4.5586,-4.5586,-4.5586,-4.5586,-4.5586,0.0,0.0,0.0,0.0,0.0,-3.0398,-3.0417,-3.0481,-3.0778,-3.1457,-3.2586,-3.3574,-3.4238,-3.5312,-3.5996,-3.5996,0.0,0.0,0.0,0.0,0.0,0.0,0.0,0.0,0.0,0.0,-3.5976,-3.5937,-3.5937,-3.5845,0.0,0.0,-3.5641,-3.5545,0.0,0.0,0.0,0.0,0.0,0.0,0.0,0.0,0.0,0.0,0.0,0.0,0.0,0.0,0.0,0.0,0.0,0.0,0.0,0.0,0.0,0.0,-3.5493,-3.5493,-3.5493,-3.6103,-3.6911,-3.7777,-3.8661,-3.9508,0.0,0.0,-4.0489,-4.0489,-4.0489,-4.0489,-4.0489,-4.0489,-4.0489,0.0,0.0,-4.0489,0.0,0.0,0.0,0.0,0.0,0.0,0.0,0.0,0.0,0.0,0.0,0.0,-4.5586,-4.5586,-4.5586,-4.5586,-4.5586,-4.5586,-4.5586,-4.5586,-4.5586,-4.5586,-4.5586,-4.5586,-4.5586,-4.5586,-4.5586,-4.5586,-4.5586,0.0,0.0,-4.5586,-4.5586,-4.5586,-4.5586,-4.5586,-4.5586,-4.5586,-4.5586,-4.5586,0.0,0.0,0.0,0.0,0.0,0.0,-3.0487,-3.0564,-3.0621,-3.071,-3.2284,-3.3398,-3.3418,-3.4961,-3.5996,-3.5996,0.0,0.0,0.0,0.0,0.0,0.0,0.0,0.0,0.0,0.0,-3.5996,-3.5996,-3.5996,-3.5957,-3.5898,-3.5892,-3.5795,-3.5603,0.0,0.0,0.0,0.0,0.0,0.0,0.0,0.0,0.0,0.0,0.0,0.0,0.0,0.0,0.0,0.0,0.0,0.0,0.0,0.0,0.0,0.0,-3.5493,-3.5493,-3.5493,-3.6103,-3.6911,-3.7777,-3.8661,-3.9508,0.0,-4.0489,-4.0489,-4.0489,-4.0489,-4.0489,-4.0489,-4.0489,-4.0489,-4.0489,-4.0489,0.0,0.0,0.0,0.0,0.0,0.0,0.0,0.0,0.0,0.0,0.0,0.0,0.0,-4.5547,-4.5586,-4.5586,-4.5586,-4.5586,-4.5586,-4.5586,-4.5586,-4.5586,-4.5586,-4.5586,-4.5586,-4.5586,-4.5586,-4.5586,-4.5586,0.0,0.0,0.0,-4.5586,-4.5586,-4.5586,-4.5586,-4.5586,-4.5586,-4.5586,-4.5586,-4.5586,0.0,0.0,0.0,0.0,0.0,0.0,0.0,-3.0448,-3.0719,-3.1421,-3.2536,-3.3526,-3.4218,-3.5312,-3.5996,-3.5996,0.0,0.0,0.0,0.0,0.0,0.0,0.0,0.0,0.0,0.0,-3.5996,-3.5996,-3.5996,-3.5976,-3.5898,-3.5893,-3.5813,-3.5678,-3.5669,0.0,0.0,0.0,0.0,0.0,0.0,0.0,0.0,0.0,0.0,0.0,0.0,0.0,0.0,0.0,0.0,0.0,0.0,0.0,0.0,0.0,0.0,0.0,-3.5493,-3.5699,-3.6084,-3.6911,-3.7777,-3.8623,-3.9488,-4.0104,-4.0489,-4.0489,-4.0489,-4.0489,-4.0489,-4.0489,-4.0489,-4.0489,-4.0489,0.0,0.0,0.0,0.0,0.0,0.0,0.0,0.0,0.0,0.0,0.0,0.0,0.0,-4.4701,-4.5278,-4.5586,-4.5586,-4.5586,-4.5586,-4.5586,-4.5586,-4.5586,-4.5586,-4.5586,-4.5586,-4.5586,-4.5586,-4.5586,0.0,0.0,0.0,-4.5586,-4.5586,-4.5586,-4.5586,-4.5586,-4.5586,-4.5586,-4.5586,-4.5586,-4.5586,0.0,0.0,0.0,0.0,0.0,0.0,0.0,-3.0417,-3.0786,-3.1745,-3.2628,-3.3565,-3.4569,-3.5449,-3.5976,-3.5996,0.0,0.0,0.0,0.0,0.0,0.0,0.0,0.0,0.0,-3.5996,-3.5996,-3.5996,-3.5996,-3.5976,-3.5937,-3.5937,-3.5872,-3.5782,-3.5775,0.0,0.0,0.0,0.0,0.0,0.0,0.0,-3.5643,0.0,0.0,0.0,0.0,0.0,0.0,0.0,0.0,0.0,0.0,0.0,0.0,0.0,-3.5493,0.0,0.0,-3.5493,-3.5699,-3.6507,-3.7123,0.0,0.0,-3.9681,-4.0123,-4.0431,-4.0489,-4.0489,-4.0489,-4.0489,-4.0489,-4.0489,-4.0489,0.0,0.0,0.0,0.0,0.0,0.0,0.0,0.0,0.0,0.0,0.0,0.0,0.0,-4.4259,-4.4797,-4.5259,-4.5586,-4.5586,-4.5586,-4.5586,-4.5586,-4.5586,-4.5586,-4.5586,-4.5586,-4.5586,-4.5586,-4.5586,0.0,0.0,-4.5586,0.0,-4.5586,-4.5586,-4.5586,-4.5586,-4.5586,-4.5586,-4.5586,-4.5586,-4.5586,0.0,0.0,0.0,0.0,0.0,0.0,0.0,0.0,-3.0821,-3.1763,-3.2648,-3.3574,-3.4564,-3.5409,-3.5917,-3.5976,0.0,0.0,0.0,0.0,0.0,0.0,0.0,0.0,0.0,-3.5996,-3.5996,-3.5996,-3.5996,-3.5996,-3.5996,-3.5996,-3.5976,-3.5918,-3.5899,-3.584,0.0,0.0,0.0,0.0,0.0,0.0,0.0,0.0,0.0,0.0,0.0,0.0,0.0,0.0,0.0,0.0,0.0,0.0,0.0,0.0,0.0,0.0,0.0,0.0,0.0,0.0,0.0,0.0,0.0,-3.92,0.0,-4.0258,-4.045,-4.0489,-4.0489,-4.0489,-4.0489,-4.0489,0.0,0.0,0.0,0.0,0.0,0.0,0.0,0.0,0.0,0.0,0.0,0.0,0.0,0.0,-4.4047,-4.4239,-4.4662,-4.547,-4.5566,-4.5586,-4.5586,-4.5586,-4.5586,-4.5586,-4.5586,-4.5586,-4.5586,-4.5586,-4.5586,0.0,0.0,-4.5586,-4.5586,-4.5586,-4.5586,-4.5586,-4.5586,-4.5586,-4.5586,-4.5586,-4.5586,-4.5586,0.0,0.0,0.0,0.0,0.0,0.0,0.0,0.0,0.0,0.0,-3.2991,-3.3724,-3.527,-3.5624,-3.5744,0.0,0.0,0.0,0.0,0.0,0.0,0.0,0.0,0.0,0.0,-3.5996,-3.5996,-3.5996,-3.5996,-3.5996,-3.5996,-3.5996,-3.5996,-3.5976,-3.5972,-3.593,0.0,0.0,0.0,0.0,0.0,0.0,0.0,0.0,0.0,0.0,-3.5748,-3.5693,0.0,0.0,0.0,0.0,0.0,0.0,0.0,0.0,-3.5493,-3.5493,-3.5493,0.0,-3.5565,-3.5738,-3.6238,-3.6815,0.0,0.0,0.0,0.0,0.0,0.0,0.0,0.0,0.0,0.0,0.0,0.0,0.0,0.0,0.0,0.0,0.0,0.0,0.0,0.0,0.0,0.0,0.0,-4.197,-4.2374,-4.3605,-4.4393,-4.4605,-4.524,-4.5586,-4.5586,-4.5586,-4.5586,-4.5586,-4.5586,-4.5586,-4.5586,-4.5586,-4.5586,0.0,-4.5586,-4.5586,-4.5586,-4.5586,-4.5586,-4.5586,-4.5586,-4.5586,-4.5586,-4.5586,-4.5586,-4.5586,0.0,0.0,0.0,0.0,0.0,0.0,0.0,0.0,0.0,0.0,0.0,0.0,0.0,0.0,0.0,0.0,0.0,0.0,0.0,0.0,0.0,0.0,0.0,0.0,-3.5996,-3.5996,-3.5996,-3.5996,-3.5996,-3.5996,-3.5996,-3.5996,-3.5996,-3.5996,-3.5996,-3.5976,0.0,0.0,0.0,0.0,-3.5815,0.0,0.0,0.0,0.0,0.0,-3.5857,-3.5822,0.0,-3.5749,-3.5688,-3.5603,0.0,0.0,0.0,0.0,-3.5493,-3.5493,-3.5493,-3.5493,-3.5493,-3.5493,-3.5834,-3.6257,0.0,0.0,0.0,0.0,0.0,0.0,0.0,0.0,0.0,0.0,0.0,0.0,0.0,0.0,0.0,0.0,0.0,0.0,0.0,0.0,0.0,0.0,0.0,-4.1373,-4.1777,-4.2662,-4.3508,-4.4278,-4.4759,-4.5201,-4.5586,-4.5586,-4.5586,-4.5586,-4.5586,-4.5586,-4.5586,-4.5586,-4.5586,0.0,-4.5586,-4.5586,-4.5586,-4.5586,-4.5586,-4.5586,-4.5586,-4.5586,-4.5586,-4.5586,-4.5586,-4.5586,0.0,0.0,0.0,0.0,0.0,0.0,0.0,0.0,0.0,0.0,0.0,0.0,0.0,0.0,0.0,0.0,0.0,0.0,0.0,0.0,0.0,0.0,0.0,-3.5996,-3.5996,-3.5996,-3.5996,-3.5996,-3.5996,-3.5996,-3.5996,-3.5996,-3.5996,-3.5996,-3.5996,-3.5996,0.0,0.0,-3.5957,0.0,-3.5806,0.0,0.0,0.0,0.0,0.0,0.0,0.0,0.0,-3.5898,-3.5783,-3.5635,-3.5611,0.0,0.0,0.0,0.0,0.0,-3.5493,-3.5493,-3.5493,-3.5493,-3.5493,-3.568,0.0,0.0,0.0,0.0,0.0,0.0,0.0,0.0,0.0,0.0,0.0,0.0,0.0,0.0,0.0,0.0,0.0,0.0,0.0,0.0,0.0,0.0,0.0,-4.0816,-4.1566,-4.1739,-4.245,-4.3874,-4.4047,-4.447,-4.5201,-4.547,-4.5586,-4.5586,-4.5586,-4.5586,-4.5586,-4.5586,-4.5586,-4.5586,0.0,0.0,-4.5586,-4.5451,-4.5393,-4.5374,-4.5259,-4.522,-4.522,-4.522,-4.5297,-4.5413,0.0,0.0,0.0,0.0,0.0,0.0,0.0,0.0,0.0,0.0,0.0,0.0,0.0,0.0,0.0,0.0,0.0,0.0,0.0,0.0,0.0,0.0,-3.5996,-3.5996,-3.5996,-3.5996,-3.5996,-3.5996,-3.5996,-3.5996,-3.5996,-3.5996,-3.5996,-3.5996,-3.5996,-3.5996,-3.5996,-3.5996,-3.5996,-3.5996,-3.5975,0.0,0.0,0.0,0.0,0.0,0.0,0.0,0.0,-3.5918,-3.5876,-3.5825,-3.5643,0.0,0.0,0.0,0.0,0.0,-3.5493,-3.5493,-3.5493,-3.5493,-3.5493,-3.5532,0.0,0.0,0.0,0.0,0.0,0.0,0.0,0.0,0.0,0.0,0.0,0.0,0.0,0.0,0.0,0.0,0.0,0.0,0.0,0.0,0.0,0.0,0.0,-4.0546,-4.0681,-4.1393,-4.1931,-4.2181,-4.2893,-4.3355,-4.347,-4.4893,-4.5586,-4.5586,-4.5586,-4.5586,-4.5586,-4.5586,-4.5586,-4.5586,0.0,-4.5586,-4.5528,-4.4797,-4.4489,-4.4432,-4.3739,-4.347,-4.347,-4.347,-4.3912,-4.4605,0.0,0.0,0.0,0.0,0.0,0.0,0.0,0.0,0.0,0.0,0.0,0.0,0.0,0.0,0.0,0.0,0.0,0.0,0.0,0.0,0.0,-3.5937,-3.5957,-3.5957,-3.5996,-3.5996,-3.5996,-3.5996,-3.5996,-3.5996,-3.5996,-3.5996,-3.5996,-3.5996,-3.5996,-3.5996,-3.5996,-3.5996,-3.5996,-3.5996,0.0,0.0,0.0,0.0,0.0,0.0,0.0,0.0,0.0,0.0,-3.5937,-3.5875,-3.5718,0.0,0.0,0.0,0.0,0.0,-3.5493,-3.5493,-3.5493,-3.5493,-3.5493,-3.5493,0.0,0.0,0.0,0.0,0.0,0.0,0.0,0.0,0.0,0.0,0.0,0.0,0.0,0.0,0.0,0.0,0.0,0.0,0.0,0.0,0.0,0.0,0.0,0.0,-4.0489,-4.0873,-4.1316,-4.1797,-4.22,-4.2624,-4.3104,-4.3855,-4.447,-4.4893,-4.5355,-4.5336,-4.4893,-4.4893,-4.4662,-4.4239,0.0,-4.4239,-4.422,-4.3816,-4.3643,-4.3605,-4.3239,-4.3104,-4.3104,-4.3104,-4.3335,-4.3701,0.0,0.0,0.0,0.0,0.0,0.0,0.0,0.0,0.0,0.0,0.0,0.0,0.0,0.0,0.0,0.0,0.0,0.0,0.0,0.0,-3.5723,-3.5845,-3.5845,-3.5895,-3.5996,-3.5996,-3.5996,-3.5996,-3.5996,-3.5996,-3.5996,-3.5996,-3.5996,-3.5996,-3.5996,-3.5996,-3.5996,-3.5996,-3.5996,-3.5996,0.0,0.0,0.0,0.0,0.0,0.0,0.0,0.0,0.0,0.0,0.0,0.0,0.0,0.0,0.0,-3.5526,-3.5493,-3.5493,-3.5493,-3.5493,-3.5493,-3.5493,0.0,0.0,-3.5493,0.0,0.0,0.0,0.0,0.0,0.0,0.0,0.0,0.0,0.0,0.0,0.0,0.0,0.0,0.0,0.0,0.0,0.0,0.0,0.0,0.0,0.0,0.0,-4.0489,-4.0489,-4.0796,-4.147,-4.144,-4.1714,-4.2403,-4.2595,-4.3131,-4.4028,-4.4701,-4.4662,-4.4028,-4.4028,-4.3682,-4.3104,-4.3104,-4.3104,-4.3085,-4.2874,-4.2797,-4.2777,-4.2566,-4.2489,-4.2527,-4.272,-4.2797,-4.2816,0.0,0.0,0.0,0.0,0.0,0.0,0.0,0.0,0.0,0.0,0.0,0.0,0.0,0.0,0.0,0.0,0.0,0.0,0.0,0.0,-3.5637,-3.5721,-3.5704,-3.5806,-3.5996,-3.5996,-3.5996,-3.5996,-3.5996,-3.5996,-3.5996,-3.5996,-3.5996,-3.5996,-3.5996,-3.5996,-3.5996,-3.5996,-3.5996,-3.5996,-3.5996,0.0,0.0,0.0,0.0,0.0,0.0,0.0,0.0,0.0,0.0,0.0,0.0,0.0,-3.568,-3.5545,-3.5493,-3.5493,-3.5493,-3.5493,-3.5493,-3.5493,0.0,0.0,-3.5493,0.0,0.0,0.0,0.0,0.0,0.0,0.0,0.0,0.0,0.0,0.0,0.0,0.0,0.0,0.0,0.0,0.0,0.0,0.0,0.0,0.0,0.0,0.0,-4.0489,-4.0489,-4.0527,-4.0585,-4.0345,-4.0234,-4.0311,-4.1055,-4.201,-4.3181,-4.3258,-4.3258,-4.3181,-4.3181,-4.3143,-4.3104,-4.3104,-4.3104,-4.3047,-4.2239,-4.1893,-4.1816,-4.0989,-4.0681,-4.0777,-4.1604,-4.1893,-4.2008,0.0,0.0,0.0,0.0,0.0,0.0,0.0,0.0,0.0,0.0,0.0,0.0,0.0,0.0,0.0,0.0,0.0,0.0,0.0,0.0,-3.5584,-3.5641,-3.5654,-3.5688,-3.5821,-3.5893,-3.5957,-3.5996,-3.5996,-3.5996,-3.5996,-3.5996,-3.5996,-3.5996,-3.5996,-3.5996,-3.5996,-3.5996,-3.5996,-3.5996,-3.5996,-3.5996,0.0,0.0,0.0,0.0,0.0,0.0,0.0,0.0,-3.5974,-3.5907,0.0,-3.5669,-3.5622,-3.5545,-3.5493,-3.5493,-3.5493,-3.5493,-3.5493,-3.5493,0.0,0.0,0.0,0.0,0.0,0.0,0.0,0.0,0.0,0.0,0.0,0.0,0.0,0.0,0.0,0.0,0.0,0.0,0.0,0.0,0.0,0.0,0.0,0.0,0.0,0.0,-4.0489,-4.0489,-4.0489,-4.0489,-4.0389,-4.0286,-4.0101,-4.0406,-4.0788,-4.1245,-4.2499,-4.2816,-4.2297,-4.2297,-4.2008,-4.147,-4.147,-4.147,-4.145,-4.1123,-4.0989,-4.095,-4.0623,-4.0489,-4.0527,-4.0873,-4.0989,-4.1046,0.0,0.0,0.0,0.0,0.0,0.0,0.0,0.0,0.0,0.0,0.0,0.0,0.0,0.0,0.0,0.0,0.0,0.0,-3.5493,-3.5493,-3.5526,-3.5584,-3.5584,-3.5603,-3.568,-3.5791,-3.5874,-3.5976,-3.5996,-3.5996,-3.5996,-3.5996,-3.5996,-3.5996,-3.5996,-3.5996,-3.5996,-3.5996,-3.5996,-3.5996,-3.5996,-3.5996,0.0,0.0,0.0,0.0,0.0,0.0,0.0,0.0,-3.5963,-3.5888,0.0,-3.5654,-3.5603,-3.5526,-3.5493,-3.5493,-3.5493,-3.5493,0.0,0.0,0.0,0.0,0.0,0.0,0.0,0.0,0.0,0.0,0.0,0.0,0.0,0.0,0.0,0.0,0.0,0.0,0.0,0.0,0.0,0.0,0.0,0.0,0.0,0.0,0.0,0.0,0.0,-4.0489,-4.0489,-4.0489,-4.0425,-4.0286,-4.0101,-4.0002,-3.9943,-3.9962,-4.1342,-4.1777,-4.1393,-4.1393,-4.1066,-4.0489,-4.0489,-4.0489,-4.0489,-4.0489,-4.0489,-4.0489,-4.0489,-4.0489,-4.0489,-4.0489,-4.0489,-4.0489,0.0,0.0,0.0,0.0,0.0,0.0,0.0,0.0,0.0,0.0,0.0,0.0,0.0,0.0,0.0,0.0,0.0,0.0,-3.5493,-3.5493,-3.5493,-3.5493,-3.5493,-3.5545,-3.5603,-3.5661,-3.5766,-3.5898,-3.5976,-3.5996,-3.5996,-3.5996,-3.5996,-3.5996,-3.5996,-3.5996,-3.5996,-3.5996,-3.5996,-3.5996,-3.5996,-3.5996,-3.5992,0.0,0.0,0.0,0.0,0.0,0.0,0.0,-3.5943,-3.5872,0.0,0.0,0.0,-3.5526,-3.5493,-3.5493,-3.5493,-3.5493,0.0,0.0,0.0,0.0,0.0,0.0,0.0,0.0,0.0,0.0,0.0,0.0,0.0,0.0,0.0,0.0,0.0,0.0,0.0,0.0,0.0,0.0,0.0,0.0,0.0,0.0,0.0,0.0,0.0,-4.0489,-4.0489,-4.0489,-4.0232,-4.0101,-4.0101,-3.9775,-3.9599,-3.9599,-3.9599,-3.9905,-4.0489,-4.0489,-4.0489,-4.0489,-4.0489,-4.0489,-4.0489,-4.0489,-4.0489,-4.0489,-4.0489,-4.0489,-4.0489,-4.0489,-4.0489,-4.0489,0.0,0.0,0.0,0.0,0.0,0.0,0.0,0.0,0.0,0.0,0.0,0.0,0.0,0.0,0.0,0.0,0.0,0.0,-3.5493,-3.5493,-3.5493,-3.5493,-3.5493,-3.5526,-3.5545,-3.5601,-3.5735,-3.5976,-3.5996,-3.5996,-3.5996,-3.5996,-3.5996,-3.5996,-3.5996,-3.5996,-3.5996,-3.5996,-3.5996,-3.5996,-3.5996,-3.597,-3.5921,0.0,0.0,0.0,0.0,0.0,0.0,0.0,0.0,0.0,0.0,0.0,-3.5545,-3.5526,-3.5493,-3.5493,-3.5493,0.0,0.0,0.0,0.0,0.0,0.0,0.0,0.0,0.0,0.0,0.0,0.0,0.0,0.0,0.0,0.0,0.0,0.0,0.0,0.0,0.0,0.0,0.0,0.0,0.0,0.0,0.0,0.0,0.0,0.0,-4.0489,-4.0489,-4.0489,-4.0406,-4.0176,-3.9754,-3.9645,-3.9462,-3.9238,-3.9238,-3.958,-4.0213,-4.0213,-4.0321,-4.0489,-4.0489,-4.0489,-4.0489,-4.0489,-4.0489,-4.0489,-4.0489,-4.0489,-4.0489,-4.0489,-4.0489,-4.0489,0.0,0.0,0.0,0.0,0.0,0.0,0.0,0.0,0.0,0.0,0.0,0.0,0.0,0.0,0.0,0.0,0.0,0.0,0.0,0.0,-3.5493,-3.5493,-3.5493,-3.5526,-3.5545,-3.5577,-3.5708,-3.5967,-3.5968,-3.5976,-3.5996,-3.5996,-3.5996,-3.5996,-3.5996,-3.5996,-3.5996,-3.5996,-3.5996,-3.5996,-3.597,-3.5948,-3.5892,0.0,0.0,0.0,0.0,0.0,0.0,0.0,0.0,0.0,0.0,0.0,0.0,-3.5493,-3.5493,-3.5493,-3.5493,0.0,0.0,0.0,0.0,0.0,0.0,0.0,0.0,0.0,0.0,0.0,0.0,0.0,0.0,0.0,0.0,0.0,0.0,0.0,0.0,0.0,0.0,0.0,0.0,0.0,0.0,0.0,0.0,0.0,0.0,-4.0315,-4.0489,-4.0489,-4.0489,-4.0336,-3.9945,-3.9861,-3.9622,-3.9289,-3.916,-3.9314,-3.9709,-3.984,-4.0003,-4.0157,-4.0285,-4.0389,-4.0489,-4.0489,-4.0489,-4.0489,-4.0489,-4.0489,-4.0489,-4.0489,-4.0489,-4.0489,0.0,0.0,0.0,0.0,0.0,0.0,0.0,0.0,0.0,0.0,0.0,0.0,0.0,0.0,0.0,0.0,0.0,0.0,0.0,0.0,-3.5493,-3.5493,-3.5493,-3.5545,-3.5603,-3.5603,-3.568,-3.5872,-3.5899,-3.5937,-3.5996,-3.5996,-3.5996,-3.5996,-3.5996,-3.5996,-3.5996,-3.5996,-3.5995,-3.5984,-3.592,-3.5892,-3.5853,-3.568,0.0,0.0,0.0,0.0,0.0,0.0,0.0,0.0,0.0,-3.5565,-3.5493,-3.5493,-3.5493,-3.5493,0.0,0.0,0.0,0.0,0.0,0.0,0.0,0.0,0.0,0.0,0.0,0.0,0.0,0.0,0.0,0.0,0.0,0.0,0.0,0.0,0.0,0.0,0.0,0.0,0.0,0.0,0.0,0.0,0.0,0.0,0.0,-3.9873,-4.0258,-4.0258,-4.0258,-4.0258,-4.0242,-3.9984,-3.9694,-3.9373,-3.9064,-3.8928,-3.8928,-3.9406,-3.9622,-3.9671,-3.9926,-4.021,-4.0489,-4.0412,-4.0431,-4.0489,-4.0489,-4.0489,-4.0489,-4.0489,-4.0489,-4.0489,0.0,0.0,0.0,0.0,0.0,0.0,0.0,0.0,0.0,0.0,0.0,0.0,0.0,0.0,0.0,0.0,0.0,0.0,0.0,0.0,-3.5493,-3.5493,-3.5493,-3.5526,-3.5526,-3.5526,-3.5584,-3.5661,-3.5821,-3.5937,-3.5996,-3.5996,-3.5996,-3.5996,-3.5996,-3.5996,-3.5996,-3.5996,-3.5966,-3.5916,-3.592,-3.5815,-3.5661,-3.5622,-3.5584,0.0,0.0,0.0,0.0,0.0,0.0,0.0,-3.5526,-3.5526,-3.5493,-3.5493,-3.5493,-3.5493,0.0,0.0,0.0,0.0,0.0,0.0,0.0,0.0,0.0,0.0,0.0,0.0,0.0,0.0,0.0,0.0,0.0,0.0,0.0,0.0,0.0,0.0,0.0,0.0,0.0,0.0,0.0,0.0,0.0,0.0,-3.8277,-3.843,-3.8546,-3.8546,-3.8546,-3.8412,-3.8151,-3.8098,-3.7926,-3.7649,-3.7562,-3.7516,-3.7573,-3.8968,-3.9863,-4.0281,-3.9717,-3.9861,-4.045,-3.9815,-3.9931,-4.0489,-4.0489,-4.0489,-4.0489,-4.0489,-4.0489,-4.0489,0.0,0.0,0.0,0.0,0.0,0.0,0.0,0.0,0.0,0.0,0.0,0.0,0.0,0.0,0.0,0.0,0.0,0.0,0.0,0.0,0.0,-3.5488,-3.5493,-3.5493,-3.5493,-3.5493,-3.5565,-3.5661,-3.5745,-3.5845,0.0,-3.5976,-3.5996,-3.5996,-3.5996,-3.5996,-3.5996,-3.5996,-3.5953,-3.5892,-3.5834,-3.5718,-3.5603,-3.5565,-3.5545,-3.5493,-3.5545,0.0,0.0,0.0,0.0,0.0,0.0,0.0,-3.5493,-3.5493,-3.5493,-3.5493,0.0,0.0,0.0,0.0,0.0,0.0,0.0,0.0,0.0,0.0,0.0,0.0,0.0,0.0,0.0,0.0,0.0,0.0,0.0,0.0,0.0,0.0,0.0,0.0,0.0,0.0,0.0,0.0,0.0,-3.7373,-3.7373,-3.7777,-3.8007,-3.8007,-3.8007,-3.7924,-3.774,-3.774,-3.76,-3.7296,-3.7296,-3.7296,-3.7313,-3.8055,-3.8626,-3.9057,-3.8618,-3.8761,-3.9258,-3.8854,-3.8911,-3.9296,-3.9296,-3.9546,-3.9931,-3.9931,-4.0162,-4.0489,0.0,0.0,0.0,0.0,0.0,0.0,0.0,0.0,0.0,0.0,0.0,0.0,0.0,0.0,0.0,0.0,0.0,0.0,0.0,0.0,0.0,-3.5468,-3.5493,-3.5493,-3.5493,-3.5493,-3.5565,-3.568,-3.5689,0.0,0.0,0.0,0.0,-3.5996,-3.5996,-3.5996,-3.5996,-3.5987,-3.5937,-3.5849,-3.5726,-3.5641,-3.5584,-3.5526,-3.5493,-3.5493,-3.5493,-3.5493,-3.5493,-3.5493,0.0,0.0,0.0,0.0,-3.5493,-3.5493,-3.5493,-3.5493,0.0,0.0,0.0,0.0,0.0,0.0,0.0,0.0,0.0,0.0,0.0,0.0,0.0,0.0,0.0,0.0,0.0,0.0,0.0,0.0,0.0,0.0,0.0,0.0,0.0,0.0,0.0,0.0,0.0,-3.6445,-3.6488,-3.718,-3.7565,-3.7565,-3.7565,-3.7565,-3.7565,-3.7565,-3.7437,-3.7142,-3.7142,-3.7142,-3.7142,-3.6937,-3.7109,-3.758,-3.7446,-3.7606,-3.7988,-3.7834,-3.7853,-3.8007,-3.8007,-3.843,-3.9084,-3.9084,-3.9585,-4.0277,0.0,0.0,0.0,0.0,0.0,0.0,0.0,0.0,0.0,0.0,0.0,0.0,0.0,0.0,0.0,0.0,0.0,0.0,-3.3026,0.0,0.0,-3.5474,-3.5493,-3.5493,-3.5493,-3.5493,-3.5526,-3.5545,0.0,0.0,0.0,0.0,0.0,-3.5996,0.0,-3.5996,-3.5995,-3.5937,-3.5843,-3.5729,-3.5642,-3.5584,-3.5526,-3.5493,-3.5493,-3.5493,-3.5493,-3.5493,-3.5493,-3.5493,-3.5493,0.0,0.0,0.0,-3.5493,-3.5493,-3.5493,0.0,0.0,0.0,0.0,0.0,0.0,0.0,0.0,0.0,0.0,0.0,0.0,0.0,0.0,0.0,0.0,0.0,0.0,0.0,0.0,0.0,0.0,0.0,0.0,0.0,0.0,0.0,0.0,0.0,-3.5217,-3.5426,-3.5647,-3.5776,-3.5834,-3.5834,-3.5834,-3.5834,-3.5834,-3.5834,-3.582,-3.5773,-3.5773,-3.5773,-3.5773,-3.5729,-3.6531,-3.7886,-3.7137,-3.7267,-3.795,-3.7199,-3.7315,-3.8007,-3.8007,-3.8065,-3.8161,-3.8161,-3.8719,-3.945,0.0,0.0,0.0,0.0,0.0,0.0,0.0,0.0,0.0,0.0,0.0,0.0,0.0,0.0,0.0,-3.0007,-3.035,-3.1192,-3.2627,-3.3868,-3.4832,-3.5474,-3.5493,-3.5493,-3.5493,-3.5493,-3.5526,-3.5565,0.0,0.0,0.0,-3.5945,-3.5996,0.0,0.0,0.0,0.0,-3.5931,-3.583,-3.5695,-3.5631,-3.5565,-3.5493,-3.5493,-3.5493,-3.5493,-3.5493,-3.5493,-3.5493,-3.5493,-3.5493,-3.5493,-3.5493,0.0,0.0,0.0,0.0,0.0,0.0,0.0,0.0,0.0,0.0,0.0,0.0,0.0,0.0,0.0,0.0,0.0,0.0,0.0,0.0,0.0,0.0,0.0,0.0,0.0,0.0,0.0,0.0,0.0,0.0,0.0,0.0,0.0,-3.4755,-3.4926,-3.5053,-3.5034,-3.5122,-3.5273,-3.5273,-3.5354,-3.5493,-3.5493,-3.5493,-3.5493,-3.5493,-3.5493,-3.5493,-3.5493,-3.5911,-3.6584,-3.6199,-3.6257,-3.6565,-3.6199,-3.6257,-3.6603,-3.6603,-3.6873,-3.7276,-3.7276,-3.7815,-3.8565,0.0,0.0,0.0,0.0,0.0,0.0,0.0,0.0,0.0,0.0,0.0,0.0,0.0,0.0,0.0,0.0,-2.9696,-3.0534,-3.247,-3.3344,-3.4316,-3.5455,-3.5493,-3.5493,-3.5493,-3.5493,-3.5526,0.0,0.0,0.0,-3.5846,-3.5945,-3.5996,0.0,-3.5996,0.0,0.0,0.0,0.0,-3.5699,-3.5622,-3.5545,-3.5493,-3.5493,-3.5493,-3.5493,-3.5493,-3.5493,-3.5493,-3.5493,-3.5493,-3.5493,-3.5493,-3.5493,0.0,0.0,0.0,0.0,0.0,0.0,0.0,0.0,0.0,0.0,0.0,0.0,0.0,0.0,0.0,0.0,0.0,0.0,0.0,0.0,0.0,0.0,0.0,0.0,0.0,0.0,0.0,0.0,0.0,0.0,0.0,0.0,-3.4423,-3.4612,-3.4713,-3.4694,-3.4793,-3.4981,-3.4999,-3.5122,-3.5403,-3.5479,-3.5493,-3.5493,-3.5493,-3.5493,-3.5493,-3.5493,-3.5493,-3.5493,-3.5493,-3.5493,-3.5493,-3.5493,-3.5493,-3.5493,-3.5493,-3.5872,-3.6411,-3.6411,-3.6949,-3.768,0.0,0.0,0.0,0.0,0.0,0.0,0.0,0.0,0.0,0.0,0.0,0.0,-2.9713,-2.9713,-2.9696,-2.9696,-2.9696,-3.0534,-3.247,-3.3344,-3.4316,-3.5455,-3.5493,0.0,-3.5493,-3.5493,0.0,0.0,0.0,0.0,-3.571,-3.5906,-3.5996,-3.5996,-3.5996,-3.5996,-3.5996,0.0,0.0,0.0,0.0,-3.5493,0.0,0.0,-3.5493,0.0,0.0,-3.5493,-3.5493,-3.5493,-3.5493,-3.5493,-3.5493,-3.5493,-3.5493,0.0,0.0,0.0,0.0,0.0,0.0,0.0,0.0,0.0,0.0,0.0,0.0,0.0,0.0,0.0,0.0,0.0,0.0,0.0,0.0,0.0,0.0,0.0,0.0,0.0,0.0,0.0,0.0,0.0,0.0,0.0,-3.42,-3.4357,-3.4674,-3.4694,-3.4713,-3.4714,-3.4714,-3.4851,-3.5122,-3.5369,-3.5493,-3.5493,-3.5493,-3.5493,-3.5493,-3.5493,-3.5493,-3.5493,-3.5493,-3.5493,-3.5493,-3.5493,-3.5493,-3.5493,-3.5493,-3.5545,-3.5565,-3.5565,-3.6084,-3.6776,0.0,0.0,0.0,0.0,0.0,0.0,0.0,0.0,0.0,0.0,0.0,0.0,0.0,-2.9355,-2.9251,-2.9251,-2.9251,-3.0147,-3.2198,-3.2612,-3.3582,-3.5416,-3.5493,-3.5493,-3.5493,-3.5493,0.0,0.0,0.0,-3.5701,-3.571,-3.5906,-3.5996,-3.5996,-3.5996,-3.5996,-3.5996,-3.5792,0.0,0.0,0.0,0.0,0.0,0.0,0.0,0.0,0.0,0.0,0.0,-3.5493,-3.5493,-3.5493,-3.5493,-3.5493,-3.5493,-3.5493,0.0,0.0,0.0,0.0,0.0,0.0,0.0,0.0,0.0,0.0,0.0,0.0,0.0,0.0,0.0,0.0,0.0,0.0,0.0,0.0,0.0,0.0,0.0,0.0,0.0,0.0,0.0,0.0,0.0,0.0,0.0,-3.3986,-3.4111,-3.4111,-3.4189,-3.4379,-3.4379,-3.451,-3.4832,-3.4944,-3.4981,-3.4981,-3.5155,-3.5239,-3.5239,-3.5432,-3.5493,-3.5493,-3.5493,-3.5493,-3.5493,-3.5493,-3.5493,-3.5493,-3.5493,-3.5493,-3.5493,-3.5493,-3.568,-3.593,0.0,0.0,0.0,0.0,0.0,0.0,0.0,0.0,0.0,0.0,0.0,0.0,0.0,0.0,-2.916,-2.9228,-2.923,-3.0127,-3.2198,-3.2329,-3.3277,-3.5416,-3.5493,-3.5493,-3.5493,-3.5218,-3.5218,0.0,0.0,0.0,0.0,-3.5906,-3.5996,-3.5996,-3.5996,-3.5987,0.0,0.0,0.0,-3.5661,0.0,0.0,-3.5493,0.0,0.0,0.0,0.0,0.0,0.0,0.0,0.0,0.0,0.0,0.0,0.0,0.0,0.0,0.0,0.0,0.0,0.0,0.0,0.0,0.0,0.0,0.0,0.0,0.0,0.0,0.0,0.0,0.0,0.0,0.0,0.0,0.0,0.0,0.0,0.0,0.0,0.0,0.0,0.0,0.0,0.0,0.0,0.0,0.0,-3.3807,-3.3807,-3.3876,-3.4068,-3.4147,-3.4311,-3.4529,-3.4653,-3.4694,-3.4694,-3.4963,-3.5105,-3.5105,-3.5369,-3.5493,-3.5493,-3.5493,-3.5493,-3.5493,-3.5493,-3.5493,-3.5493,-3.5493,-3.5493,-3.5493,-3.5493,-3.5493,-3.5493,0.0,0.0,0.0,0.0,0.0,0.0,0.0,0.0,0.0,0.0,0.0,0.0,0.0,0.0,0.0,-2.9678,-2.9696,-3.0516,-3.247,-3.26,-3.3459,-3.5416,-3.5493,-3.5493,-3.5493,-3.4661,-3.4641,0.0,0.0,0.0,0.0,0.0,-3.5996,-3.5996,-3.5996,-3.5963,-3.5894,0.0,-3.567,-3.5603,0.0,-3.5493,-3.5493,0.0,0.0,0.0,-3.5493,-3.5493,0.0,-3.5493,0.0,0.0,0.0,0.0,0.0,0.0,0.0,0.0,0.0,0.0,0.0,0.0,0.0,0.0,0.0,0.0,0.0,0.0,0.0,0.0,0.0,0.0,0.0,0.0,0.0,0.0,0.0,0.0,0.0,0.0,0.0,0.0,0.0,0.0,0.0,0.0,-3.3807,-3.3807,-3.3807,-3.3807,-3.3807,-3.3807,-3.4068,-3.4176,-3.4176,-3.4508,-3.4674,-3.4674,-3.4963,-3.5088,-3.5105,-3.5369,-3.5493,-3.5493,-3.5493,-3.5493,-3.5493,-3.5493,-3.5493,-3.5493,-3.5493,-3.5493,-3.5493,-3.5493,-3.5493,-3.5493,0.0,0.0,0.0,0.0,0.0,0.0,0.0,0.0,0.0,0.0,0.0,0.0,-2.9089,-2.9112,-2.927,-2.9661,-2.957,-3.0377,-3.2454,-3.26,-3.3459,-3.5416,-3.5493,-3.5493,-3.5493,-3.5257,-3.5257,-3.5493,0.0,0.0,0.0,0.0,0.0,0.0,-3.5996,-3.5907,-3.5745,-3.5723,0.0,0.0,-3.5545,-3.5493,0.0,0.0,0.0,0.0,0.0,-3.5493,-3.5493,0.0,-3.5493,-3.5493,0.0,0.0,0.0,0.0,0.0,0.0,-3.5493,0.0,0.0,0.0,0.0,0.0,0.0,0.0,0.0,0.0,0.0,0.0,0.0,0.0,0.0,0.0,0.0,0.0,0.0,0.0,0.0,0.0,0.0,0.0,0.0,0.0,0.0,0.0,-3.3807,-3.3807,-3.3807,-3.3807,-3.3807,-3.3807,-3.3876,-3.3902,-3.3902,-3.3986,-3.4055,-3.4055,-3.4569,-3.4793,-3.4832,-3.5289,-3.5493,-3.5493,-3.5493,-3.5493,-3.5493,-3.5493,-3.5493,-3.5493,-3.5493,-3.5493,-3.5493,-3.5493,-3.5493,-3.5493,0.0,0.0,0.0,0.0,0.0,0.0,0.0,0.0,0.0,0.0,0.0,0.0,-2.9398,-2.9418,-2.957,-2.9962,-2.9883,-3.0633,-3.2594,-3.2723,-3.3566,-3.5416,-3.5493,-3.5493,-3.5493,-3.5141,-3.5161,-3.5545,0.0,0.0,0.0,0.0,0.0,0.0,0.0,0.0,0.0,0.0,0.0,0.0,-3.5526,0.0,0.0,-3.5493,-3.5493,0.0,0.0,0.0,-3.5493,-3.5493,-3.5493,0.0,0.0,0.0,0.0,0.0,0.0,0.0,0.0,0.0,0.0,0.0,0.0,0.0,-3.5122,-3.4981,-3.4774,0.0,0.0,0.0,0.0,0.0,0.0,0.0,0.0,0.0,0.0,0.0,0.0,0.0,0.0,0.0,0.0,-3.3807,-3.3807,-3.3807,-3.3807,-3.3807,-3.3807,-3.3807,-3.3807,-3.3807,-3.3807,-3.3807,-3.3807,-3.3807,-3.3807,-3.3807,-3.4398,-3.4694,-3.4714,-3.5258,-3.5493,-3.5493,-3.5493,-3.5493,-3.5493,-3.5493,-3.5493,-3.5493,-3.5493,-3.5493,-3.5493,-3.5493,-3.5493,-3.5493,0.0,0.0,0.0,0.0,0.0,0.0,0.0,0.0,0.0,0.0,0.0,-2.9494,0.0,-2.9954,-3.0061,-3.0367,-3.0463,-3.1174,-3.2795,-3.2987,-3.3776,-3.543,-3.5493,-3.5493,-3.5493,-3.4737,-3.4757,-3.5603,0.0,0.0,0.0,0.0,0.0,0.0,0.0,0.0,0.0,0.0,0.0,-3.5526,-3.5493,-3.5493,0.0,0.0,-3.5493,-3.5493,-3.5493,-3.5493,-3.5493,-3.5493,-3.5493,0.0,0.0,0.0,0.0,0.0,-3.5611,0.0,0.0,0.0,0.0,0.0,0.0,0.0,-3.5207,-3.5138,-3.507,-3.4793,0.0,0.0,0.0,0.0,0.0,0.0,0.0,0.0,0.0,0.0,0.0,0.0,0.0,0.0,-3.3807,-3.3807,-3.3807,-3.3807,-3.3807,-3.3807,-3.3807,-3.3807,-3.3807,-3.3807,-3.3807,-3.3807,-3.3807,-3.3807,-3.3807,-3.3807,-3.4398,-3.4694,-3.4714,-3.5258,-3.5493,-3.5493,-3.5493,-3.5493,-3.5493,-3.5493,-3.5493,-3.5493,-3.5493,-3.5493,-3.5493,-3.5493,-3.5493,-3.5493,-2.8994,0.0,0.0,0.0,0.0,0.0,0.0,0.0,0.0,0.0,0.0,0.0,0.0,0.0,-2.975,-3.0343,-3.0841,-3.1632,-3.2821,-3.3564,-3.441,-3.5449,-3.5493,-3.5493,-3.5493,-3.5334,-3.5353,-3.5526,0.0,0.0,0.0,0.0,0.0,0.0,0.0,0.0,0.0,0.0,0.0,-3.5584,-3.5526,0.0,-3.5493,-3.5493,-3.5493,-3.5493,-3.5493,-3.5493,-3.5493,-3.5493,-3.5493,-3.5526,0.0,0.0,0.0,0.0,0.0,0.0,0.0,0.0,0.0,0.0,0.0,0.0,-3.5451,-3.5432,-3.5354,0.0,0.0,0.0,0.0,0.0,0.0,0.0,0.0,0.0,0.0,0.0,0.0,0.0,0.0,0.0,-3.3807,-3.3807,-3.3807,-3.3807,-3.3807,-3.3807,-3.3807,-3.3807,-3.3807,-3.3807,-3.3807,-3.3807,-3.3807,-3.3807,-3.3807,-3.3807,-3.4398,-3.4694,-3.4714,-3.5258,-3.5493,-3.5493,-3.5493,-3.5493,-3.5493,-3.5493,-3.5493,-3.5493,-3.5493,-3.5493,-3.5493,-3.5493,-3.5493,-3.5493,-2.8994,0.0,0.0,0.0,0.0,0.0,0.0,0.0,0.0,0.0,0.0,0.0,0.0,0.0,0.0,0.0,-3.1066,-3.1897,-3.2852,-3.3718,-3.4584,-3.5468,-3.5493,-3.5493,-3.5493,-3.5493,-3.5526,-3.5565,0.0,0.0,0.0,0.0,0.0,0.0,0.0,0.0,0.0,0.0,-3.5468,-3.4988,-3.5353,0.0,-3.5493,-3.5493,-3.5493,-3.5493,-3.5493,-3.5493,-3.5493,-3.5493,-3.5493,0.0,0.0,-3.5623,-3.5669,0.0,-3.5754,-3.5799,0.0,0.0,0.0,-3.5669,0.0,0.0,0.0,-3.5565,-3.5498,-3.5339,0.0,0.0,0.0,0.0,0.0,0.0,0.0,0.0,0.0,0.0,0.0,0.0,0.0,0.0,-3.3807,-3.3807,-3.3807,-3.3807,-3.3807,-3.3807,-3.3807,-3.3807,-3.3807,-3.3807,-3.3807,-3.3807,-3.3807,-3.3807,-3.3807,-3.3807,-3.4237,-3.4529,-3.4714,-3.5122,-3.5369,-3.5493,-3.5493,-3.5493,-3.5493,-3.5493,-3.5493,-3.5493,-3.5493,-3.5493,-3.5493,-3.5493,-3.5493,-3.5493,-2.8994,0.0,0.0,0.0,0.0,0.0,0.0,0.0,0.0,0.0,0.0,0.0,0.0,0.0,0.0,0.0,0.0,-3.2468,0.0,0.0,0.0,-3.5468,-3.5493,-3.5493,-3.5493,-3.5493,-3.5545,-3.5603,0.0,0.0,0.0,0.0,0.0,0.0,0.0,0.0,0.0,0.0,0.0,-3.4627,0.0,-3.5315,-3.5026,-3.5199,-3.5257,-3.5276,-3.5449,-3.5493,-3.5493,-3.5493,-3.5526,-3.5545,-3.5603,-3.5673,0.0,0.0,0.0,0.0,0.0,0.0,0.0,0.0,0.0,-3.572,0.0,0.0,0.0,-3.5545,0.0,0.0,0.0,0.0,0.0,0.0,0.0,0.0,0.0,0.0,0.0,0.0,0.0,0.0,-3.3807,-3.3807,-3.3807,-3.3807,-3.3807,-3.3807,-3.3807,-3.3807,-3.3807,-3.3807,-3.3807,-3.3807,-3.3807,-3.3807,-3.3807,-3.3788,-3.4068,-3.4379,-3.4694,-3.4981,-3.5258,-3.5493,-3.5493,-3.5493,-3.5493,-3.5493,-3.5493,-3.5493,-3.5493,-3.5493,-3.5493,-3.5493,-3.5493,-3.5493,-2.8994,-2.8994,0.0,0.0,0.0,0.0,0.0,0.0,0.0,0.0,0.0,0.0,0.0,0.0,0.0,0.0,0.0,0.0,-3.4045,0.0,0.0,-3.5507,-3.5493,-3.5493,-3.5493,-3.5493,-3.5545,-3.5603,0.0,0.0,0.0,0.0,0.0,0.0,-3.5996,0.0,0.0,0.0,-3.5756,0.0,-3.5581,-3.4629,0.0,-3.4045,-3.4353,-3.4449,-3.5218,-3.5493,-3.5493,0.0,-3.5545,-3.5603,0.0,-3.5784,-3.5883,-3.5955,0.0,0.0,0.0,0.0,0.0,0.0,-3.5875,0.0,0.0,0.0,-3.568,-3.5603,0.0,0.0,0.0,0.0,0.0,0.0,0.0,0.0,0.0,0.0,0.0,0.0,0.0,0.0,0.0,-3.3807,-3.3807,-3.3807,-3.3807,-3.3807,-3.3807,-3.3807,-3.3807,-3.3807,-3.3807,-3.3807,-3.3807,-3.3807,-3.3807,-3.3788,-3.4068,-3.4379,-3.4694,-3.4981,-3.5258,-3.5493,-3.5493,-3.5493,-3.5493,-3.5493,-3.5493,-3.5493,-3.5493,-3.5493,-3.5493,-3.5493,-3.5493,-3.5493,-2.8994,-2.8994,0.0,0.0,0.0,0.0,0.0,0.0,0.0,0.0,0.0,0.0,0.0,0.0,0.0,0.0,0.0,-3.4199,0.0,0.0,0.0,0.0,-3.5493,-3.5493,-3.5493,-3.5493,-3.5526,-3.5545,-3.5654,0.0,0.0,0.0,0.0,0.0,-3.5996,0.0,-3.5996,0.0,-3.531,0.0,0.0,0.0,0.0,-3.4263,-3.4949,-3.5007,-3.5372,-3.5493,-3.5493,0.0,-3.5545,0.0,0.0,0.0,0.0,0.0,0.0,0.0,0.0,0.0,0.0,0.0,0.0,0.0,-3.5843,0.0,-3.5795,0.0,0.0,0.0,0.0,0.0,0.0,0.0,-3.5207,0.0,0.0,0.0,0.0,0.0,0.0,0.0,-3.3807,-3.3807,-3.3807,-3.3807,-3.3807,-3.3807,-3.3807,-3.3807,-3.3807,-3.3807,-3.3807,-3.3807,-3.3807,-3.3807,-3.3807,-3.3788,-3.391,-3.4213,-3.4694,-3.4832,-3.5105,-3.5493,-3.5493,-3.5493,-3.5493,-3.5493,-3.5493,-3.5493,-3.5493,-3.5493,-3.5493,-3.5493,-3.5493,-3.5493,-2.8994,0.0,0.0,0.0,0.0,0.0,0.0,0.0,0.0,0.0,0.0,0.0,-3.0676,-3.1469,0.0,0.0,-3.3853,-3.4564,0.0,0.0,-3.5493,-3.5493,-3.5493,0.0,0.0,0.0,-3.5526,-3.5545,0.0,0.0,0.0,0.0,0.0,0.0,0.0,-3.5996,-3.5996,0.0,0.0,-3.4078,-3.4696,-3.3981,-3.2743,-3.4493,-3.5295,-3.5493,-3.5493,-3.5493,-3.5493,-3.5493,-3.5545,0.0,-3.5534,0.0,0.0,0.0,0.0,0.0,-3.5996,0.0,0.0,0.0,0.0,0.0,0.0,0.0,0.0,0.0,0.0,0.0,0.0,0.0,0.0,0.0,0.0,-3.5207,0.0,0.0,0.0,0.0,0.0,0.0,0.0,-3.3807,-3.3807,-3.3807,-3.3807,-3.3807,-3.3807,-3.3807,-3.3807,-3.3807,-3.3807,-3.3807,-3.3807,-3.3807,-3.3842,-3.3902,-3.3902,-3.4213,-3.4793,-3.4793,-3.507,-3.5493,-3.5493,-3.5493,-3.5493,-3.5493,-3.5493,-3.5493,-3.5493,-3.5493,-3.5493,-3.5493,-3.5493,-3.5493,-2.8994,-2.8994,0.0,0.0,0.0,0.0,0.0,0.0,0.0,0.0,0.0,0.0,0.0,0.0,0.0,0.0,0.0,-3.5468,-3.5468,0.0,-3.5493,-3.5493,-3.5493,-3.5493,0.0,0.0,0.0,0.0,0.0,0.0,0.0,0.0,0.0,0.0,0.0,-3.5996,-3.5996,-3.5996,-3.5933,-3.583,-3.5851,-3.5292,-3.4389,0.0,-3.4776,-3.5493,-3.5493,0.0,0.0,-3.5493,-3.5545,0.0,0.0,0.0,0.0,0.0,0.0,0.0,0.0,0.0,0.0,-3.5996,0.0,0.0,0.0,0.0,-3.5976,0.0,0.0,0.0,0.0,0.0,0.0,0.0,0.0,0.0,0.0,0.0,0.0,0.0,0.0,0.0,0.0,-3.3807,-3.3807,-3.3807,-3.3807,-3.3807,-3.3807,-3.3807,-3.3807,-3.3807,-3.3807,-3.3807,-3.3807,-3.3807,-3.391,-3.4195,-3.4195,-3.4492,-3.5088,-3.5088,-3.5239,-3.5493,-3.5493,-3.5493,-3.5493,-3.5493,-3.5493,-3.5493,-3.5493,-3.5493,-3.5493,-3.5493,-3.5493,-3.5493,0.0,0.0,0.0,0.0,0.0,0.0,0.0,-3.0815,0.0,0.0,0.0,0.0,0.0,-3.331,-3.4033,0.0,0.0,-3.5493,-3.5493,-3.5493,0.0,0.0,0.0,-3.5493,0.0,0.0,0.0,0.0,0.0,0.0,0.0,0.0,0.0,0.0,0.0,-3.5996,0.0,0.0,0.0,0.0,0.0,-3.3994,-3.369,0.0,-3.3722,-3.4049,-3.4634,-3.4787,0.0,-3.5359,-3.5584,-3.5597,-3.556,-3.5708,-3.5868,-3.5781,-3.5882,-3.5996,0.0,0.0,-3.5996,-3.5996,0.0,0.0,0.0,0.0,0.0,0.0,0.0,0.0,0.0,0.0,0.0,0.0,0.0,0.0,0.0,0.0,0.0,0.0,0.0,0.0,0.0,0.0,0.0,-3.3815,-3.3807,-3.3807,-3.3807,-3.3807,-3.3807,-3.3807,-3.3807,-3.3807,-3.3807,-3.3986,-3.4099,-3.42,-3.4423,-3.4735,-3.5105,-3.5105,-3.5258,-3.5493,-3.5493,-3.5493,-3.5493,-3.5493,-3.5493,-3.5493,-3.5493,-3.5493,-3.5493,-3.5493,-3.5493,-3.5493,-3.1384,0.0,0.0,0.0,0.0,0.0,0.0,0.0,0.0,0.0,-3.2279,0.0,-3.3185,0.0,-3.4263,0.0,-3.518,-3.5493,-3.5493,-3.5493,0.0,-3.5493,-3.5493,0.0,0.0,0.0,0.0,0.0,0.0,-3.5724,0.0,0.0,0.0,0.0,0.0,-3.5996,-3.5996,0.0,-3.5684,0.0,0.0,-3.3161,0.0,0.0,-3.2717,-3.3269,0.0,-3.3986,-3.4041,-3.4905,-3.5205,-3.5243,-3.5455,-3.5699,-3.5875,-3.5741,-3.5841,-3.5996,-3.5996,-3.5996,0.0,-3.5996,-3.5996,0.0,-3.5996,0.0,-3.5996,0.0,0.0,0.0,0.0,0.0,0.0,0.0,0.0,0.0,0.0,-3.5545,0.0,0.0,0.0,0.0,0.0,0.0,-3.4307,-3.4136,-3.4111,-3.4062,0.0,-3.3935,-3.3902,-3.3788,-3.3807,-3.366,-3.3385,-3.3536,-3.3523,-3.3366,-3.3949,-3.4377,-3.4645,-3.5054,-3.5339,-3.5493,-3.5493,-3.5493,-3.5493,-3.5493,-3.5493,-3.5493,-3.5493,-3.5493,-3.5493,-3.5493,-3.5493,-3.5493,0.0,0.0,0.0,0.0,-3.1513,0.0,0.0,0.0,-3.2753,0.0,-3.3506,-3.4141,-3.4999,-3.4889,-3.4944,-3.5446,-3.5493,-3.5493,-3.5493,-3.5493,0.0,0.0,-3.5493,-3.5493,-3.5493,0.0,0.0,0.0,0.0,0.0,0.0,0.0,0.0,0.0,-3.5996,0.0,-3.5996,-3.5996,-3.5957,-3.5723,-3.4023,-3.2851,-3.205,-3.1213,-3.1819,-3.309,-3.3129,-3.3148,-3.3276,-3.4137,-3.443,-3.457,-3.5309,-3.5674,-3.5824,-3.5732,-3.5857,-3.5996,-3.5996,-3.5996,-3.5996,-3.5996,-3.5996,0.0,0.0,0.0,-3.5996,0.0,0.0,0.0,0.0,0.0,0.0,0.0,0.0,0.0,0.0,0.0,0.0,0.0,0.0,0.0,0.0,-3.4714,-3.4714,-3.4694,-3.4636,0.0,0.0,-3.4083,-3.3938,-3.3678,-3.3678,-3.3311,-3.2559,-3.2566,-3.2317,-3.1843,-3.2881,-3.3521,-3.3796,-3.488,-3.5372,-3.5372,-3.543,-3.5449,-3.5449,-3.5474,-3.5493,-3.5493,-3.5493,-3.5493,-3.5493,-3.5493,-3.5493,-3.5493,-3.3183,-3.3183,-3.3183,0.0,-3.3183,-3.3183,0.0,0.0,0.0,0.0,-3.4102,-3.4551,-3.4774,-3.5105,-3.5354,-3.5493,-3.5493,0.0,0.0,0.0,0.0,-3.5493,-3.5493,-3.5493,-3.5493,-3.5493,0.0,-3.5584,0.0,0.0,-3.5705,0.0,0.0,0.0,0.0,0.0,-3.5937,-3.5976,-3.5254,-3.3984,-3.293,-3.1992,-3.1211,0.0,-3.1142,-3.1571,-3.2217,-3.2393,-3.245,-3.3308,-3.3568,-3.368,-3.4523,-3.485,-3.5045,-3.5669,-3.5918,-3.5996,-3.5996,-3.5996,-3.5996,-3.5996,-3.5996,-3.5996,0.0,0.0,0.0,0.0,0.0,0.0,0.0,0.0,0.0,0.0,0.0,0.0,0.0,0.0,0.0,-3.5493,0.0,0.0,0.0,-3.4999,-3.4926,-3.4714,-3.3923,0.0,0.0,0.0,-3.209,-3.2008,-3.2008,-3.1916,-3.1715,-3.2113,-3.2236,-3.2108,-3.2724,-3.3053,-3.3146,-3.3436,-3.3564,-3.3603,-3.4257,-3.4526,-3.4584,-3.5238,-3.5493,-3.5493,-3.5493,-3.5493,-3.5493,-3.5493,-3.5493,-3.5493,-3.3807,0.0,0.0,-3.3807,0.0,0.0,-3.3807,0.0,0.0,-3.416,-3.4353,0.0,-3.4999,-3.5207,-3.5369,-3.5493,-3.5493,0.0,-3.5493,0.0,0.0,-3.5493,-3.5493,-3.5493,-3.5493,-3.5493,0.0,-3.5603,0.0,0.0,-3.5713,0.0,0.0,0.0,0.0,-3.5935,0.0,-3.5566,-3.4648,-3.332,-3.2519,-3.168,0.0,-3.0898,-3.0898,-3.0957,-3.1465,-3.1582,-3.1641,-3.2539,-3.2783,-3.2904,-3.3723,-3.4004,-3.4135,-3.4614,-3.506,-3.5391,-3.543,-3.5703,-3.5996,-3.5996,-3.5996,-3.5996,-3.5996,-3.5996,-3.5996,0.0,-3.5996,-3.5996,0.0,0.0,0.0,0.0,0.0,0.0,0.0,0.0,0.0,0.0,-3.4603,0.0,-3.4159,-3.447,-3.448,-3.3949,-3.3314,0.0,0.0,0.0,-3.1824,-3.1712,-3.1712,-3.1522,-3.1191,-3.1485,-3.1468,-3.111,-3.1855,-3.221,-3.2229,-3.2692,-3.2891,-3.2929,-3.341,-3.3622,-3.3699,-3.4564,-3.493,-3.4968,-3.5353,-3.5493,-3.5493,-3.5493,-3.5493,-3.5493,0.0,0.0,0.0,0.0,0.0,0.0,0.0,-3.3868,0.0,-3.4569,0.0,-3.4597,-3.535,-3.5273,-3.5258,-3.5479,0.0,-3.5493,-3.5493,-3.5493,-3.5493,-3.5493,-3.5493,-3.5493,-3.5493,-3.5493,-3.5545,0.0,0.0,0.0,0.0,0.0,0.0,0.0,0.0,0.0,0.0,-3.4863,-3.4023,-3.3164,-3.2363,-3.1582,-3.0898,-3.0898,-3.0898,-3.0898,-3.0898,-3.0898,-3.1016,-3.1777,-3.2031,-3.2168,-3.293,-3.3151,-3.3164,-3.3288,-3.3847,-3.4434,-3.4512,-3.5078,-3.5664,-3.5664,-3.5664,-3.5664,-3.5664,-3.5664,-3.5664,-3.5664,-3.5664,-3.5664,-3.5664,0.0,0.0,0.0,0.0,0.0,0.0,0.0,0.0,0.0,0.0,0.0,0.0,0.0,0.0,0.0,0.0,0.0,0.0,0.0,-3.2041,-3.1789,-3.1789,-3.145,-3.0734,-3.077,-3.0429,-2.9748,-3.0715,-3.1183,-3.1202,-3.2154,-3.2564,-3.2583,-3.2699,-3.2737,-3.2814,-3.366,-3.4103,-3.4276,-3.5161,-3.5493,-3.5493,-3.5493,-3.5493,-3.5493,0.0,0.0,0.0,0.0,0.0,-3.3876,-3.4117,-3.4123,-3.4171,-3.4269,-3.4676,-3.4999,-3.5138,-3.5339,-3.5446,-3.5493,-3.5493,0.0,0.0,0.0,0.0,-3.5493,-3.5493,-3.5493,-3.5493,-3.5493,-3.5526,0.0,0.0,0.0,0.0,0.0,0.0,0.0,0.0,0.0,-3.4766,-3.3906,0.0,-3.2344,-3.1465,-3.1035,-3.0898,-3.0898,-3.0898,-3.0898,-3.0898,-3.0898,-3.0918,-3.1074,-3.1133,-3.1289,-3.2129,-3.2327,-3.2382,-3.3152,-3.3446,-3.3535,-3.3613,-3.373,-3.3867,-3.3867,-3.3867,-3.3867,-3.3867,-3.3867,-3.3867,-3.3867,-3.3867,-3.3867,-3.3867,0.0,0.0,0.0,0.0,0.0,0.0,0.0,0.0,0.0,0.0,-3.273,0.0,0.0,0.0,0.0,0.0,0.0,0.0,0.0,-3.0182,0.0,-3.0111,-3.0054,0.0,0.0,-3.0087,-2.9954,-3.0362,-3.0554,-3.0554,-3.0751,-3.0852,-3.0891,-3.1602,-3.191,-3.1968,-3.2795,-3.3545,-3.4276,-3.5161,-3.5493,-3.5493,-3.5493,-3.5493,-3.5493,0.0,0.0,0.0,0.0,0.0,0.0,0.0,-3.4357,0.0,-3.4656,-3.4925,-3.5138,-3.5289,-3.5432,-3.5493,-3.5493,-3.5493,-3.5493,-3.5493,-3.5493,-3.5493,-3.5493,-3.5493,-3.5493,-3.5493,-3.5493,-3.5526,-3.5565,0.0,0.0,0.0,0.0,0.0,0.0,0.0,-3.4955,0.0,0.0,0.0,-3.2129,-3.125,-3.0898,-3.0898,-3.0898,-3.0898,-3.0898,-3.0898,-3.0898,-3.0898,-3.0898,-3.0898,-3.0976,-3.1387,-3.141,-3.138,-3.1934,-3.2334,-3.2595,-3.2733,-3.3086,-3.3398,-3.3398,-3.3398,-3.3398,-3.3398,-3.3398,-3.3398,-3.3398,-3.3398,-3.3398,-3.3398,-3.3398,0.0,0.0,0.0,0.0,0.0,0.0,0.0,0.0,0.0,0.0,0.0,0.0,0.0,0.0,0.0,0.0,0.0,0.0,-3.0052,0.0,0.0,0.0,-3.0052,0.0,-3.0209,-3.0209,-3.0343,-3.0398,-3.0398,-3.0398,-3.0398,-3.0417,-3.0852,-3.1025,-3.1102,-3.1929,-3.3045,-3.4237,-3.4661,-3.5103,-3.5493,-3.5493,-3.5493,-3.5493,0.0,-3.3807,0.0,0.0,-3.3842,0.0,-3.4265,-3.4593,-3.487,-3.507,-3.5138,-3.5273,-3.5479,-3.5493,-3.5493,-3.5493,-3.5493,-3.5493,-3.5493,-3.5493,-3.5493,-3.5493,-3.5493,-3.5493,-3.5493,-3.5493,-3.5545,0.0,0.0,0.0,0.0,0.0,0.0,0.0,0.0,0.0,0.0,0.0,-3.2079,-3.1855,-3.1172,-3.0898,-3.0898,-3.0898,-3.0898,-3.0898,-3.0898,-3.0898,-3.0898,-3.0898,-3.0898,-3.0898,-3.0898,-3.0757,-3.0646,-3.0846,-3.1234,-3.1675,-3.1871,-3.2383,-3.2871,-3.2871,-3.2871,-3.2871,-3.2871,-3.2871,-3.2871,-3.2871,-3.2871,-3.2871,-3.2871,-3.2871,0.0,0.0,0.0,0.0,0.0,0.0,0.0,0.0,0.0,0.0,-3.0597,0.0,0.0,0.0,0.0,0.0,-3.0398,0.0,0.0,0.0,0.0,-3.0398,-3.0398,0.0,-3.0398,-3.0398,-3.0398,-3.0398,-3.0398,-3.0398,-3.0398,-3.0398,-3.0398,-3.0398,-3.0456,-3.1352,-3.2487,-3.3699,-3.4064,-3.4622,-3.5257,-3.543,-3.5493,-3.5493,0.0,0.0,0.0,0.0,0.0,0.0,-3.4593,-3.4889,-3.507,-3.5105,-3.5304,-3.546,-3.5493,-3.5493,-3.5493,-3.5493,-3.5493,-3.5493,-3.5493,-3.5493,-3.5493,-3.5493,-3.5493,-3.5493,-3.5493,-3.5493,-3.5493,0.0,0.0,-3.5603,0.0,0.0,0.0,0.0,0.0,0.0,0.0,-3.2061,-3.162,-3.1016,-3.0937,-3.0898,-3.0898,-3.0898,-3.0898,-3.0898,-3.0898,-3.0898,-3.0898,-3.0898,-3.0898,-3.0898,-3.0898,-3.0757,-3.0646,-3.0846,-3.0819,-3.0774,-3.0973,-3.1074,-3.1133,-3.1133,-3.1133,-3.1133,-3.1133,-3.1133,-3.1133,-3.1133,-3.1133,-3.1133,-3.1133,-3.1133,-3.1133,0.0,0.0,0.0,0.0,0.0,-3.0996,-3.0996,0.0,0.0,0.0,-3.0545,0.0,0.0,-3.0467,0.0,0.0,0.0,0.0,-3.0398,-3.0398,-3.0398,-3.0398,-3.0398,-3.0398,-3.0398,-3.0398,-3.0398,-3.0398,-3.0398,-3.0398,-3.0398,-3.0398,-3.0398,-3.0456,-3.1352,-3.1795,-3.2083,-3.3603,-3.4237,-3.441,-3.5218,-3.5493,-3.5479,0.0,0.0,0.0,0.0,0.0,0.0,0.0,-3.4926,-3.5174,-3.532,-3.5432,-3.5493,-3.5493,-3.5493,-3.5493,-3.5493,-3.5493,-3.5493,-3.5493,-3.5493,-3.5493,-3.5493,-3.5493,-3.5493,-3.5493,-3.5493,-3.5493,0.0,0.0,0.0,0.0,0.0,0.0,0.0,0.0,-3.2499,-3.1884,-3.1507,-3.1172,-3.0898,-3.0898,-3.0898,-3.0898,-3.0898,-3.0898,-3.0898,-3.0898,-3.0898,-3.0898,-3.0898,-3.0898,-3.0898,-3.0898,-3.0757,-3.0626,-3.0749,-3.0683,-3.0638,-3.0758,-3.084,-3.0898,-3.0898,-3.0898,-3.0898,-3.0898,-3.0898,-3.0898,-3.0898,-3.0898,-3.0898,-3.0898,-3.0898,-3.0898,-3.0898,0.0,0.0,0.0,0.0,0.0,-3.0898,0.0,-3.0804,0.0,-3.0768,0.0,0.0,0.0,0.0,0.0,0.0,0.0,-3.0398,0.0,-3.0398,-3.0398,-3.0398,-3.0398,-3.0398,-3.0398,-3.0398,-3.0398,-3.0398,-3.0398,-3.0398,-3.0398,-3.0398,-3.0417,-3.0794,-3.1237,-3.1814,-3.2968,-3.3737,-3.4314,-3.518,-3.5383,-3.5223,-3.3807,0.0,-3.3807,0.0,-3.4093,-3.4423,-3.4674,-3.4999,-3.5289,-3.5479,-3.5493,-3.5493,-3.5493,-3.5493,-3.5493,-3.5493,-3.5493,-3.5493,-3.5493,-3.5493,-3.5493,-3.5493,-3.5493,0.0,-3.5493,-3.5493,-3.5526,-3.5545,-3.5262,0.0,0.0,0.0,0.0,0.0,-3.2148,-3.1727,-3.1469,-3.1021,-3.084,-3.084,-3.0879,-3.0898,-3.0898,-3.0898,-3.0898,-3.0898,-3.0898,-3.0898,-3.0898,-3.0898,-3.0898,-3.0898,-3.0898,-3.0757,-3.0607,-3.0672,-3.0646,-3.0607,-3.0657,-3.0779,-3.0898,-3.0859,-3.0879,-3.0898,-3.0898,-3.0898,-3.0898,-3.0898,-3.0898,-3.0898,-3.0898,-3.0898,-3.0898,-3.0898,0.0,0.0,0.0,-3.0898,0.0,-3.0898,-3.0898,-3.0875,-3.0849,-3.0836,0.0,0.0,0.0,0.0,0.0,0.0,0.0,0.0,0.0,0.0,-3.0398,-3.0398,-3.0398,-3.0398,-3.0398,-3.0398,-3.0398,-3.0398,-3.0398,-3.0398,-3.0398,-3.0398,-3.0398,-3.0398,-3.0756,-3.141,-3.2237,-3.3064,-3.391,-3.4795,-3.5109,-3.507,-3.3807,-3.3807,-3.3807,-3.3807,-3.4302,-3.4713,-3.4694,-3.5138,-3.5493,-3.5493,-3.5493,-3.5493,-3.5493,-3.5493,-3.5493,-3.5493,-3.5493,-3.5493,-3.5493,-3.5493,-3.5493,0.0,0.0,-3.5493,-3.5493,-3.5493,-3.5545,-3.5603,0.0,0.0,-3.4499,0.0,-3.2561,-3.1718,-3.1782,-3.132,-3.0533,-3.0648,-3.0703,-3.0703,-3.0859,-3.0898,-3.0898,-3.0898,-3.0898,-3.0898,-3.0898,-3.0898,-3.0898,-3.0898,-3.0898,-3.0898,-3.0898,-3.0757,-3.0607,-3.0672,-3.0641,-3.0593,-3.06,-3.0752,-3.0879,-3.0742,-3.0801,-3.0898,-3.0898,-3.0898,-3.0898,-3.0898,-3.0898,-3.0898,-3.0898,-3.0898,-3.0898,-3.0898,0.0,0.0,0.0,-3.0898,0.0,-3.0898,-3.0898,-3.0859,-3.0723,-3.0703,0.0,0.0,0.0,0.0,0.0,0.0,0.0,-3.0398,-3.0398,0.0,-3.0398,-3.0398,-3.0398,-3.0398,-3.0398,-3.0398,-3.0398,-3.0398,-3.0398,-3.0398,-3.0398,-3.0398,-3.0398,-3.0398,-3.0398,-3.0494,-3.1371,-3.2218,-3.3026,-3.3891,-3.4591,-3.507,-3.3807,-3.3807,-3.3868,-3.4043,-3.442,-3.4754,-3.4944,-3.5273,-3.5493,-3.5493,-3.5493,-3.5493,-3.5493,-3.5493,-3.5493,0.0,-3.5493,-3.5493,0.0,-3.5493,-3.5493,-3.5493,-3.5545,-3.5584,-3.5584,-3.5089,-3.4826,-3.4845,0.0,0.0,0.0,-3.2334,-3.1719,-3.0891,-3.0898,-3.0772,-3.0509,-3.0634,-3.0697,-3.0703,-3.0859,-3.0898,-3.0898,-3.0898,-3.0898,-3.0898,-3.0898,-3.0898,-3.0898,-3.0898,-3.0898,-3.0898,-3.0898,-3.0757,-3.0607,-3.0634,-3.0583,-3.0532,-3.054,-3.0603,-3.0695,-3.0648,-3.0669,-3.0708,-3.0708,-3.0708,-3.0708,-3.0708,-3.0708,-3.0708,-3.0708,-3.0708,-3.071,-3.0761,-3.0762,0.0,-3.0898,0.0,-3.0898,-3.0898,-3.0898,-3.0879,-3.084,-3.0843,0.0,0.0,0.0,0.0,0.0,0.0,0.0,0.0,-3.0487,0.0,-3.0467,-3.0417,-3.0398,-3.0398,-3.0398,-3.0398,-3.0398,-3.0398,-3.0398,-3.0398,-3.0398,-3.0398,-3.0398,-3.0398,-3.0398,-3.0475,-3.1371,-3.1852,-3.2225,-3.3485,-3.393,-3.3979,-3.391,-3.3935,-3.4043,-3.4334,-3.4634,-3.4908,-3.507,-3.5339,-3.5493,-3.5493,-3.5493,-3.5493,-3.5493,-3.5493,0.0,-3.5493,-3.5493,-3.5493,-3.5493,-3.5493,-3.5353,-3.5026,-3.5045,-3.493,-3.4628,-3.4134,0.0,-3.4049,-3.3125,-3.224,-3.1348,-3.1358,-3.1032,-3.0467,-3.0467,-3.0467,-3.0467,-3.0583,-3.0637,-3.0669,-3.078,-3.0859,-3.0898,-3.0898,-3.0898,-3.0898,-3.0898,-3.0898,-3.0898,-3.0898,-3.0898,-3.0898,-3.0898,-3.0757,-3.0607,-3.0595,-3.0544,-3.0491,-3.0472,-3.0537,-3.059,-3.0557,-3.0579,-3.0599,-3.0599,-3.0599,-3.0599,-3.0599,-3.0599,-3.0599,-3.0599,-3.0599,-3.0618,-3.0682,-3.0691,-3.0742,-3.0879,0.0,-3.0898,0.0,0.0,0.0,0.0,-3.0898,-3.0895,0.0,0.0,0.0,0.0,0.0,-3.0637,-3.0608,-3.0569,-3.0539,-3.0506,-3.0467,-3.0417,-3.0398,-3.0398,-3.0398,-3.0398,-3.0398,-3.0398,-3.0398,-3.0398,-3.0398,-3.0398,-3.0398,-3.0398,-3.0436,-3.1006,-3.1354,-3.1678,-3.2882,-3.3279,-3.3339,-3.4195,-3.4223,-3.4334,0.0,-3.4944,0.0,-3.5122,-3.5354,-3.5493,-3.5493,-3.5493,-3.5493,-3.5493,-3.5493,-3.5493,-3.5493,0.0,0.0,-3.5493,-3.5449,-3.5045,-3.4237,-3.4141,-3.3776,-3.3019,-3.2884,-3.291,-3.3114,-3.242,-3.1584,-3.0581,-3.0588,-3.0525,-3.0398,-3.0398,-3.0398,-3.0398,-3.0467,-3.054,-3.06,-3.0673,-3.0781,-3.0898,-3.0898,-3.0898,-3.0898,-3.0898,-3.0898,-3.0898,-3.0898,-3.0898,-3.0898,-3.0898,-3.0777,-3.0607,-3.0595,-3.0544,-3.0487,-3.0417,-3.0487,-3.0564,-3.0506,-3.0544,-3.0583,-3.0583,-3.0583,-3.0583,-3.0583,-3.0583,-3.0583,-3.0583,-3.0583,-3.0621,-3.0679,-3.0695,-3.0741,-3.0879,-3.0898,-3.0898,0.0,0.0,0.0,-3.0898,-3.0898,-3.0898,0.0,0.0,0.0,0.0,0.0,-3.0693,-3.0623,-3.0617,-3.0591,-3.0506,-3.0506,-3.0467,-3.0398,-3.0398,-3.0398,-3.0398,-3.0398,-3.0398,-3.0398,-3.0398,-3.0398,-3.0398,-3.0398,-3.0398,-3.0398,-3.0367,-3.072,-3.1291,-3.2083,-3.26,-3.3026,0.0,0.0,-3.4655,-3.4963,-3.507,-3.5174,-3.5369,-3.5446,-3.5493,-3.5493,-3.5493,-3.5493,-3.5493,-3.5493,-3.5493,-3.5493,-3.5493,-3.5493,-3.5493,-3.4872,-3.441,-3.4199,-3.3654,-3.3269,-3.3077,-3.2463,-3.1824,-3.1155,-3.1092,-3.0856,-3.0451,-3.056,-3.0525,-3.0398,-3.0398,-3.0398,-3.0398,-3.0467,-3.054,-3.0608,-3.0677,-3.0781,-3.0898,-3.0898,-3.0898,-3.0898,-3.0898,-3.0898,-3.0898,-3.0898,-3.0898,-3.0898,-3.0898,-3.0796,-3.0665,-3.0614,-3.0525,-3.0417,-3.0398,-3.0417,-3.0448,-3.0417,-3.0448,-3.0448,-3.0448,-3.0448,-3.0448,-3.0448,-3.0448,-3.0448,-3.0448,-3.0487,-3.0544,-3.0602,-3.0665,-3.0756,-3.0876,-3.0898,-3.0898,0.0,-3.0898,-3.0898,-3.0898,-3.0898,-3.0898,0.0,0.0,-3.0898,-3.0898,-3.0879,-3.0859,-3.0834,-3.0735,-3.0667,-3.0652,-3.0544,-3.0467,-3.0398,-3.0398,-3.0398,-3.0398,-3.0398,-3.0398,-3.0398,-3.0398,-3.0398,-3.0398,-3.0398,-3.0398,-3.0367,-3.0163,-3.0176,-3.0369,-3.0866,-3.1493,-3.218,-3.4813,-3.4889,-3.4963,-3.5223,-3.5289,-3.532,-3.5479,-3.5493,-3.5493,-3.5493,-3.5493,-3.5493,-3.5493,-3.5493,-3.5353,-3.4949,-3.4911,-3.4911,-3.4911,-3.4083,-3.343,-3.3064,-3.2673,-3.2288,-3.1922,-3.1458,-3.0975,-3.0506,-3.061,-3.0583,-3.0448,-3.0525,-3.0506,-3.0398,-3.0398,-3.0398,-3.0398,-3.0448,-3.0506,-3.0598,-3.0633,-3.0753,-3.0898,-3.0898,-3.0898,-3.0898,-3.0898,-3.0898,-3.0898,-3.0898,-3.0898,-3.0898,-3.0898,-3.0813,-3.0689,-3.0626,-3.0528,-3.0448,-3.0398,-3.0398,-3.0398,-3.0398,-3.0398,-3.0398,-3.0398,-3.0398,-3.0398,-3.0398,-3.0398,-3.0398,-3.0398,-3.0448,-3.0532,-3.0598,-3.0634,-3.0722,-3.0874,-3.0859,-3.082,-3.0898,-3.0898,-3.0898,-3.0898,-3.0898,-3.0898,-3.0898,-3.0898,0.0,-3.0898,-3.0898,-3.0898,-3.0898,-3.082,-3.0752,-3.0703,-3.0574,-3.0467,-3.0398,-3.0398,-3.0398,-3.0398,-3.0398,-3.0398,-3.0398,-3.0398,-3.0398,-3.0398,-3.0398,-3.0323,-3.0209,-3.0061,-2.9893,-2.979,-3.037,-3.1017,-3.1695,-3.5105,-3.5155,-3.5223,-3.546,-3.5493,-3.5493,-3.5493,-3.5493,-3.5493,-3.5493,-3.5493,-3.5493,-3.5493,-3.5391,-3.5007,-3.4257,-3.3968,-3.3872,-3.3987,-3.3199,-3.241,-3.1737,-3.1564,-3.1179,-3.0506,-3.0417,-3.0417,-3.0487,-3.0544,-3.0544,-3.0487,-3.0506,-3.0467,-3.0398,-3.0398,-3.0398,-3.0398,-3.0398,-3.0487,-3.0606,-3.061,-3.0719,-3.0898,-3.0898,-3.0898,-3.0898,-3.0898,-3.0898,-3.0898,-3.0898,-3.0898,-3.0898,-3.0898,-3.0818,-3.0684,-3.0614,-3.0546,-3.0487,-3.0417,-3.0398,-3.0398,-3.0398,-3.0398,-3.0398,-3.0398,-3.0398,-3.0398,-3.0398,-3.0398,-3.0398,-3.0398,-3.0467,-3.0537,-3.0581,-3.0621,-3.0696,-3.0858,0.0,-3.0762,-3.0898,-3.0898,-3.0898,-3.0898,-3.0898,-3.0898,-3.0898,-3.0898,-3.0898,-3.0898,-3.0898,-3.0898,-3.0898,-3.0898,-3.0827,-3.0684,-3.0569,-3.0487,-3.0398,-3.0398,-3.0398,-3.0398,-3.0398,-3.0398,-3.0398,-3.0398,-3.0386,-3.0355,-3.0379,-3.0209,-2.9954,-2.9954,-2.9731,-2.9467,-3.0113,-3.0715,-3.1329,-3.5383,-3.5432,-3.5446,-3.5493,-3.5493,-3.5493,-3.5493,-3.5493,-3.5493,-3.5493,-3.5493,-3.5493,-3.5493,-3.4834,-3.4353,-3.4199,-3.291,-3.2372,-3.3064,-3.2333,-3.1833,-3.1718,-3.0987,-3.0533,-3.0417,-3.0398,-3.0398,-3.0417,-3.0487,-3.0487,-3.0417,-3.0467,-3.0467,-3.0398,-3.0398,-3.0398,-3.0398,-3.0398,-3.0487,-3.0606,-3.061,-3.0719,-3.0898,-3.0898,-3.0898,-3.0898,-3.0898,-3.0898,-3.0898,-3.0898,-3.0898,-3.0898,-3.0898,-3.0808,-3.0694,-3.0626,-3.0546,-3.0487,-3.0417,-3.0398,-3.0398,-3.0398,-3.0398,-3.0398,-3.0398,-3.0398,-3.0398,-3.0398,-3.0398,-3.0398,-3.0398,-3.0506,-3.0574,-3.0521,-3.0715,-3.0813,-3.0752,0.0,-3.0879,-3.0898,-3.0898,-3.0898,-3.0898,-3.0898,-3.0898,-3.0898,-3.0898,-3.0898,-3.0898,-3.0898,-3.0898,-3.0898,-3.0898,-3.0808,-3.0625,-3.0588,-3.0525,-3.0398,-3.0398,-3.0398,-3.0398,-3.0398,-3.0398,-3.0398,-3.0398,-3.0267,-3.0075,-3.0311,-3.0142,-2.9748,-2.9748,-2.9607,-2.939,-2.9285,-2.9719,-3.0503,-3.5479,-3.5493,-3.5493,-3.5493,-3.5493,-3.5493,-3.5493,-3.5493,-3.5493,-3.5493,-3.5084,-3.4795,-3.4795,-3.4026,-3.3333,-3.2891,-3.2141,-3.166,-3.1564,-3.1218,-3.1006,-3.1006,-3.0609,-3.0398,-3.0398,-3.0398,-3.0398,-3.0398,-3.0417,-3.0417,-3.0398,-3.0417,-3.0417,-3.0398,-3.0398,-3.0398,-3.0398,-3.0448,-3.0506,-3.0595,-3.0646,-3.0759,-3.0898,-3.0898,-3.0898,-3.0898,-3.0898,-3.0898,-3.0898,-3.0898,-3.0898,-3.0897,-3.0891,-3.0808,-3.0694,-3.0627,-3.0528,-3.0448,-3.0398,-3.0398,-3.0398,-3.0398,-3.0398,-3.0398,-3.0398,-3.0398,-3.0398,-3.0398,-3.0398,-3.0398,-3.0398,-3.0487,-3.0554,-3.0505,-3.0632,-3.0717,-3.066,-3.0734,-3.0784,-3.0781,-3.0859,-3.0898,-3.0898,-3.0898,-3.0898,-3.0898,-3.0825,-3.0782,-3.0782,-3.0754,-3.0746,-3.0746,-3.0764,-3.0703,-3.0539,-3.0554,-3.0506,-3.0398,-3.0398,-3.0398,-3.0398,-3.0398,-3.0398,-3.0398,-3.0254,-3.0103,-2.9999,-3.0022,-2.9815,-2.9551,-2.9551,-2.9375,-2.9178,-2.9062,-2.9512,-3.0246,-3.5493,-3.5493,-3.5493,-3.5493,-3.5493,-3.5493,-3.5493,-3.5334,-3.5199,-3.5199,-3.443,-3.3891,-3.3891,-3.3122,-3.2372,-3.1756,-3.1506,-3.1121,-3.0436,-3.0398,-3.0398,-3.0398,-3.0398,-3.0398,-3.0398,-3.0398,-3.0398,-3.0398,-3.0398,-3.0398,-3.0398,-3.0398,-3.0398,-3.0398,-3.0398,-3.0398,-3.0398,-3.0467,-3.054,-3.0606,-3.0675,-3.0787,-3.0898,-3.0898,-3.0898,-3.0898,-3.0898,-3.0898,-3.0898,-3.0898,-3.0898,-3.0895,-3.0904,-3.0809,-3.0679,-3.0621,-3.0506,-3.0398,-3.0398,-3.0398,-3.0398,-3.0398,-3.0398,-3.0398,-3.0398,-3.0398,-3.0398,-3.0398,-3.0398,-3.0398,-3.0398,-3.0448,-3.0494,-3.0481,0.0,-3.0614,-3.0581,-3.0646,-3.0684,-3.0687,-3.078,-3.0859,-3.0834,-3.0843,-3.0841,-3.0852,-3.0729,-3.0681,-3.071,-3.0645,-3.0579,-3.0579,-3.0645,-3.0621,-3.0506,-3.0506,-3.0467,-3.0398,-3.0398,-3.0398,-3.0398,-3.0398,-3.0367,-3.0299,-3.0089,-2.9954,-2.9845,-2.9729,-2.9551,-2.931,-2.9372,-2.9225,-2.8994,-2.8994,-2.9402,-2.9953,-3.5493,-3.5493,-3.5493,-3.5493,-3.5493,-3.5493,-3.5493,-3.4814,-3.4295,-3.4295,-3.3545,-3.3006,-3.3006,-3.2275,-3.1756,-3.1718,-3.0968,-3.0456,-3.0398,-3.0398,-3.0398,-3.0398,-3.0398,-3.0398,-3.0398,-3.0398,-3.0398,-3.0398,-3.0398,-3.0398,-3.0398,-3.0398,-3.0398,-3.0398,-3.0398,-3.0398,-3.0398,-3.0467,-3.054,-3.0614,-3.0674,-3.0787,-3.0898,-3.0898,-3.0898,-3.0898,-3.0898,-3.0898,-3.0898,-3.0898,-3.0898,-3.0898,-3.0897,-3.082,-3.0679,-3.0621,-3.0506,-3.0398,-3.0398,-3.0398,-3.0398,-3.0398,-3.0398,-3.0398,-3.0398,-3.0398,-3.0398,-3.0398,-3.0398,-3.0398,-3.0398,-3.0448,-3.0487,-3.0421,0.0,0.0,-3.0521,-3.0607,-3.0684,-3.06,-3.0667,-3.0696,-3.0633,-3.0673,-3.0714,-3.0709,-3.0658,-3.0626,-3.0691,-3.0645,-3.0579,-3.0521,-3.0575,-3.0564,-3.0506,-3.0506,-3.0467,-3.0398,-3.0398,-3.0398,-3.0398,-3.0398,-3.0267,-3.0028,-3.0013,-2.978,-2.9454,-2.9644,-2.9436,-2.9044,-2.931,-2.9225,-2.8994,-2.8994,-2.903,-2.92,-3.5493,-3.5493,-3.5334,-3.4795,-3.4699,-3.4507,-3.3968,-3.3603,-3.3391,-3.3391,-3.266,-3.216,-3.216,-3.141,-3.0891,-3.0891,-3.059,-3.0398,-3.0398,-3.0398,-3.0398,-3.0398,-3.0398,-3.0398,-3.0398,-3.0398,-3.0398,-3.0398,-3.0398,-3.0398,-3.0398,-3.0398,-3.0398,-3.0398,-3.0448,-3.0467,-3.0467,-3.0583,-3.0651,-3.0665,-3.0781,-3.0855,-3.0898,-3.0898,-3.0898,-3.0898,-3.0898,-3.0898,-3.0898,-3.0898,-3.0898,-3.0898,-3.0908,-3.0787,-3.0623,-3.0524,-3.0448,-3.0398,-3.0398,-3.0398,-3.0398,-3.0398,-3.0398,-3.0398,-3.0398,-3.0398,-3.0398,-3.0398,-3.0398,-3.0398,-3.0398,-3.0417,-3.0417,-3.0398,0.0,-3.0529,-3.0451,-3.0552,-3.0609,-3.0559,-3.061,-3.0639,-3.06,-3.0617,-3.0629,-3.0637,-3.0588,-3.0539,-3.0564,-3.0506,-3.0467,-3.0448,-3.0467,-3.0467,-3.0448,-3.0448,-3.0417,-3.0398,-3.0398,-3.0398,-3.0398,-3.0241,-3.0089,-2.9984,-2.9748,-2.9551,-2.9392,-2.9293,-2.9163,-2.9017,-2.9112,-2.9089,-2.8994,-2.8994,-2.8994,-2.903,-3.468,-3.468,-3.4507,-3.3891,-3.3795,-3.3583,-3.2987,-3.2699,-3.2526,-3.2526,-3.1795,-3.1295,-3.1295,-3.0756,-3.0398,-3.0398,-3.0398,-3.0398,-3.0398,-3.0398,-3.0398,-3.0398,-3.0398,-3.0398,-3.0398,-3.0398,-3.0398,-3.0398,-3.0398,-3.0398,-3.0398,-3.0398,-3.0398,-3.0398,-3.0467,-3.0506,-3.0506,-3.0641,-3.0698,-3.0717,-3.0843,-3.0898,-3.0898,-3.0898,-3.0898,-3.0898,-3.0898,-3.0898,-3.0898,-3.0898,-3.0909,-3.0899,-3.0853,-3.0711,-3.0543,-3.0466,-3.0417,-3.0398,-3.0398,-3.0398,-3.0398,-3.0398,-3.0398,-3.0398,-3.0398,-3.0398,-3.0398,-3.0398,-3.0398,-3.0398,-3.0398,-3.0398,-3.0398,-3.0398,-3.0467,-3.0487,-3.0398,-3.0506,-3.0544,-3.0487,-3.0525,-3.0565,-3.054,-3.0558,-3.0564,-3.0564,-3.0506,-3.0467,-3.0467,-3.0417,-3.0398,-3.0398,-3.0398,-3.0398,-3.0398,-3.0398,-3.0398,-3.0398,-3.0398,-3.0398,-3.0398,-3.0122,-2.9969,-2.9893,-2.9551,-2.9351,-2.9246,-2.9067,-2.8994,-2.8994,-2.8994,-2.8994,-2.8994,-2.8994,-2.8994,-2.8994,-3.2891,-3.2891,-3.2891,-3.2891,-3.2891,-3.2891,-3.2872,-3.2199,-3.1698,-3.1698,-3.0948,-3.0398,-3.0398,-3.0398,-3.0398,-3.0398,-3.0398,-3.0398,-3.0398,-3.0398,-3.0398,-3.0398,-3.0398,-3.0398,-3.0398,-3.0398,-3.0398,-3.0398,-3.0398,-3.0398,-3.0398,-3.0398,-3.0398,-3.0398,-3.0467,-3.0506,-3.0506,-3.0652,-3.071,-3.0698,-3.0846,-3.0898,-3.0898,-3.0898,-3.0898,-3.0898,-3.0898,-3.0898,-3.0898,-3.0898,-3.09,-3.0883,-3.0737,-3.0602,-3.0506,-3.0506,-3.0448,-3.0398,-3.0398,-3.0398,-3.0398,-3.0398,-3.0398,-3.0398,-3.0398,-3.0398,-3.0398,-3.0398,-3.0398,-3.0398,-3.0398,-3.0398,-3.0398,-3.0398,-3.0467,-3.0487,-3.0398,-3.0467,-3.0467,-3.0398,-3.0467,-3.0467,-3.0398,-3.0467,-3.0506,-3.0506,-3.0448,-3.0398,-3.0398,-3.0398,-3.0398,-3.0398,-3.0398,-3.0398,-3.0398,-3.0398,-3.0398,-3.0398,-3.0398,-3.0398,-3.0398,-3.0122,-2.9893,-2.9696,-2.9474,-2.9246,-2.8994,-2.8994,-2.8994,-2.8994,-2.8994,-2.8994,-2.8994,-2.8994,-2.8994,-2.8994,-3.2865,-3.2891,-3.2718,-3.216,-3.2064,-3.1852,-3.1237,-3.0948,-3.0794,-3.0794,-3.0552,-3.0398,-3.0398,-3.0398,-3.0398,-3.0398,-3.0398,-3.0398,-3.0398,-3.0398,-3.0398,-3.0398,-3.0398,-3.0398,-3.0398,-3.0398,-3.0398,-3.0398,-3.0398,-3.0398,-3.0398,-3.0398,-3.0398,-3.0398,-3.0525,-3.0577,-3.0571,-3.0765,-3.0837,-3.084,-3.0876,-3.0898,-3.0898,-3.0898,-3.0898,-3.0898,-3.0898,-3.0898,-3.0898,-3.0898,-3.09,-3.0883,-3.0679,-3.0564,-3.0487,-3.0448,-3.0417,-3.0398,-3.0398,-3.0398,-3.0398,-3.0398,-3.0398,-3.0398,-3.0398,-3.0398,-3.0398,-3.0398,-3.0398,-3.0398,-3.0398,-3.0398,-3.0398,-3.0398,-3.0417,-3.0417,-3.0398,-3.0417,-3.0417,-3.0398,-3.0417,-3.0417,-3.0398,-3.0417,-3.0417,-3.0417,-3.0398,-3.0398,-3.0398,-3.0398,-3.0398,-3.0398,-3.0398,-3.0398,-3.0398,-3.0398,-3.0398,-3.0398,-3.0209,-3.0122,-3.0122,-2.9748,-2.9551,-2.9493,-2.9225,-2.9067,-2.8994,-2.8994,-2.8994,-2.8994,-2.8994,-2.8994,-2.8994,-2.8994,-2.8994,-2.8994,-3.1736,-3.184,-3.1756,-3.1275,-3.1198,-3.1006,-3.0475,-3.0398,-3.0398,-3.0398,-3.0398,-3.0398,-3.0398,-3.0398,-3.0398,-3.0398,-3.0398,-3.0398,-3.0398,-3.0398,-3.0398,-3.0398,-3.0398,-3.0398,-3.0398,-3.0398,-3.0398,-3.0398,-3.0398,-3.0398,-3.0398,-3.0398,-3.0398,-3.0398,-3.0506,-3.0588,-3.0611,-3.0753,-3.0859,-3.0898,-3.0898,-3.0898,-3.0898,-3.0898,-3.0898,-3.0898,-3.0898,-3.0898,-3.0898,-3.0898,-3.0856,-3.0753,-3.0637,-3.0544,-3.0448,-3.0398,-3.0398,-3.0398,-3.0398,-3.0398,-3.0398,-3.0398,-3.0398,-3.0398,-3.0398,-3.0398,-3.0398,-3.0398,-3.0398,-3.0398,-3.0398,-3.0398,-3.0398,-3.0398,-3.0398,-3.0398,-3.0398,-3.0398,-3.0398,-3.0398,-3.0398,-3.0398,-3.0398,-3.0398,-3.0398,-3.0398,-3.0398,-3.0398,-3.0398,-3.0398,-3.0398,-3.0398,-3.0398,-3.0398,-3.0398,-3.0398,-3.0355,-3.0241,-3.0075,-2.9969,-2.9877,-2.9551,-2.9412,-2.9392,-2.9112,-2.8994,-2.8994,-2.8994,-2.8994,-2.8994,-2.8994,-2.8994,-2.8994,-2.8994,-2.8994,-2.8994,-2.9999,-3.0196,-3.0367,-3.0398,-3.0398,-3.0398,-3.0398,-3.0398,-3.0398,-3.0398,-3.0398,-3.0398,-3.0398,-3.0398,-3.0398,-3.0398,-3.0398,-3.0398,-3.0398,-3.0398,-3.0398,-3.0398,-3.0398,-3.0398,-3.0398,-3.0398,-3.0398,-3.0398,-3.0398,-3.0398,-3.0398,-3.0398,-3.0398,-3.0398,-3.0487,-3.053,-3.0613,-3.0671,-3.0781,-3.0898,-3.0898,-3.0898,-3.0898,-3.0898,-3.0898,-3.0898,-3.0898,-3.0898,-3.0898,-3.0896,-3.0765,-3.0594,-3.0595,-3.0506,-3.0398,-3.0398,-3.0398,-3.0398,-3.0398,-3.0398,-3.0398,-3.0398,-3.0398,-3.0398,-3.0398,-3.0398,-3.0398,-3.0398,-3.0398,-3.0398,-3.0398,-3.0398,-3.0398,-3.0398,-3.0398,-3.0398,-3.0398,-3.0398,-3.0398,-3.0398,-3.0398,-3.0398,-3.0398,-3.0398,-3.0398,-3.0398,-3.0398,-3.0398,-3.0398,-3.0398,-3.0398,-3.0398,-3.0398,-3.0398,-3.0367,-3.0367,-3.0241,-2.9999,-2.9984,-2.9877,-2.9661,-2.9455,-2.9372,-2.9351,-2.9112,-2.8994,-2.8994,-2.8994,-2.8994,-2.8994,-2.8994,-2.8994,-2.8994,-2.8994,-2.8994,-2.8994,-2.9939,-3.0061,-3.015,-3.0367,-3.0398,-3.0398,-3.0398,-3.0398,-3.0398,-3.0398,-3.0398,-3.0398,-3.0398,-3.0398,-3.0398,-3.0398,-3.0398,-3.0398,-3.0398,-3.0398,-3.0398,-3.0398,-3.0398,-3.0398,-3.0398,-3.0398,-3.0398,-3.0398,-3.0398,-3.0398,-3.0398,-3.0398,-3.0398,-3.0398,-3.0525,-3.0598,-3.0617,-3.0771,-3.0879,-3.0898,-3.0898,-3.0898,-3.0898,-3.0898,-3.0898,-3.0898,-3.0898,-3.0898,-3.0876,-3.078,-3.0673,-3.0594,-3.0537,-3.0467,-3.0398,-3.0398,-3.0398,-3.0398,-3.0398,-3.0398,-3.0398,-3.0398,-3.0398,-3.0398,-3.0398,-3.0398,-3.0398,-3.0398,-3.0398,-3.0398,-3.0398,-3.0398,-3.0398,-3.0398,-3.0398,-3.0398,-3.0398,-3.0398,-3.0398,-3.0398,-3.0398,-3.0398,-3.0398,-3.0398,-3.0398,-3.0398,-3.0398,-3.0398,-3.0398,-3.0398,-3.0398,-3.0398,-3.0398,-3.0299,-3.0089,-3.0089,-3.0061,-2.9999,-2.9845,-2.9661,-2.9454,-2.9203,-2.9089,-2.9089,-2.904,-2.8994,-2.8994,-2.8994,-2.8994,-2.8994,-2.8994,-2.8994,-2.8994,-2.8994,-2.8994,-2.8994,-2.9796,-2.9939,-3.0089,-3.0355,-3.0398,-3.0398,-3.0398,-3.0398,-3.0398,-3.0398,-3.0398,-3.0398,-3.0398,-3.0398,-3.0398,-3.0398,-3.0398,-3.0398,-3.0398,-3.0398,-3.0398,-3.0398,-3.0398,-3.0398,-3.0398,-3.0398,-3.0398,-3.0398,-3.0398,-3.0398,-3.0398,-3.0398,-3.0398,-3.0398,-3.0506,-3.0565,-3.0615,-3.075,-3.084,-3.0898,-3.0898,-3.0898,-3.0898,-3.0898,-3.0898,-3.0898,-3.0898,-3.086,-3.0782,-3.0732,-3.0625,-3.0558,-3.0513,-3.0448,-3.0398,-3.0398,-3.0398,-3.0398,-3.0398,-3.0398,-3.0398,-3.0398,-3.0398,-3.0398,-3.0398,-3.0398,-3.0398,-3.0398,-3.0398,-3.0398,-3.0398,-3.0398,-3.0398,-3.0398,-3.0398,-3.0398,-3.0398,-3.0398,-3.0398,-3.0398,-3.0398,-3.0398,-3.0398,-3.0398,-3.0398,-3.0398,-3.0267,-3.0209,-3.0209,-3.0209,-3.0169,-3.0085,-3.0169,-3.0095,-2.9861,-2.9861,-2.9813,-2.9713,-2.9607,-2.9435,-2.9203,-2.9067,-2.8994,-2.8994,-2.8994,-2.8994,-2.8994,-2.8994,-2.8994,-2.8994,-2.8994,-2.8994,-2.8994,-2.8994,-2.8994,-2.8994,-2.9643,-2.9829,-3.0047,-3.0355,-3.0398,-3.0398,-3.0398,-3.0398,-3.0398,-3.0398,-3.0398,-3.0398,-3.0398,-3.0398,-3.0398,-3.0398,-3.0398,-3.0398,-3.0398,-3.0398,-3.0398,-3.0398,-3.0398,-3.0398,-3.0398,-3.0398,-3.0398,-3.0398,-3.0398,-3.0398,-3.0398,-3.0398,-3.0398,-3.0417,-3.0487,-3.0559,-3.0613,-3.0703,-3.0794,-3.0898,-3.0898,-3.0898,-3.0898,-3.0898,-3.0898,-3.0898,-3.0898,-3.0808,-3.0698,-3.0679,-3.0602,-3.0506,-3.0487,-3.0448,-3.0398,-3.0398,-3.0398,-3.0398,-3.0398,-3.0398,-3.0398,-3.0398,-3.0398,-3.0398,-3.0398,-3.0398,-3.0398,-3.0398,-3.0398,-3.0398,-3.0398,-3.0398,-3.0398,-3.0398,-3.0398,-3.0398,-3.0398,-3.0398,-3.0398,-3.0398,-3.0398,-3.0398,-3.0398,-3.0398,-3.0398,-3.0398,-3.015,-2.9999,-2.9999,-2.9969,-2.9877,-2.9713,-2.9861,-2.9845,-2.9643,-2.9643,-2.9533,-2.933,-2.933,-2.9222,-2.8994,-2.8994,-2.8994,-2.8994,-2.8994,-2.8994,-2.8994,-2.8994,-2.8994,-2.8994,-2.8994,-2.8994,-2.8994,-2.8994,-2.8994,-2.8994,-2.9607,-2.9731,-2.988,-3.0311,-3.0398,-3.0398,-3.0398,-3.0398,-3.0398,-3.0398,-3.0398,-3.0398,-3.0398,-3.0398,-3.0398,-3.0398,-3.0398,-3.0398,-3.0398,-3.0398,-3.0398,-3.0398,-3.0398,-3.0398,-3.0398,-3.0398,-3.0398,-3.0398,-3.0398,-3.0398,-3.0398,-3.0398,-3.0417,-3.0487,-3.0564,-3.0625,-3.0692,-3.0817,-3.0875,-3.0898,-3.0898,-3.0898,-3.0898,-3.0898,-3.0898,-3.0898,-3.0898,-3.0808,-3.0679,-3.0621,-3.0564,-3.0487,-3.0417,-3.0398,-3.0398,-3.0398,-3.0398,-3.0398,-3.0398,-3.0398,-3.0398,-3.0398,-3.0398,-3.0398,-3.0398,-3.0398,-3.0398,-3.0398,-3.0398,-3.0398,-3.0398,-3.0398,-3.0398,-3.0398,-3.0398,-3.0398,-3.0398,-3.0398,-3.0398,-3.0398,-3.0398,-3.0398,-3.0398,-3.0398,-3.0398,-3.0398,-3.015,-2.9999,-2.9999,-2.9829,-2.9731,-2.9696,-2.9731,-2.9643,-2.9434,-2.9434,-2.931,-2.9044,-2.9044,-2.904,-2.8994,-2.8994,-2.8994,-2.8994,-2.8994,-2.8994,-2.8994,-2.8994,-2.8994,-2.8994,-2.8994,-2.8994,-2.8994,-2.8994,-2.8994,-2.8994,-2.9643,-2.978,-2.9988,-3.0343,-3.0398,-3.0398,-3.0398,-3.0398,-3.0398,-3.0398,-3.0398,-3.0398,-3.0398,-3.0398,-3.0398,-3.0398,-3.0398,-3.0398,-3.0398,-3.0398,-3.0398,-3.0398,-3.0398,-3.0398,-3.0398,-3.0398,-3.0398,-3.0398,-3.0398,-3.0398,-3.0398,-3.0398,-3.0448,-3.0487,-3.0569,-3.0637,-3.0706,-3.084,-3.0898,-3.0898,-3.0898,-3.0898,-3.0898,-3.0898,-3.0898,-3.0897,-3.0813,-3.0734,-3.0634,-3.0563,-3.0506,-3.0448,-3.0398,-3.0398,-3.0398,-3.0398,-3.0398,-3.0398,-3.0398,-3.0398,-3.0398,-3.0398,-3.0398,-3.0398,-3.0398,-3.0398,-3.0398,-3.0398,-3.0398,-3.0398,-3.0398,-3.0398,-3.0398,-3.0398,-3.0398,-3.0398,-3.0398,-3.0398,-3.0398,-3.0398,-3.0398,-3.0398,-3.0398,-3.0398,-3.0343,-3.0196,-2.9954,-2.978,-2.9661,-2.957,-2.9456,-2.9314,-2.9436,-2.9415,-2.9178,-2.9178,-2.9112,-2.8994,-2.8994,-2.8994,-2.8994,-2.8994,-2.8994,-2.8994,-2.8994,-2.8994,-2.8994,-2.8994,-2.8994,-2.8994,-2.8994,-2.8994,-2.8994,-2.8994,-2.8994,-2.8994]}]]